[[{"header":{"parameterUnit":"m.s-1","parameterCategory":1,"la1":30.6,"la2":29.2853,"lo1":-89.7004,"lo2":-87.6739,"dy":0.0162,"dx":0.0183,"nx":112,"ny":82,"refTime":"2023-06-10T06:00:00:Z","depth":0,"parameterNumber":2,"parameterNumberName":"U-component_of_WINDS"},"data":[0.0,0.0,0.0,0.0,0.0,0.0,0.0,0.0,0.0,0.0,0.0,0.0,0.0,0.0,0.0,0.0,0.0,0.0,0.0,0.0,0.0,0.0,0.0,0.0,0.0,0.0,0.0,0.0,0.0,0.0,0.0,0.0,0.0,0.0,0.0,0.0,0.0,0.0,0.0,0.0,0.0,0.0,0.0,0.0,0.0,0.0,0.0,0.0,0.0,0.0,0.0,0.0,0.0,0.0,0.0,0.0,0.0,0.0,0.0,0.0,0.0,0.0,0.0,0.0,0.0,0.0,0.0,0.0,0.0,0.0,0.0,0.0,0.0,0.0,0.0,0.0,0.0,0.0,0.0,0.0,0.0,0.0,0.0,0.0,0.0,0.0,0.0,0.0,0.0,0.0,-5.1229,-5.1229,-5.1229,-5.1229,-5.1229,-5.1229,-5.1229,-5.1229,0.0,0.0,0.0,0.0,0.0,0.0,0.0,0.0,0.0,0.0,0.0,0.0,0.0,0.0,0.0,0.0,0.0,0.0,0.0,0.0,0.0,0.0,0.0,0.0,0.0,0.0,0.0,0.0,0.0,0.0,0.0,0.0,0.0,0.0,0.0,0.0,0.0,0.0,0.0,0.0,0.0,0.0,0.0,0.0,0.0,0.0,0.0,0.0,0.0,0.0,0.0,0.0,0.0,0.0,0.0,0.0,0.0,0.0,0.0,0.0,0.0,0.0,0.0,0.0,0.0,0.0,0.0,0.0,0.0,0.0,0.0,0.0,0.0,0.0,0.0,0.0,0.0,0.0,0.0,0.0,0.0,0.0,0.0,0.0,0.0,0.0,0.0,0.0,0.0,0.0,0.0,0.0,0.0,0.0,0.0,0.0,0.0,0.0,0.0,0.0,0.0,0.0,0.0,0.0,-5.1229,-5.1229,-5.1229,-5.1229,-5.1229,-5.1229,-5.1229,-5.1229,0.0,0.0,0.0,0.0,0.0,0.0,0.0,0.0,0.0,0.0,0.0,0.0,0.0,0.0,0.0,0.0,0.0,0.0,0.0,0.0,0.0,0.0,0.0,0.0,0.0,0.0,0.0,0.0,0.0,0.0,0.0,0.0,0.0,0.0,0.0,0.0,0.0,0.0,0.0,0.0,0.0,0.0,0.0,0.0,0.0,0.0,0.0,0.0,0.0,0.0,0.0,0.0,0.0,0.0,0.0,0.0,0.0,0.0,0.0,0.0,0.0,0.0,0.0,0.0,0.0,0.0,0.0,0.0,0.0,0.0,0.0,0.0,0.0,0.0,0.0,0.0,0.0,0.0,0.0,0.0,0.0,0.0,0.0,0.0,0.0,0.0,0.0,0.0,0.0,0.0,0.0,0.0,0.0,0.0,0.0,0.0,0.0,0.0,0.0,0.0,0.0,0.0,0.0,-5.1229,-5.1229,-5.1229,-5.1229,-5.1229,-5.1229,-5.1229,-5.1229,-5.1229,-5.1229,0.0,0.0,0.0,0.0,0.0,0.0,0.0,0.0,0.0,0.0,0.0,0.0,0.0,0.0,0.0,0.0,0.0,0.0,0.0,0.0,0.0,0.0,0.0,0.0,0.0,0.0,0.0,0.0,0.0,0.0,0.0,0.0,0.0,0.0,0.0,0.0,0.0,0.0,0.0,0.0,0.0,0.0,0.0,0.0,0.0,0.0,0.0,0.0,0.0,0.0,0.0,0.0,0.0,0.0,0.0,0.0,0.0,0.0,0.0,0.0,0.0,0.0,0.0,0.0,0.0,0.0,0.0,0.0,0.0,0.0,0.0,0.0,0.0,0.0,0.0,0.0,0.0,0.0,0.0,0.0,0.0,0.0,0.0,0.0,0.0,0.0,0.0,0.0,0.0,0.0,0.0,0.0,0.0,0.0,0.0,0.0,0.0,0.0,0.0,0.0,0.0,0.0,-5.1229,-5.1229,-5.1229,-5.1229,-5.1229,-5.1229,-5.1229,-5.1229,-5.1229,-5.1229,0.0,0.0,0.0,0.0,0.0,0.0,0.0,0.0,0.0,0.0,0.0,0.0,0.0,0.0,0.0,0.0,0.0,0.0,0.0,0.0,0.0,0.0,0.0,0.0,0.0,0.0,0.0,0.0,0.0,0.0,0.0,0.0,0.0,0.0,0.0,0.0,0.0,0.0,0.0,0.0,0.0,0.0,0.0,0.0,0.0,0.0,0.0,0.0,0.0,0.0,0.0,0.0,0.0,0.0,0.0,0.0,0.0,0.0,0.0,0.0,0.0,0.0,0.0,0.0,0.0,0.0,0.0,0.0,0.0,0.0,0.0,0.0,0.0,0.0,0.0,0.0,0.0,0.0,0.0,0.0,0.0,0.0,0.0,0.0,0.0,0.0,0.0,0.0,0.0,0.0,0.0,0.0,0.0,0.0,0.0,0.0,0.0,0.0,0.0,0.0,0.0,0.0,-5.1229,-5.1229,-5.1229,-5.1229,-5.1229,-5.1229,-5.1229,-5.1229,-5.1229,-5.1229,0.0,0.0,0.0,0.0,0.0,0.0,0.0,0.0,0.0,0.0,0.0,0.0,0.0,0.0,0.0,0.0,0.0,0.0,0.0,0.0,0.0,0.0,0.0,0.0,0.0,0.0,0.0,0.0,0.0,0.0,0.0,0.0,0.0,0.0,0.0,0.0,0.0,0.0,0.0,0.0,0.0,0.0,0.0,0.0,0.0,0.0,0.0,0.0,0.0,0.0,0.0,0.0,0.0,0.0,0.0,0.0,0.0,0.0,0.0,0.0,0.0,0.0,0.0,0.0,0.0,0.0,0.0,0.0,0.0,0.0,0.0,0.0,0.0,0.0,0.0,0.0,0.0,0.0,0.0,0.0,0.0,0.0,0.0,0.0,0.0,0.0,0.0,0.0,0.0,0.0,0.0,0.0,0.0,0.0,0.0,0.0,0.0,0.0,0.0,0.0,0.0,0.0,-5.1229,-5.1229,-5.1229,-5.1229,-5.1229,-5.1229,-5.1229,-5.1229,-5.1229,0.0,0.0,0.0,0.0,0.0,0.0,0.0,0.0,0.0,0.0,0.0,0.0,0.0,0.0,0.0,0.0,0.0,0.0,0.0,0.0,0.0,0.0,0.0,0.0,0.0,0.0,0.0,0.0,0.0,0.0,0.0,0.0,0.0,0.0,0.0,0.0,0.0,0.0,0.0,0.0,0.0,0.0,0.0,0.0,0.0,0.0,0.0,0.0,0.0,0.0,0.0,0.0,0.0,0.0,0.0,0.0,0.0,0.0,0.0,0.0,0.0,0.0,0.0,0.0,0.0,0.0,0.0,0.0,0.0,0.0,0.0,0.0,0.0,0.0,0.0,0.0,0.0,0.0,0.0,0.0,0.0,0.0,0.0,0.0,0.0,0.0,0.0,0.0,0.0,0.0,0.0,0.0,0.0,0.0,0.0,0.0,0.0,0.0,0.0,0.0,0.0,0.0,-5.1229,-5.1229,-5.1229,-5.1229,-5.1229,-5.1229,-5.1229,-5.1229,-5.1229,-5.1229,0.0,0.0,0.0,0.0,0.0,0.0,0.0,0.0,0.0,0.0,0.0,0.0,0.0,0.0,0.0,0.0,0.0,0.0,0.0,0.0,0.0,0.0,0.0,0.0,0.0,0.0,0.0,0.0,0.0,0.0,0.0,0.0,0.0,0.0,0.0,0.0,0.0,0.0,0.0,0.0,0.0,0.0,0.0,0.0,0.0,0.0,0.0,0.0,0.0,0.0,0.0,0.0,0.0,0.0,0.0,0.0,0.0,0.0,0.0,0.0,0.0,0.0,0.0,0.0,0.0,0.0,0.0,0.0,0.0,0.0,0.0,0.0,0.0,0.0,0.0,0.0,0.0,0.0,0.0,0.0,0.0,0.0,0.0,0.0,0.0,0.0,0.0,0.0,0.0,0.0,0.0,0.0,0.0,0.0,0.0,0.0,0.0,0.0,0.0,0.0,0.0,0.0,-5.1229,-5.1229,-5.1229,-5.1229,-5.1229,-5.1229,-5.1229,-5.1229,-5.1229,0.0,0.0,0.0,0.0,0.0,0.0,0.0,0.0,0.0,0.0,0.0,0.0,0.0,0.0,0.0,0.0,0.0,0.0,0.0,0.0,0.0,0.0,0.0,0.0,0.0,0.0,0.0,0.0,0.0,0.0,0.0,0.0,0.0,0.0,0.0,0.0,0.0,0.0,0.0,0.0,0.0,0.0,0.0,0.0,0.0,0.0,0.0,0.0,0.0,0.0,0.0,0.0,0.0,0.0,0.0,0.0,0.0,0.0,0.0,0.0,0.0,0.0,0.0,0.0,0.0,0.0,0.0,0.0,0.0,0.0,0.0,0.0,0.0,0.0,0.0,0.0,0.0,0.0,0.0,0.0,0.0,0.0,0.0,0.0,0.0,0.0,0.0,0.0,0.0,0.0,0.0,0.0,0.0,0.0,0.0,0.0,0.0,0.0,0.0,0.0,0.0,0.0,0.0,-5.1229,-5.1229,-5.1229,-5.1229,-5.1229,-5.1229,-5.1229,-5.1229,-5.1229,-5.1229,0.0,0.0,0.0,0.0,0.0,0.0,0.0,0.0,0.0,0.0,0.0,0.0,0.0,0.0,0.0,0.0,0.0,0.0,0.0,0.0,0.0,0.0,0.0,0.0,0.0,0.0,0.0,0.0,0.0,0.0,0.0,0.0,0.0,0.0,0.0,0.0,0.0,0.0,0.0,0.0,0.0,0.0,0.0,0.0,0.0,0.0,0.0,0.0,0.0,0.0,0.0,0.0,0.0,0.0,0.0,0.0,0.0,0.0,0.0,0.0,0.0,0.0,0.0,0.0,0.0,0.0,0.0,0.0,0.0,0.0,0.0,0.0,0.0,0.0,0.0,0.0,0.0,0.0,0.0,0.0,0.0,0.0,0.0,0.0,0.0,0.0,0.0,0.0,0.0,0.0,0.0,0.0,0.0,0.0,0.0,0.0,0.0,0.0,0.0,0.0,0.0,0.0,-5.1229,-5.1229,-5.1229,-5.1229,-5.1229,-5.1229,-5.1229,-5.1229,-5.1229,-5.1229,0.0,0.0,0.0,0.0,0.0,0.0,0.0,0.0,0.0,0.0,0.0,0.0,0.0,0.0,0.0,0.0,0.0,0.0,0.0,0.0,0.0,0.0,0.0,0.0,0.0,0.0,0.0,0.0,0.0,0.0,0.0,0.0,0.0,0.0,0.0,0.0,0.0,0.0,0.0,0.0,0.0,0.0,0.0,0.0,0.0,0.0,0.0,0.0,0.0,0.0,0.0,0.0,0.0,0.0,0.0,0.0,0.0,0.0,0.0,0.0,0.0,0.0,0.0,0.0,0.0,0.0,0.0,0.0,0.0,0.0,0.0,0.0,0.0,0.0,0.0,0.0,0.0,0.0,0.0,0.0,0.0,0.0,0.0,0.0,0.0,0.0,0.0,0.0,0.0,0.0,0.0,0.0,0.0,0.0,0.0,0.0,0.0,0.0,0.0,0.0,0.0,0.0,-5.1229,-5.1229,-5.1229,-5.1229,-5.1229,-5.1229,-5.1229,-5.1229,-5.1229,-5.1229,0.0,0.0,0.0,0.0,0.0,0.0,0.0,0.0,0.0,0.0,0.0,0.0,0.0,0.0,0.0,0.0,0.0,0.0,0.0,0.0,0.0,0.0,0.0,0.0,0.0,0.0,0.0,0.0,0.0,0.0,0.0,0.0,0.0,0.0,0.0,0.0,0.0,0.0,0.0,0.0,0.0,0.0,0.0,0.0,0.0,0.0,0.0,0.0,0.0,0.0,0.0,0.0,0.0,0.0,0.0,0.0,0.0,0.0,0.0,0.0,-5.3054,-5.3414,0.0,0.0,0.0,0.0,0.0,0.0,0.0,0.0,0.0,0.0,0.0,0.0,0.0,0.0,0.0,0.0,0.0,0.0,0.0,0.0,0.0,0.0,0.0,0.0,0.0,0.0,0.0,0.0,0.0,0.0,0.0,0.0,0.0,0.0,0.0,0.0,0.0,0.0,0.0,0.0,-5.1229,-5.1229,-5.1229,-5.1229,-5.1229,-5.1229,-5.1229,-5.1229,-5.1229,-5.1229,-5.1229,0.0,0.0,0.0,0.0,0.0,0.0,0.0,0.0,0.0,0.0,0.0,0.0,0.0,0.0,0.0,0.0,0.0,0.0,0.0,0.0,0.0,0.0,0.0,0.0,0.0,0.0,0.0,0.0,0.0,0.0,0.0,0.0,0.0,0.0,0.0,0.0,0.0,0.0,0.0,0.0,0.0,0.0,0.0,0.0,0.0,0.0,0.0,0.0,0.0,0.0,0.0,0.0,0.0,0.0,0.0,0.0,0.0,0.0,0.0,-5.4162,-5.4162,0.0,0.0,0.0,0.0,0.0,0.0,0.0,0.0,0.0,0.0,0.0,0.0,0.0,0.0,0.0,0.0,0.0,0.0,0.0,0.0,0.0,0.0,0.0,0.0,0.0,0.0,0.0,0.0,0.0,0.0,0.0,0.0,0.0,0.0,0.0,0.0,0.0,0.0,0.0,0.0,-5.1229,-5.1229,-5.1229,-5.1229,-5.1229,-5.1229,-5.1229,-5.1229,-5.1229,-5.1229,-5.1229,0.0,0.0,0.0,0.0,0.0,0.0,0.0,0.0,0.0,0.0,0.0,0.0,0.0,0.0,0.0,0.0,0.0,0.0,0.0,0.0,0.0,0.0,0.0,0.0,0.0,0.0,0.0,0.0,0.0,0.0,0.0,0.0,0.0,0.0,0.0,0.0,0.0,0.0,0.0,0.0,0.0,0.0,0.0,0.0,0.0,0.0,0.0,0.0,0.0,0.0,0.0,0.0,0.0,-5.3952,-5.4491,-5.5029,-5.5149,-5.5179,-5.5179,-5.5179,-5.488,-5.4431,-5.497,0.0,0.0,0.0,0.0,0.0,0.0,0.0,0.0,0.0,0.0,0.0,0.0,0.0,0.0,0.0,0.0,0.0,0.0,0.0,0.0,0.0,0.0,-5.5179,-5.5179,-5.5179,-5.5179,-5.5179,0.0,0.0,0.0,0.0,0.0,0.0,0.0,0.0,0.0,0.0,0.0,-5.1229,-5.1229,-5.1229,-5.1229,-5.1229,-5.1229,-5.1229,-5.1229,-5.1229,-5.1229,-5.1229,-5.1229,0.0,0.0,0.0,0.0,0.0,0.0,0.0,0.0,0.0,0.0,0.0,0.0,0.0,0.0,0.0,0.0,0.0,0.0,0.0,0.0,0.0,0.0,0.0,0.0,0.0,0.0,0.0,0.0,0.0,0.0,0.0,0.0,-5.5329,-5.6126,0.0,0.0,0.0,0.0,0.0,0.0,0.0,0.0,0.0,0.0,0.0,0.0,0.0,-5.2396,-5.3054,-5.3054,-5.3384,-5.4072,-5.4162,-5.4251,-5.4371,-5.494,-5.5179,-5.5179,-5.5179,0.0,-5.5059,-5.5149,0.0,0.0,0.0,0.0,0.0,0.0,0.0,0.0,0.0,0.0,0.0,0.0,0.0,0.0,0.0,0.0,0.0,0.0,0.0,0.0,0.0,0.0,-5.5179,-5.5179,-5.5179,-5.5179,-5.5179,-5.5059,-5.479,-5.4311,-5.3593,-5.3054,0.0,0.0,0.0,0.0,0.0,0.0,-5.1229,-5.1229,-5.1229,-5.1229,-5.1229,-5.1229,-5.1229,-5.1229,-5.1229,-5.1229,-5.1229,-5.1229,-5.1229,-5.0095,0.0,0.0,0.0,0.0,0.0,0.0,0.0,0.0,0.0,0.0,0.0,0.0,0.0,0.0,0.0,0.0,0.0,0.0,0.0,0.0,0.0,0.0,0.0,0.0,0.0,0.0,0.0,0.0,0.0,-5.6509,-5.545,-5.5329,-5.3999,-5.2812,0.0,0.0,0.0,0.0,0.0,0.0,0.0,0.0,0.0,-5.1768,-5.2067,-5.2516,-5.3174,-5.3563,-5.3922,-5.4221,-5.4581,-5.476,-5.476,-5.5059,-5.5179,-5.5179,-5.5179,-5.5179,-5.5179,-5.5179,-5.5179,-5.5179,0.0,0.0,0.0,0.0,-5.5179,-5.5179,-5.5179,-5.5179,-5.5179,-5.5179,0.0,0.0,0.0,0.0,0.0,0.0,0.0,-5.5179,-5.5179,-5.5179,-5.5179,-5.5179,-5.5179,-5.5179,-5.5179,-5.5179,-5.5089,-5.482,-5.3922,-5.3294,-5.3683,-5.2665,0.0,0.0,0.0,-5.1229,-5.1229,-5.1229,-5.1229,-5.1229,-5.1229,-5.1229,-5.1229,-5.1229,-5.1229,-5.1229,-5.1229,-5.1229,-5.1229,-5.065,-4.9969,0.0,0.0,0.0,0.0,0.0,0.0,0.0,0.0,0.0,0.0,0.0,0.0,0.0,0.0,0.0,0.0,0.0,0.0,0.0,0.0,0.0,0.0,0.0,0.0,0.0,0.0,0.0,0.0,-5.6663,-5.5611,-5.5052,-5.4253,-5.3209,0.0,0.0,0.0,0.0,0.0,0.0,-5.1229,-5.1379,-5.1678,-5.2187,-5.2546,-5.2965,-5.3443,-5.4132,-5.4461,-5.4461,-5.497,-5.5179,-5.5179,-5.5179,-5.5179,-5.5179,-5.5179,-5.5179,-5.5179,-5.5179,-5.5179,-5.5179,-5.5179,-5.5179,-5.5179,-5.5179,-5.5179,-5.5179,-5.5179,-5.5179,-5.5179,-5.5179,-5.5179,-5.5179,-5.5179,0.0,0.0,0.0,0.0,-5.5179,-5.5179,-5.5179,-5.5179,-5.5179,-5.5179,-5.5179,-5.5179,-5.5179,-5.5149,-5.497,-5.3982,-5.3354,-5.3862,-5.2845,0.0,-5.2187,-5.1648,-5.1229,-5.1229,-5.1229,-5.1229,-5.1229,-5.1229,-5.1229,-5.1229,-5.1229,-5.1229,-5.1229,-5.1229,-5.1229,-5.1229,-5.1229,-5.0555,-4.921,0.0,0.0,0.0,0.0,0.0,0.0,0.0,0.0,0.0,0.0,0.0,0.0,0.0,0.0,0.0,0.0,0.0,0.0,0.0,0.0,0.0,0.0,0.0,0.0,0.0,0.0,0.0,0.0,0.0,-5.6008,-5.3309,0.0,0.0,0.0,0.0,-5.1199,-5.1229,-5.1229,-5.1229,-5.1798,-5.2157,-5.2187,-5.3443,-5.4132,-5.4162,-5.482,-5.5149,-5.5149,-5.5179,-5.5179,-5.5179,-5.5179,-5.5179,-5.5179,-5.5179,-5.5179,-5.5179,-5.5179,-5.5179,-5.5179,-5.5179,-5.5179,-5.5179,-5.5179,-5.5179,-5.5179,-5.5179,-5.5179,-5.5179,-5.5179,-5.5179,-5.5179,-5.5179,-5.5179,0.0,0.0,-5.5179,-5.5179,-5.5179,-5.5179,-5.5179,-5.5179,-5.5179,-5.5179,-5.5179,-5.5179,-5.4999,-5.4371,-5.3683,-5.3204,-5.3234,0.0,-5.1468,-5.2097,-5.1648,-5.1229,-5.1229,-5.1229,-5.1229,-5.1229,-5.1229,-5.1229,-5.1229,-5.1229,-5.1229,-5.1229,-5.1229,-5.1229,-5.1229,-5.1229,-5.0555,-4.921,-4.7859,0.0,0.0,0.0,0.0,0.0,0.0,0.0,0.0,0.0,0.0,0.0,0.0,0.0,0.0,0.0,0.0,0.0,0.0,0.0,0.0,0.0,0.0,0.0,0.0,0.0,0.0,0.0,0.0,-5.4094,-5.3033,0.0,-5.1865,-5.1433,-5.1229,-5.1229,-5.1229,-5.1229,-5.1229,-5.1858,-5.2396,-5.2815,-5.3743,-5.4431,-5.485,-5.5059,-5.5179,-5.5179,-5.5179,-5.5179,-5.5179,-5.5179,-5.5179,-5.5179,-5.5179,-5.5179,-5.5179,-5.5179,-5.5179,-5.5179,-5.5179,-5.5179,-5.5179,-5.5179,-5.5179,-5.5179,-5.5179,-5.5179,-5.5179,-5.5179,-5.5179,-5.5179,-5.5179,-5.5179,-5.5179,-5.5179,-5.5179,-5.5179,-5.5179,-5.5179,-5.5179,-5.5179,-5.5179,-5.5179,-5.5179,-5.5179,-5.5119,-5.488,-5.3952,-5.3324,-5.3773,-5.2396,-5.1439,-5.2097,-5.1648,-5.1229,-5.1229,-5.1229,-5.1229,-5.1229,-5.1229,-5.1229,-5.1229,-5.1229,-5.1229,-5.1229,-5.1229,-5.1229,-5.1229,-5.1229,-5.0964,-5.0508,-4.9161,-4.7757,0.0,0.0,0.0,0.0,0.0,0.0,0.0,0.0,0.0,0.0,0.0,0.0,0.0,0.0,0.0,0.0,0.0,0.0,0.0,0.0,0.0,0.0,0.0,0.0,0.0,-5.5174,-5.3871,-5.3526,-5.2767,-5.2018,-5.1246,-5.1229,-5.1229,-5.1229,-5.1229,-5.1319,-5.1528,-5.2187,-5.2845,-5.3503,-5.4192,-5.476,-5.5179,-5.5179,-5.5179,-5.5179,-5.5179,-5.5179,-5.5179,-5.5179,-5.5179,-5.5179,-5.5179,-5.5179,-5.5179,-5.5179,-5.5179,-5.5179,-5.5179,-5.5179,-5.5179,-5.5179,-5.5179,-5.5179,-5.5179,-5.5179,-5.5179,-5.5179,-5.5179,-5.5179,-5.5179,-5.5179,-5.5179,-5.5179,-5.5179,-5.5179,-5.5179,-5.5179,-5.5179,-5.5179,-5.5179,-5.5179,-5.5179,-5.5179,-5.5119,-5.491,-5.3952,-5.3324,-5.3773,-5.2396,-5.1379,-5.1798,-5.1498,-5.1229,-5.1229,-5.1229,-5.1229,-5.1229,-5.1229,-5.1229,-5.1229,-5.1229,-5.1229,-5.1229,-5.1229,-5.1229,-5.1229,-5.0745,-5.0555,-5.0555,-4.8738,-4.7299,-4.637,0.0,0.0,0.0,0.0,0.0,0.0,0.0,0.0,0.0,0.0,0.0,0.0,0.0,0.0,0.0,0.0,0.0,0.0,0.0,0.0,0.0,0.0,0.0,-5.7517,-5.4929,-5.3253,-5.4379,-5.253,-5.1229,-5.1229,-5.1229,-5.1229,-5.1229,-5.1229,-5.1528,-5.2157,-5.2845,-5.3533,-5.4192,-5.485,-5.5179,-5.5179,-5.5179,-5.5179,-5.5179,-5.5179,-5.5179,-5.5179,-5.5179,-5.5179,-5.5179,-5.5179,-5.5179,-5.5179,-5.5179,-5.5179,-5.5179,-5.5179,-5.5179,-5.5179,-5.5179,-5.5179,-5.5179,-5.5179,-5.5179,-5.5179,-5.5179,-5.5179,-5.5179,-5.5179,-5.5179,-5.5179,-5.5179,-5.5179,-5.5179,-5.5179,-5.5179,-5.5179,-5.5179,-5.5179,-5.5179,-5.5179,-5.5179,-5.497,-5.4341,-5.3623,-5.3144,-5.3144,-5.2067,-5.1229,-5.1229,-5.1229,0.0,-5.1229,-5.1229,-5.1229,-5.1229,-5.1229,-5.1229,-5.1229,-5.1229,-5.1229,-5.1229,-5.1229,-5.1229,-5.1229,-4.9921,-4.9259,-4.921,-4.6474,-4.5048,-4.4994,0.0,0.0,0.0,0.0,0.0,0.0,0.0,0.0,0.0,0.0,0.0,0.0,0.0,0.0,0.0,0.0,0.0,0.0,0.0,0.0,0.0,-5.553,-5.4838,-5.541,-5.3265,-5.1773,-5.2109,-5.1588,-5.1229,-5.1229,-5.1229,-5.1229,-5.1229,-5.1648,-5.2007,-5.2187,-5.3294,-5.4012,-5.4192,-5.485,-5.5179,-5.5179,-5.5179,-5.5179,-5.5179,-5.5179,-5.5179,-5.5179,-5.5179,-5.5179,-5.5179,-5.5179,-5.5179,-5.5179,-5.5179,-5.5179,-5.5179,-5.5179,-5.5179,-5.5179,-5.5179,-5.5179,-5.5179,-5.5179,-5.5179,-5.5179,-5.5179,-5.5179,-5.5179,-5.5179,-5.5179,-5.5179,-5.5179,-5.5179,-5.5179,-5.5179,-5.5179,-5.5179,-5.5179,-5.5179,-5.5179,-5.5179,-5.482,-5.4431,-5.4251,-5.3264,-5.2456,-5.2456,-5.1768,-5.1229,-5.1229,-5.1229,-5.1229,-5.1229,-5.1229,-5.1229,-5.1229,-5.1229,-5.1229,-5.1229,-5.1229,-5.1229,-5.1229,-5.1229,-5.1229,-5.1229,-5.087,-5.0191,-4.921,-4.7453,-4.603,0.0,0.0,0.0,0.0,0.0,0.0,0.0,0.0,0.0,0.0,0.0,0.0,0.0,0.0,0.0,0.0,0.0,0.0,0.0,0.0,0.0,0.0,-5.5296,-5.4755,-5.5207,-5.2945,-5.1386,-5.1865,-5.1479,-5.1229,-5.1229,-5.1229,-5.1229,-5.1229,-5.1828,-5.2306,-5.2606,-5.3623,-5.4341,-5.461,-5.4999,-5.5179,-5.5179,-5.5179,-5.5179,-5.5179,-5.5179,-5.5179,-5.5179,-5.5179,-5.5179,-5.5179,-5.5179,-5.5179,-5.5179,-5.5179,-5.5179,-5.5179,0.0,0.0,0.0,0.0,-5.5179,-5.5179,-5.5179,-5.5179,-5.5179,-5.5179,-5.5179,-5.5179,-5.5179,-5.5179,-5.5179,-5.5179,-5.5179,-5.5179,-5.5179,-5.5179,-5.5179,-5.5179,-5.5179,-5.5119,-5.485,-5.4491,-5.4042,-5.3473,-5.2725,0.0,-5.1828,-5.1468,-5.1229,-5.1229,-5.1229,-5.1229,-5.1229,-5.1229,-5.1229,-5.1229,-5.1229,-5.1229,-5.1229,-5.1229,0.0,0.0,0.0,-5.0964,-5.0383,-5.0335,0.0,0.0,0.0,-4.6682,-4.5872,-4.4535,0.0,0.0,-4.2986,-4.2986,0.0,0.0,0.0,0.0,0.0,0.0,0.0,0.0,0.0,0.0,0.0,0.0,0.0,0.0,0.0,0.0,-5.5174,-5.4723,-5.5698,-5.3178,-5.1635,-5.2767,-5.188,-5.1229,-5.1229,-5.1229,-5.1259,-5.1319,-5.1947,-5.2606,-5.3264,-5.3952,0.0,0.0,0.0,-5.5179,-5.5179,-5.5179,-5.5179,-5.5179,-5.5179,-5.5179,-5.5179,-5.5179,-5.5179,-5.5179,-5.5179,-5.5179,-5.5179,-5.5179,-5.5179,-5.5179,-5.5179,-5.5179,-5.5179,-5.5179,-5.5179,-5.5179,-5.5179,0.0,0.0,-5.5179,-5.5179,-5.5179,-5.5179,-5.5179,-5.5179,-5.5179,-5.5179,-5.5179,-5.5179,-5.5179,-5.5179,-5.5089,-5.5089,-5.491,-5.4251,-5.4042,-5.3623,-5.2426,-5.2127,-5.1917,-5.1319,-5.1229,-5.1229,-5.1229,-5.1229,-5.1229,-5.1229,-5.1229,-5.1229,-5.1229,-5.1229,0.0,-5.1229,-5.1229,-5.1229,-5.1229,-5.1229,-5.065,-4.9455,-4.9406,-4.9406,-4.9406,-4.8038,-4.735,-4.7299,-4.5925,-4.4535,-4.324,-4.3073,-4.2986,0.0,0.0,0.0,0.0,0.0,0.0,0.0,0.0,0.0,0.0,0.0,0.0,0.0,0.0,0.0,-5.6243,-5.4515,-5.3265,-5.3526,-5.2169,-5.1635,-5.2767,-5.188,-5.1229,-5.1229,-5.1229,-5.1439,-5.1977,-5.2606,-5.3294,-5.3982,-5.464,-5.5059,-5.5179,-5.5179,-5.5179,-5.5179,-5.5179,-5.5179,-5.5179,-5.5179,0.0,-5.5179,-5.5179,-5.5179,-5.5179,-5.5179,-5.5179,-5.5179,-5.5179,-5.5179,-5.5179,-5.5179,-5.5179,-5.5179,-5.5179,-5.5179,-5.5179,-5.5179,-5.5179,-5.5179,-5.5179,-5.5179,-5.5179,-5.5179,-5.5179,0.0,-5.5179,-5.5179,-5.5179,-5.5179,-5.5179,-5.5059,-5.4521,-5.4401,-5.4221,-5.3533,-5.2965,-5.2516,-5.2247,-5.1768,-5.1379,-5.1229,-5.1229,-5.1229,-5.1229,-5.1229,-5.1229,-5.1229,-5.1229,-5.1229,-5.1229,-5.1229,-5.1229,-5.1229,-5.1229,-5.1229,-5.1229,-5.1229,-5.1058,-5.0822,-5.0793,-5.0793,-5.0793,-4.9455,-4.8787,-4.8787,-4.735,-4.5978,-4.4589,-4.3492,-4.2986,0.0,0.0,0.0,0.0,0.0,0.0,0.0,0.0,0.0,0.0,0.0,-5.7735,-5.7151,0.0,-5.6663,-5.5611,-5.4473,-5.3742,-5.3742,-5.226,-5.1433,-5.1972,-5.1572,-5.1229,-5.1229,-5.1498,-5.1858,-5.2187,-5.3114,-5.3832,-5.4192,-5.485,-5.5179,-5.5179,-5.5179,-5.5179,-5.5179,-5.5179,-5.5179,-5.5179,-5.5179,-5.5179,-5.5179,-5.5179,-5.5179,-5.5179,-5.5179,-5.5179,-5.5179,-5.5179,-5.5179,-5.5179,-5.5179,-5.5179,-5.5179,-5.5179,-5.5179,-5.5179,-5.5179,-5.5179,-5.5179,-5.5179,-5.5179,-5.5179,-5.5179,-5.5179,-5.5179,-5.5179,-5.5179,-5.5179,-5.5179,-5.494,-5.461,-5.4281,-5.3952,-5.3503,-5.2845,-5.2426,-5.2097,-5.1768,-5.1439,-5.1229,-5.1229,-5.1229,-5.1229,-5.1229,-5.1229,-5.1229,-5.1229,-5.1229,-5.1229,-5.1229,-5.1229,-5.1229,-5.1229,-5.1229,-5.1229,-5.1229,-5.1229,-5.1229,-5.1229,-5.1229,-5.1229,-5.1229,-5.0555,-4.9873,-4.921,-4.8489,-4.7402,-4.603,-4.4643,-4.3657,0.0,0.0,0.0,0.0,0.0,0.0,0.0,-5.7881,-5.7881,-5.7881,-5.7881,-5.7628,-5.6701,-5.6925,-5.6811,-5.545,-5.4713,-5.4337,-5.4589,-5.2812,-5.1496,-5.1496,-5.1339,-5.1259,-5.1409,-5.1887,-5.2306,-5.2576,-5.3593,-5.4281,-5.4401,-5.491,-5.5179,-5.5179,-5.5179,-5.5179,-5.5179,-5.5179,-5.5179,-5.5179,-5.5179,-5.5179,-5.5179,-5.5179,-5.5179,-5.5179,-5.5179,-5.5179,-5.5179,-5.5179,-5.5179,-5.5179,-5.5179,-5.5179,-5.5179,-5.5179,-5.5179,-5.5179,-5.5179,-5.5179,-5.5179,-5.5179,-5.5179,-5.5179,-5.5179,-5.5179,-5.5179,-5.5179,-5.5089,-5.4999,-5.4999,-5.4521,-5.3982,-5.3832,-5.3384,-5.2815,-5.2157,-5.2007,-5.1858,-5.1319,-5.1229,-5.1229,-5.1229,-5.1229,-5.1229,-5.1229,-5.1229,-5.1229,-5.1229,-5.1229,-5.1229,-5.1229,-5.1229,-5.1229,-5.1229,-5.1229,-5.1229,-5.1229,-5.1229,-5.1229,-5.1229,-5.1229,-5.1229,-5.1229,-5.1229,-5.065,-4.9582,-4.9582,-4.8837,-4.7453,-4.6317,-4.4941,-5.7881,-5.7881,-5.7881,-5.7881,-5.7881,-5.7881,0.0,-5.7881,-5.7881,-5.7881,-5.7881,-5.7845,-5.7701,-5.6198,-5.553,-5.726,-5.5011,-5.3439,-5.4463,-5.3483,-5.2678,-5.2678,-5.1819,-5.1439,-5.2037,-5.2157,-5.2695,-5.3892,-5.4132,-5.4461,-5.5059,-5.5149,-5.5179,-5.5179,-5.5179,-5.5179,-5.5179,-5.5179,-5.5179,-5.5179,-5.5179,-5.5179,-5.5179,-5.5179,-5.5179,-5.5179,-5.5179,-5.5179,-5.5179,-5.5179,-5.5179,-5.5179,-5.5179,-5.5179,-5.5179,-5.5179,-5.5179,-5.5179,-5.5179,-5.5179,-5.5179,-5.5179,-5.5179,-5.5179,-5.5179,-5.5179,-5.5179,-5.5179,-5.476,-5.4311,-5.4311,-5.3803,-5.3144,-5.2576,-5.2366,-5.2127,-5.1468,-5.1319,-5.1319,-5.1229,-5.1229,-5.1229,-5.1229,-5.1229,-5.1229,-5.1229,-5.1229,-5.1229,-5.1229,-5.1229,-5.1229,-5.1229,-5.1229,-5.1229,-5.1229,-5.1229,-5.1229,-5.1229,-5.1229,-5.1229,-5.1229,-5.1229,-5.1229,-5.1229,-5.1229,-5.1105,-5.0964,-5.0964,-5.0287,-4.8964,-4.8787,-4.7299,-5.7881,-5.7881,-5.7881,-5.7881,-5.7881,-5.7881,-5.7881,-5.7881,-5.7881,-5.7881,-5.7881,-5.7881,-5.7881,-5.7147,-5.6586,-5.6887,-5.5738,-5.4764,-5.463,-5.4211,-5.4071,-5.4482,-5.411,-5.3658,-5.3239,-5.3957,-5.4327,-5.4211,-5.5232,-5.5663,-5.5229,-5.5179,-5.5179,-5.5179,-5.5179,-5.5179,-5.5179,-5.5179,-5.5179,-5.5179,-5.5179,-5.5179,-5.5179,-5.5179,-5.5179,-5.5179,-5.5179,-5.5179,-5.5179,-5.5179,-5.5179,-5.5179,-5.5179,-5.5179,-5.5179,-5.5179,-5.5179,-5.5179,-5.5179,-5.5179,-5.5179,-5.5179,-5.5179,-5.5119,-5.473,-5.461,-5.4551,-5.4132,-5.3832,-5.3623,-5.3623,-5.3114,-5.2546,-5.2276,-5.1917,-5.1558,-5.1289,-5.1229,-5.1229,-5.1229,-5.1229,-5.1229,-5.1229,-5.1229,-5.1229,-5.1229,-5.1229,-5.1229,-5.1229,-5.1229,-5.1229,-5.1229,-5.1229,-5.1229,-5.1229,-5.1229,-5.1229,-5.1229,-5.1229,-5.1229,-5.1229,-5.1229,-5.1229,-5.1229,-5.1229,-5.1229,-5.1229,-5.1229,-5.0917,-5.0335,-4.9582,-4.8589,-5.7881,-5.7881,-5.7881,-5.7881,-5.7881,-5.7881,-5.7881,-5.7881,-5.7881,-5.7881,-5.7881,-5.7881,-5.7881,-5.7628,-5.726,-5.6739,-5.6398,-5.5995,-5.5425,-5.5375,-5.5666,-5.6376,-5.6381,-5.6048,-5.5525,-5.6081,-5.6077,-5.5043,-5.6217,-5.6493,-5.528,-5.5179,-5.5179,-5.5179,-5.5179,-5.5179,-5.5179,-5.5179,-5.5179,-5.5179,-5.5179,-5.5179,-5.5179,-5.5179,-5.5179,-5.5179,-5.5179,-5.5179,-5.5179,-5.5179,-5.5179,-5.5179,-5.5179,-5.5179,-5.5179,-5.5179,-5.5179,-5.5179,-5.5179,-5.5179,-5.5179,-5.5179,-5.5179,-5.5059,-5.4401,-5.4221,-5.4072,-5.3384,-5.3054,-5.2905,-5.2905,-5.2426,-5.1917,-5.1917,-5.1558,-5.1229,-5.1229,-5.1229,-5.1229,-5.1229,-5.1229,-5.1229,-5.1229,-5.1229,-5.1229,-5.1229,-5.1229,-5.1229,-5.1229,-5.1229,-5.1229,-5.1229,-5.1229,-5.1229,-5.1229,-5.1229,-5.1229,-5.1229,-5.1229,-5.1229,-5.1229,-5.1229,-5.1229,-5.1229,-5.1229,-5.1229,-5.1229,-5.1229,-5.1229,-5.1182,-5.0191,-4.9582,-5.7881,-5.7881,-5.7881,-5.7881,-5.7881,-5.7881,-5.7881,-5.7881,-5.7881,-5.7881,-5.7881,-5.7881,-5.7881,-5.7001,-5.6624,-5.7665,-5.6925,-5.6468,-5.7225,-5.7324,-5.7588,-5.8353,-5.802,-5.8141,-5.9225,-5.8378,-5.7521,-5.6946,-5.696,-5.6493,-5.528,-5.5179,-5.5179,-5.5179,-5.5179,-5.5179,-5.5179,-5.5179,-5.5179,-5.5179,-5.5179,-5.5179,-5.5179,-5.5179,-5.5179,-5.5179,-5.5179,-5.5179,-5.5179,-5.5179,-5.5179,-5.5179,-5.5179,-5.5179,-5.5179,-5.5179,-5.5179,-5.5179,-5.5179,-5.5179,-5.5179,-5.5179,-5.5179,-5.5059,-5.4401,-5.4221,-5.4072,-5.3384,-5.2725,-5.2217,-5.2217,-5.1738,-5.1259,-5.1259,-5.1229,-5.1229,-5.1229,-5.1229,-5.1229,-5.1229,-5.1229,-5.1229,-5.1229,-5.1229,-5.1229,-5.1229,-5.1229,-5.1229,-5.1229,-5.1229,-5.1229,-5.1229,-5.1229,-5.1229,-5.1229,-5.1229,-5.1229,-5.1229,-5.1229,-5.1229,-5.1229,-5.1229,-5.1229,-5.1229,-5.1229,-5.1229,-5.1229,-5.1229,-5.1229,-5.1229,-5.1182,-5.043,-5.7881,-5.7881,-5.7881,-5.7881,-5.7881,-5.7881,-5.7881,-5.7881,-5.7881,-5.7881,-5.7881,-5.7881,-5.7881,-5.7591,-5.7614,-5.8484,-5.8294,-5.8341,-5.9079,-5.918,-5.9482,-6.0253,-6.0205,-6.0458,-6.1354,-6.0349,-5.8924,-5.715,-5.7761,-5.7323,-5.533,-5.5179,-5.5179,-5.5179,-5.5179,-5.5179,-5.5179,-5.5179,-5.5179,-5.5179,-5.5179,-5.5179,-5.5179,-5.5179,-5.5179,-5.5179,-5.5179,-5.5179,-5.5179,-5.5179,-5.5179,-5.5179,-5.5179,-5.5179,-5.5179,-5.5179,-5.5179,-5.5179,-5.5179,-5.5179,-5.5179,-5.5179,-5.5179,-5.5059,-5.4401,-5.3892,-5.3384,-5.2725,-5.2067,-5.1558,-5.1558,-5.1379,-5.1229,-5.1229,-5.1229,-5.1229,-5.1229,-5.1229,-5.1229,-5.1229,-5.1229,-5.1229,-5.1229,-5.1229,-5.1229,-5.1229,-5.1229,-5.1229,-5.1229,-5.1229,-5.1229,-5.1229,-5.1229,-5.1229,-5.1229,-5.1229,-5.1229,-5.1229,-5.1229,-5.1229,-5.1229,-5.1229,-5.1229,-5.1229,-5.1229,-5.1229,-5.1229,-5.1229,-5.1229,-5.1229,-5.1229,-5.0964,-5.7881,-5.7881,-5.7881,-5.7881,-5.7881,-5.7881,-5.7881,-5.7881,-5.7881,-5.7881,-5.8084,-5.8287,-5.8287,-5.849,-5.8829,-5.9336,-5.9404,-5.9674,-6.0419,-6.052,-6.0825,-6.1603,-6.167,-6.1873,-6.2347,-6.1716,-6.0417,-5.8419,-5.8632,-5.8131,-5.6541,-5.6115,-5.5819,-5.5819,-5.5401,-5.5179,-5.5179,-5.5179,-5.5179,-5.5179,-5.5179,-5.5179,-5.5179,-5.5179,-5.5179,-5.5179,-5.5179,-5.5179,-5.5179,-5.5179,-5.5179,-5.5179,-5.5179,-5.5179,-5.5179,-5.5179,-5.5179,-5.5179,-5.5179,-5.5179,-5.5179,-5.5179,-5.5179,-5.5059,-5.4401,-5.3713,-5.3054,-5.2396,-5.1738,-5.1229,-5.1229,-5.1229,-5.1229,-5.1229,-5.1229,-5.1229,-5.1229,-5.1229,-5.1229,-5.1229,-5.1229,-5.1229,-5.1229,-5.1229,-5.1229,-5.1229,-5.1229,-5.1229,-5.1229,-5.1229,-5.1229,-5.1229,-5.1229,-5.1229,-5.1229,-5.1229,-5.1229,-5.1229,-5.1229,-5.1229,-5.1229,-5.1229,-5.1229,-5.1229,-5.1229,-5.1229,-5.1229,-5.1229,-5.1229,-5.1229,-5.1229,-5.1229,-5.7881,-5.7881,-5.7881,-5.7881,-5.7881,-5.7881,-5.7881,-5.7881,-5.7915,-5.7949,-5.8524,-5.9032,-5.9066,-5.9641,-6.0114,-6.0148,-6.0148,-6.0452,-6.1231,-6.1366,-6.1603,-6.2313,-6.2381,-6.2381,-6.2381,-6.2341,-6.1837,-6.0787,-5.9566,-5.8857,-5.8812,-5.7668,-5.6991,-5.6991,-5.5819,-5.5179,-5.5179,-5.5179,-5.5179,-5.5179,-5.5179,-5.5179,-5.5179,-5.5179,-5.5179,-5.5179,-5.5179,-5.5179,-5.5179,-5.5179,-5.5179,-5.5179,-5.5179,-5.5179,-5.5179,-5.5179,-5.5179,-5.5179,-5.5179,-5.5179,-5.5179,-5.5179,-5.5179,-5.5089,-5.4461,-5.3743,-5.3054,-5.2426,-5.1738,-5.1229,-5.1229,-5.1229,-5.1229,-5.1229,-5.1229,-5.1229,-5.1229,-5.1229,-5.1229,-5.1229,-5.1229,-5.1229,-5.1229,-5.1229,-5.1229,-5.1229,-5.1229,-5.1229,-5.1229,-5.1229,-5.1229,-5.1229,-5.1229,-5.1229,-5.1229,-5.1229,-5.1229,-5.1229,-5.1229,-5.1229,-5.1229,-5.1229,-5.1229,-5.1229,-5.1229,-5.1229,-5.1229,-5.1229,-5.1229,-5.1229,-5.1229,-5.1229,-5.7881,-5.7881,-5.7881,-5.7881,-5.7881,-5.7881,-5.7881,-5.7881,-5.8051,-5.8626,-5.8896,-5.9167,-5.9708,-5.9979,-6.0283,-6.0892,-6.0994,-6.1264,-6.2009,-6.211,-6.2178,-6.2381,-6.2381,-6.2381,-6.2381,-6.1595,-6.1317,-6.1911,-6.0828,-5.974,-5.8857,-5.7668,-5.6991,-5.6991,-5.5819,-5.5179,-5.5179,-5.5179,-5.5179,-5.5179,-5.5179,-5.5179,-5.5179,-5.5179,-5.5179,-5.5179,-5.5179,-5.5179,-5.5179,-5.5179,-5.5179,-5.5179,-5.5179,-5.5179,-5.5179,-5.5179,-5.5179,-5.5179,-5.5179,-5.5179,-5.5179,-5.5179,-5.5179,-5.5149,-5.4999,-5.4132,-5.3144,-5.2965,-5.2097,-5.1229,-5.1229,-5.1229,-5.1229,-5.1229,-5.1229,-5.1229,-5.1229,-5.1229,-5.1229,-5.1229,-5.1229,-5.1229,-5.1229,-5.1229,-5.1229,-5.1229,-5.1229,-5.1229,-5.1229,-5.1229,-5.1229,-5.1229,-5.1229,-5.1229,-5.1229,-5.1229,-5.1229,-5.1229,-5.1229,-5.1229,-5.1229,-5.1229,-5.1229,-5.1229,-5.1229,-5.1229,-5.1229,-5.1229,-5.1229,-5.1229,-5.1229,-5.1229,-5.7881,-5.7881,-5.7881,-5.7881,-5.7881,-5.7881,-5.7881,-5.8152,-5.849,-5.893,-5.9539,-6.0148,-6.0554,-6.0892,-6.1264,0.0,0.0,0.0,-6.2347,-6.2381,-6.2381,-6.2381,-6.2381,-6.2381,-6.2381,-6.1797,-6.1676,-6.2341,-6.1276,-6.0544,-6.0374,-5.8735,-5.7807,-5.7807,-5.6085,-5.5179,-5.5179,-5.5179,-5.5179,-5.5179,-5.5179,-5.5179,-5.5179,-5.5179,-5.5179,-5.5179,-5.5179,-5.5179,-5.5179,-5.5179,-5.5179,-5.5179,-5.5179,-5.5179,-5.5179,-5.5179,-5.5179,-5.5179,-5.5179,-5.5179,-5.5179,-5.5179,-5.5179,-5.5179,-5.5179,-5.4251,-5.3174,-5.3174,-5.2247,-5.1229,-5.1229,-5.1229,-5.1229,-5.1229,-5.1229,-5.1229,-5.1229,-5.1229,-5.1229,-5.1229,-5.1229,-5.1229,-5.1229,-5.1229,-5.1229,-5.1229,-5.1229,-5.1229,-5.1229,-5.1229,-5.1229,-5.1229,-5.1229,-5.1229,-5.1229,-5.1229,-5.1229,-5.1229,-5.1229,-5.1229,-5.1229,-5.1229,-5.1229,-5.1229,-5.1229,-5.1229,-5.1229,-5.1229,-5.1229,-5.1229,-5.1229,-5.1229,-5.7881,-5.7881,-5.7881,-5.7881,-5.7881,-5.7915,-5.8017,-5.8558,-5.9066,-5.9268,-6.0385,-6.1332,-6.1434,-6.1975,-6.2381,-6.2381,0.0,-6.2381,-6.2381,-6.2381,-6.2381,-6.2381,-6.2381,-6.2381,-6.2381,-6.2381,-6.2381,-6.2381,-6.1439,-6.1317,-6.2341,-6.0247,-5.8902,-5.8587,-5.6541,-5.5381,-5.5179,-5.5179,-5.5179,-5.5179,-5.5179,-5.5179,-5.5179,-5.5179,-5.5179,-5.5179,-5.5179,-5.5179,-5.5179,-5.5179,-5.5179,-5.5179,-5.5179,-5.5179,-5.5179,-5.5179,-5.5179,-5.5179,-5.5179,-5.5179,-5.5179,-5.5179,-5.5179,-5.5179,-5.5089,-5.4192,-5.3174,-5.3084,-5.2157,-5.1229,-5.1229,-5.1229,-5.1229,-5.1229,-5.1229,-5.1229,-5.1229,-5.1229,-5.1229,-5.1229,-5.1229,-5.1229,-5.1229,-5.1229,-5.1229,-5.1229,-5.1229,-5.1229,-5.1229,-5.1229,-5.1229,-5.1229,-5.1229,-5.1229,-5.1229,-5.1229,-5.1229,-5.1229,-5.1229,-5.1229,-5.1229,-5.1229,-5.1229,-5.1229,-5.1229,-5.1229,-5.1229,-5.1229,-5.1229,-5.1229,-5.1229,-5.1229,-5.7881,-5.7881,-5.7881,-5.7881,-5.7881,-5.8051,-5.8693,-5.893,0.0,-6.0655,-6.1129,-6.1501,-6.2076,-6.2313,-6.2381,-6.2381,-6.2381,-6.2381,-6.2381,-6.2381,-6.2381,0.0,-6.2381,-6.2381,-6.2381,-6.2381,-6.2381,-6.2381,-6.2223,-6.215,-6.2381,-6.1036,-5.939,-5.7386,-5.6896,-5.6232,-5.5179,-5.5179,-5.5179,-5.5179,-5.5179,-5.5179,-5.5179,-5.5179,-5.5179,-5.5179,-5.5179,-5.5179,-5.5179,-5.5179,-5.5179,-5.5179,-5.5179,-5.5179,-5.5179,-5.5179,-5.5179,-5.5179,-5.5179,-5.5179,-5.5179,-5.5179,-5.5179,-5.5089,-5.4551,-5.3803,-5.3054,-5.2516,-5.1828,-5.1229,-5.1229,-5.1229,-5.1229,-5.1229,-5.1229,-5.1229,-5.1229,-5.1229,-5.1229,-5.1229,-5.1229,-5.1229,-5.1229,-5.1229,-5.1229,-5.1229,-5.1229,-5.1229,-5.1229,-5.1229,-5.1229,-5.1229,-5.1229,-5.1229,-5.1229,-5.1229,-5.1229,-5.1229,-5.1229,-5.1229,-5.1229,-5.1229,-5.1229,-5.1229,-5.1229,-5.1229,-5.1229,-5.1229,-5.1229,-5.1229,-5.1229,-5.1229,-5.7881,-5.7881,-5.7881,-5.7881,-5.8186,-5.8558,-5.893,0.0,0.0,0.0,-6.1603,-6.1975,-6.2313,-6.2381,0.0,-6.2381,-6.2381,-6.2381,-6.2381,-6.2381,-6.2381,-6.2381,-6.2381,-6.2381,-6.2381,-6.2381,-6.2381,-6.2381,-6.2381,-6.2381,-6.2381,-6.1276,-5.9784,-5.7993,-5.7339,-5.6704,-5.6134,-5.5501,-5.5179,-5.5179,-5.5179,-5.5179,-5.5179,-5.5179,-5.5179,-5.5179,-5.5179,-5.5179,-5.5179,-5.5179,-5.5179,-5.5179,-5.5179,-5.5179,-5.5179,-5.5179,-5.5179,-5.5179,-5.5179,-5.5179,-5.5179,-5.5179,-5.497,-5.461,-5.4311,-5.3473,-5.2606,-5.2276,-5.1738,-5.1229,-5.1229,-5.1229,-5.1229,-5.1229,-5.1229,-5.1229,-5.1229,-5.1229,-5.1229,-5.1229,-5.1229,-5.1229,-5.1229,-5.1229,-5.1229,-5.1229,-5.1229,-5.1229,-5.1229,-5.1229,-5.1229,-5.1229,-5.1229,-5.1229,-5.1229,-5.1229,-5.1229,-5.1229,-5.1229,-5.1229,-5.1229,-5.1229,-5.1229,-5.1229,-5.1229,-5.1229,-5.1229,-5.1229,-5.1229,-5.1229,-5.1229,-5.1229,-5.7881,-5.8017,-5.8118,-5.8118,-5.8693,-5.9302,-5.9471,-6.0452,0.0,-6.1501,-6.2009,-6.2381,-6.2381,-6.2381,-6.2381,0.0,-6.2381,-6.2381,-6.2381,-6.2381,-6.2381,0.0,-6.2381,0.0,-6.2381,-6.2381,-6.2381,-6.2381,-6.2381,-6.2381,-6.2381,-6.148,-6.0417,-5.9214,-5.8039,-5.7245,-5.6991,-5.5819,-5.5179,-5.5179,-5.5179,-5.5179,-5.5179,-5.5179,-5.5179,-5.5179,-5.5179,-5.5179,-5.5179,-5.5179,-5.5179,-5.5179,-5.5179,-5.5179,-5.5179,-5.5179,-5.5179,-5.5179,-5.5179,-5.5179,-5.5179,-5.5029,-5.464,-5.4192,-5.4042,-5.3144,-5.2187,-5.2037,-5.1618,-5.1229,-5.1229,-5.1229,-5.1229,-5.1229,-5.1229,-5.1229,-5.1229,-5.1229,-5.1229,-5.1229,-5.1229,-5.1229,-5.1229,-5.1229,-5.1229,-5.1229,-5.1229,-5.1229,-5.1229,-5.1229,-5.1229,-5.1229,-5.1229,-5.1229,-5.1229,-5.1229,-5.1229,-5.1229,-5.1229,-5.1229,-5.1229,-5.1229,-5.1229,-5.1229,-5.1229,-5.1229,-5.1229,-5.1229,-5.1229,-5.1229,-5.1229,-5.1229,-5.7881,-5.8389,-5.893,-5.893,-5.9471,-6.0182,-6.0926,0.0,-6.1501,-6.2144,-6.2347,-6.2381,-6.2381,-6.2381,-6.2381,-6.2381,0.0,-6.2381,-6.2381,-6.2381,-6.2381,-6.2381,0.0,0.0,-6.2381,-6.2381,-6.2381,-6.2381,-6.2381,-6.2381,-6.2381,-6.2302,-6.1676,-6.0459,-5.9258,-5.8131,-5.7039,-5.5819,-5.5179,-5.5179,-5.5179,-5.5179,-5.5179,-5.5179,-5.5179,-5.5179,-5.5179,-5.5179,-5.5179,-5.5179,-5.5179,-5.5179,-5.5179,-5.5179,-5.5179,-5.5179,-5.5179,-5.5179,-5.5179,-5.5179,-5.5089,-5.4491,-5.4251,-5.4102,-5.3473,-5.2785,-5.2067,-5.1468,-5.1259,-5.1229,-5.1229,-5.1229,-5.1229,-5.1229,-5.1229,-5.1229,-5.1229,-5.1229,-5.1229,-5.1229,-5.1229,-5.1229,-5.1229,-5.1229,-5.1229,-5.1229,-5.1229,-5.1229,-5.1229,-5.1229,-5.1229,-5.1229,-5.1229,-5.1229,-5.1229,-5.1229,-5.1229,-5.1229,-5.1229,-5.1229,-5.1229,-5.1229,-5.1229,-5.1229,-5.1229,-5.1229,-5.1229,-5.1229,-5.1229,-5.1229,-5.1229,-5.1229,-5.8558,-5.9099,-5.9674,-5.9674,-6.025,-6.0926,-6.1231,0.0,-6.2042,-6.2347,-6.2381,-6.2381,-6.2381,-6.2381,-6.2381,0.0,0.0,0.0,-6.2381,-6.2381,-6.2381,-6.2381,-6.2381,-6.2381,0.0,-6.2381,-6.2381,-6.2381,-6.2381,-6.2381,-6.2381,-6.2381,-6.215,-6.1716,-6.0501,-5.9302,-5.8085,-5.6896,-5.5918,-5.5179,-5.5179,-5.5179,-5.5179,-5.5179,-5.5179,-5.5179,-5.5179,-5.5179,-5.5179,-5.5179,-5.5179,-5.5179,-5.5179,-5.5179,-5.5179,-5.5179,-5.5179,-5.5179,-5.5179,-5.494,-5.4551,-5.4311,-5.3653,-5.2965,-5.2665,-5.2127,-5.1558,-5.1289,-5.1229,-5.1229,-5.1229,-5.1229,-5.1229,-5.1229,-5.1229,-5.1229,-5.1229,-5.1229,-5.1229,-5.1229,-5.1229,-5.1229,-5.1229,-5.1229,-5.1229,-5.1229,-5.1229,-5.1229,-5.1229,-5.1229,-5.1229,-5.1229,-5.1229,-5.1229,-5.1229,-5.1229,-5.1229,-5.1229,-5.1229,-5.1229,-5.1229,-5.1229,-5.1229,-5.1229,-5.1229,-5.1229,-5.1229,-5.1229,-5.1229,-5.1229,-5.1229,-5.1229,-5.9336,-5.9877,-6.0452,-6.0452,-6.1028,-6.1637,0.0,0.0,-6.2381,-6.2381,-6.2381,-6.2381,-6.2381,-6.2381,-6.2381,0.0,0.0,-6.2381,-6.2381,-6.2381,-6.2381,0.0,0.0,-6.2381,-6.2381,-6.2381,-6.2381,-6.2381,-6.2381,-6.2381,-6.2381,-6.2381,-6.2381,-6.2381,-6.1235,-6.0204,-5.9346,-5.8131,-5.7086,-5.628,-5.5918,-5.572,-5.572,-5.5381,-5.5179,-5.5179,-5.5179,-5.5179,-5.5179,-5.5179,-5.5179,-5.5179,-5.5179,-5.5179,-5.5179,-5.5179,-5.5059,-5.491,-5.491,-5.4461,-5.3862,-5.3683,-5.2965,-5.2157,-5.1977,-5.1588,-5.1229,-5.1229,-5.1229,-5.1229,-5.1229,-5.1229,-5.1229,-5.1229,-5.1229,-5.1229,-5.1229,-5.1229,-5.1229,-5.1229,-5.1229,-5.1229,-5.1229,-5.1229,-5.1229,-5.1229,-5.1229,-5.1229,-5.1229,-5.1229,-5.1229,-5.1229,-5.1229,-5.1229,-5.1229,-5.1229,-5.1229,-5.1229,-5.1229,-5.1229,-5.1229,-5.1229,-5.1229,-5.1229,-5.1229,-5.1229,-5.1229,-5.1229,-5.1229,-5.1229,-5.1229,-5.1229,-6.008,-6.0689,-6.1298,-6.1298,-6.1839,-6.2381,0.0,0.0,-6.2381,-6.2381,-6.2381,-6.2381,-6.2381,-6.2381,-6.2381,-6.2381,0.0,0.0,-6.2381,-6.2381,-6.2381,0.0,0.0,-6.2381,-6.2381,-6.2381,-6.2381,-6.2381,-6.2381,-6.2381,-6.2381,-6.2381,-6.2381,-6.2381,-6.1235,-6.0586,-6.0586,-5.939,-5.8767,-5.8767,-5.7527,-5.6991,-5.6943,-5.572,-5.5179,-5.5179,-5.5179,-5.5179,-5.5179,-5.5179,-5.5179,-5.5179,-5.5179,-5.5179,-5.5179,-5.5179,-5.479,-5.4221,-5.4221,-5.3773,-5.3084,-5.2426,-5.2217,-5.2067,-5.1439,-5.1229,-5.1229,-5.1229,-5.1229,-5.1229,-5.1229,-5.1229,-5.1229,-5.1229,-5.1229,-5.1229,-5.1229,-5.1229,-5.1229,-5.1229,-5.1229,-5.1229,-5.1229,-5.1229,-5.1229,-5.1229,-5.1229,-5.1229,-5.1229,-5.1229,-5.1229,-5.1229,-5.1229,-5.1229,-5.1229,-5.1229,-5.1229,-5.1229,-5.1229,-5.1229,-5.1229,-5.1229,-5.1229,-5.1229,-5.1229,-5.1229,-5.1229,-5.1229,-5.1229,-5.1229,-5.1229,-5.1229,-6.0926,-6.1467,-6.2042,-6.2042,-6.2212,-6.2381,-6.2381,0.0,-6.2381,-6.2381,-6.2381,-6.2381,-6.2381,-6.2381,-6.2381,-6.2381,0.0,0.0,0.0,0.0,0.0,-6.2381,-6.2381,-6.2381,-6.2381,-6.2381,-6.2381,-6.2381,-6.2381,-6.2381,-6.2381,-6.2381,-6.2381,-6.2381,-6.203,-6.1439,-6.0586,-6.0247,-5.961,-5.8812,-5.8405,-5.7807,-5.7039,-5.7465,-5.7229,-5.6493,-5.7323,-5.7668,-5.7668,-5.7668,-5.7668,-5.7668,-5.7668,-5.7668,-5.759,-5.7088,-5.6775,-5.6524,-5.5962,-5.5382,-5.4799,-5.458,-5.4204,-5.3809,-5.3589,-5.244,-5.1229,-5.1229,-5.1229,-5.1229,-5.1229,-5.1229,-5.1229,-5.1229,-5.1229,-5.1229,-5.1229,-5.1229,-5.1229,-5.1229,-5.1229,-5.1229,-5.1229,-5.1229,-5.1229,-5.1229,-5.1229,-5.1229,-5.1229,-5.1229,-5.1229,-5.1229,-5.1229,-5.1229,-5.1229,-5.1229,-5.1229,-5.1229,-5.1229,-5.1229,-5.1229,-5.1229,-5.1229,-5.1229,-5.1229,-5.1229,-5.1229,-5.1229,-5.1229,-5.1229,-5.1229,-5.1229,0.0,-6.2042,-6.2381,-6.2381,-6.2381,0.0,0.0,-6.2381,-6.2381,-6.2381,-6.2381,-6.2381,-6.2381,-6.2381,-6.2381,-6.2381,-6.2381,0.0,0.0,0.0,0.0,-6.2381,-6.2381,-6.2381,-6.2381,-6.2381,-6.2381,-6.2381,-6.2381,-6.2381,-6.2381,-6.2381,-6.2381,-6.2381,-6.2381,-6.203,-6.1276,-6.1276,-6.0912,-6.0161,-5.9697,-5.9081,-5.8374,-5.8677,-5.8405,-5.7714,-5.8496,-5.8812,0.0,-5.8812,-5.8812,-5.878,-5.848,-5.8352,-5.8288,-5.7508,-5.7093,-5.6849,-5.6326,-5.5719,-5.5229,-5.5229,-5.4941,-5.4589,-5.4589,-5.3613,-5.2485,-5.2485,-5.22,-5.1835,-5.1835,-5.1496,-5.1229,-5.1229,-5.1229,-5.1229,-5.1229,-5.1542,-5.1727,-5.1293,-5.1572,-5.1681,-5.1246,-5.1229,-5.1229,-5.1229,-5.1229,-5.1229,-5.1229,-5.1229,-5.1229,-5.1229,-5.1229,-5.1229,-5.1229,-5.1229,-5.1229,-5.1229,-5.1229,-5.1229,-5.1229,-5.1229,-5.1229,-5.1229,-5.1229,-5.1229,-5.1229,-5.1229,-5.1229,-5.1229,-5.1229,-5.1229,0.0,0.0,0.0,0.0,0.0,0.0,0.0,-6.2381,0.0,-6.2381,-6.2381,-6.2381,-6.2381,-6.2381,-6.2381,-6.2381,-6.2381,0.0,0.0,-6.2381,0.0,0.0,-6.2381,-6.2381,-6.2381,-6.2381,-6.2381,-6.2381,-6.2381,-6.2381,-6.2381,-6.2381,-6.2381,-6.2381,-6.2381,-6.2381,-6.2381,-6.2381,-6.2381,-6.2381,-6.1276,-6.067,-6.0544,-5.9522,-5.8992,-5.8947,-5.9036,-5.9036,-5.9036,-5.8972,-5.8972,-5.8876,-5.8169,-5.788,-5.774,-5.6991,-5.6317,-5.5824,-5.5792,-5.5342,-5.4838,-5.4838,-5.4838,-5.4838,-5.4838,-5.4713,-5.4589,-5.4589,-5.3828,-5.3033,-5.3033,-5.2245,-5.1433,-5.1433,-5.1433,-5.1433,-5.1433,-5.2215,-5.262,-5.1526,-5.2109,-5.244,-5.1386,-5.1229,-5.1229,-5.1229,-5.1229,-5.1229,-5.1229,-5.1229,-5.1229,-5.1229,-5.1229,-5.1229,-5.1229,-5.1229,-5.1229,-5.1229,-5.1229,-5.1229,-5.1229,-5.1229,-5.1229,-5.1229,-5.1229,-5.1229,-5.1229,-5.1229,-5.1229,-5.1229,-5.1229,-5.1229,-6.2381,0.0,-6.2381,-6.2381,-6.2381,-6.2381,0.0,0.0,-6.2381,-6.2381,-6.2381,-6.2381,-6.2381,-6.2381,-6.2381,-6.2381,0.0,-6.2381,-6.2381,-6.2381,-6.2381,-6.2381,-6.2381,-6.2381,-6.2381,-6.2381,-6.2381,-6.2381,-6.2381,-6.2381,-6.2381,-6.2381,-6.2381,-6.2381,-6.2381,-6.2381,-6.2381,-6.2381,-6.2381,-6.2381,-6.211,-6.148,-6.0628,-6.1276,-6.1036,-6.0247,-6.1119,-6.1521,-6.1487,-6.0953,-6.0719,-6.0652,-5.985,-5.9549,-5.9449,-5.8675,-5.8308,-5.8112,-5.7544,-5.7243,-5.7147,-5.7147,-5.7147,-5.7147,-5.7147,-5.5929,-5.4589,-5.4589,-5.4421,-5.4211,-5.4211,-5.3999,-5.3785,-5.3785,-5.3785,-5.3785,-5.3785,-5.334,-5.2812,-5.2575,-5.2018,-5.1526,-5.1246,-5.1229,-5.1229,-5.1229,-5.1229,-5.1229,-5.1229,-5.1229,-5.1229,-5.1229,-5.1229,-5.1229,-5.1229,-5.1229,-5.1229,-5.1229,-5.1229,-5.1229,-5.1229,-5.1229,-5.1229,-5.1229,-5.1229,-5.1229,-5.1229,-5.1229,-5.1229,-5.1229,-5.1229,-5.1229,-6.2381,-6.2381,-6.2381,-6.2381,-6.2381,-6.2381,0.0,0.0,0.0,0.0,0.0,0.0,-6.2381,-6.2381,-6.2381,-6.2381,-6.2381,0.0,0.0,0.0,-6.2381,-6.2381,-6.2381,-6.2381,-6.2381,-6.2381,-6.2381,-6.2381,-6.2381,-6.2381,-6.2381,-6.2381,-6.2381,-6.2381,-6.2381,-6.2381,-6.2381,-6.2381,-6.2381,-6.2381,-6.2381,-6.207,-6.1439,-6.211,-6.203,-6.1439,-6.1773,-6.1907,-6.1839,-6.1061,-6.0757,-6.0689,-5.9911,-5.9607,-5.9505,-5.8761,-5.849,-5.8457,-5.8017,-5.7881,-5.7881,-5.7881,-5.7881,-5.7881,-5.7881,-5.7072,-5.6119,-5.6119,-5.573,-5.5337,-5.5337,-5.4961,-5.4589,-5.4589,-5.4589,-5.4589,-5.4589,-5.4473,-5.4263,-5.3785,-5.3209,-5.262,-5.2063,-5.1572,-5.1229,-5.1229,-5.1229,-5.1229,-5.1229,-5.1229,-5.1229,-5.1229,-5.1229,-5.1229,-5.1229,-5.1229,-5.1229,-5.1229,-5.1229,-5.1229,-5.1229,-5.1229,-5.1229,-5.1229,-5.1229,-5.1229,-5.1229,-5.1229,-5.1229,-5.1229,-5.1229,-5.1229,-6.2381,-6.2381,-6.2381,-6.2381,-6.2381,-6.2381,0.0,0.0,0.0,0.0,0.0,0.0,0.0,-6.2381,-6.2381,-6.2381,-6.2381,-6.2381,-6.2381,-6.2381,-6.2381,-6.2381,-6.2381,-6.2381,-6.2381,-6.2381,-6.2381,-6.2381,-6.2381,-6.2381,-6.2381,-6.2381,-6.2381,-6.2381,-6.2381,-6.2381,-6.2381,-6.2381,-6.2381,-6.2381,-6.2381,-6.2347,-6.2212,-6.2212,-6.2144,-6.2009,-6.14,-6.1129,-6.1061,-6.025,-5.9945,-5.9877,-5.9133,-5.8829,-5.8761,-5.8118,-5.7881,-5.7881,-5.7881,-5.7881,-5.7881,-5.7881,-5.7881,-5.7881,-5.7881,-5.7881,-5.7881,-5.7881,-5.7189,-5.6437,-5.6437,-5.577,-5.5125,-5.5125,-5.5125,-5.5125,-5.5125,-5.5691,-5.5929,-5.5043,-5.4713,-5.4253,-5.3121,-5.2109,-5.1386,-5.1229,-5.1229,-5.1229,-5.1229,-5.1229,-5.1229,-5.1229,-5.1229,-5.1229,-5.1229,-5.1229,-5.1229,-5.1229,-5.1229,-5.1229,-5.1229,-5.1229,-5.1229,-5.1229,-5.1229,-5.1229,-5.1229,-5.1229,-5.1229,-5.1229,-5.1229,-5.1229,-6.2381,-6.2381,-6.2381,-6.2381,-6.2381,-6.2381,-6.2381,0.0,0.0,0.0,0.0,0.0,0.0,-6.2381,-6.2381,-6.2381,-6.2381,-6.2381,-6.2381,-6.2381,-6.2381,-6.2381,-6.2381,-6.2381,-6.2381,-6.2381,-6.2381,-6.2381,-6.2381,-6.2381,-6.2381,-6.2381,-6.2381,-6.2381,-6.2381,-6.2381,-6.2381,-6.2381,-6.2381,-6.2381,-6.2381,-6.2076,-6.1467,-6.1467,-6.1095,-6.0452,-6.0317,-6.0283,-6.0216,-5.9471,-5.9167,-5.9099,-5.8355,-5.8051,-5.8051,-5.7915,-5.7881,-5.7881,-5.7881,-5.7881,-5.7881,-5.7881,-5.7881,-5.7881,-5.7881,-5.7881,-5.7881,-5.7881,-5.7772,-5.7628,-5.7628,-5.7517,-5.7372,-5.7372,-5.7372,-5.7372,-5.7372,-5.6739,-5.6165,-5.6008,-5.5215,-5.4253,-5.3121,-5.2723,-5.2305,-5.1339,-5.1229,-5.1229,-5.1229,-5.1229,-5.1229,-5.1229,-5.1229,-5.1229,-5.1229,-5.1229,-5.1229,-5.1229,-5.1229,-5.1229,-5.1229,-5.1229,-5.1229,-5.1229,-5.1229,-5.1229,-5.1229,-5.1229,-5.1229,-5.1229,-5.1229,-5.1229,-6.2381,-6.2381,-6.2381,-6.2381,-6.2381,-6.2381,-6.2381,0.0,0.0,0.0,0.0,0.0,0.0,0.0,-6.2381,-6.2381,-6.2381,-6.2381,-6.2381,-6.2381,-6.2381,-6.2381,-6.2381,-6.2381,-6.2381,-6.2381,-6.2381,-6.2381,-6.2381,-6.2381,-6.2381,-6.2381,-6.2381,-6.2381,-6.2381,-6.2212,-6.1806,-6.1806,-6.1806,-6.1806,-6.1806,-6.14,-6.0655,-6.0655,-6.0452,-6.008,-5.9674,-5.9505,-5.9471,-5.8727,-5.8423,-5.8355,-5.8017,-5.7881,-5.7881,-5.7881,-5.7881,-5.7881,-5.7881,-5.7881,-5.7881,-5.7881,-5.7881,-5.7881,-5.7881,-5.7881,-5.7881,-5.7881,-5.7881,-5.7881,-5.7881,-5.7881,-5.7881,-5.7881,-5.7881,-5.7881,-5.7881,-5.7517,-5.7114,-5.7114,-5.6204,-5.5093,-5.3999,-5.3309,-5.253,-5.1386,-5.1229,-5.1229,-5.1229,-5.1229,-5.1229,-5.1229,-5.1229,-5.1229,-5.1229,-5.1229,-5.1229,-5.1229,-5.1229,-5.1229,-5.1229,-5.1229,-5.1229,-5.1229,-5.1229,-5.1229,-5.1229,-5.1229,-5.1229,-5.1229,-5.1229,-5.1229,-6.2381,-6.2381,-6.2381,-6.2381,0.0,0.0,-6.2381,-6.2381,-6.2381,0.0,0.0,0.0,0.0,-6.2381,-6.2381,-6.2381,-6.2381,-6.2381,-6.2381,-6.2381,-6.2381,-6.2381,-6.2381,-6.2381,-6.2381,-6.2381,-6.2381,-6.2381,-6.2381,-6.2381,-6.2381,-6.2381,-6.2381,-6.2381,-6.2381,-6.2042,-6.1298,-6.1298,-6.1197,-6.1028,-6.1028,-6.0622,-5.9844,-5.9844,-5.9742,-5.9539,-5.8998,-5.8761,-5.8693,-5.8118,-5.7881,-5.7881,-5.7881,-5.7881,-5.7881,-5.7881,-5.7881,-5.7881,-5.7881,-5.7881,-5.7881,-5.7881,-5.7881,-5.7881,-5.7881,-5.7881,-5.7881,-5.7881,-5.7881,-5.7881,-5.7881,-5.7881,-5.7881,-5.7881,-5.7881,-5.7881,-5.7881,-5.7881,-5.7881,-5.7881,-5.7222,-5.6243,-5.5166,-5.4221,-5.3178,-5.1819,-5.1588,-5.1526,-5.1199,-5.1229,-5.1229,-5.1229,-5.1229,-5.1229,-5.1229,-5.1229,-5.1229,-5.1229,-5.1229,-5.1229,-5.1229,-5.1229,-5.1229,-5.1229,-5.1229,-5.1229,-5.1229,-5.1229,-5.1229,-5.1229,-5.1229,-5.1229,-6.2381,-6.2381,-6.2381,-6.2381,-6.2381,0.0,-6.2381,-6.2381,-6.2381,-6.2381,-6.2381,-6.2381,-6.2381,-6.2381,-6.2381,-6.2381,-6.2381,-6.2381,-6.2381,-6.2381,-6.2381,-6.2381,-6.2381,-6.2381,-6.2381,-6.2381,-6.2381,-6.2381,-6.2381,-6.2381,-6.2381,-6.2381,-6.2381,-6.2381,-6.2381,-6.2042,-6.1298,-6.1298,-6.0926,-6.0182,-6.0182,-5.981,-5.9099,-5.9099,-5.8727,-5.8051,-5.7983,-5.7983,-5.7983,-5.7915,-5.7881,-5.7881,-5.7881,-5.7881,-5.7881,-5.7881,-5.7881,-5.7881,-5.7881,-5.7881,-5.7881,-5.7881,-5.7881,-5.7881,-5.7881,-5.7881,-5.7881,-5.7881,-5.7881,-5.7881,-5.7881,-5.7881,-5.7881,-5.7881,-5.7881,-5.7881,-5.7881,-5.7881,-5.7881,-5.7881,-5.7845,-5.7409,-5.6282,-5.6047,-5.5256,-5.3121,-5.2767,-5.2395,-5.1339,-5.1229,-5.1229,-5.1229,-5.1229,-5.1229,-5.1229,-5.1229,-5.1229,-5.1229,-5.1229,-5.1229,-5.1229,-5.1229,-5.1229,-5.1229,-5.1229,-5.1229,-5.1229,-5.1229,-5.1229,-5.1229,-5.1229,-5.1229,-6.2381,-6.2381,-6.2381,-6.2381,-6.2381,0.0,0.0,-6.2381,-6.2381,-6.2381,-6.2381,-6.2381,-6.2381,-6.2381,-6.2381,-6.2381,-6.2381,-6.2381,-6.2381,-6.2381,-6.2381,-6.2381,-6.2381,-6.2381,-6.2381,-6.2381,-6.2381,-6.2381,-6.2381,-6.2381,-6.2381,-6.2381,-6.2381,-6.2381,-6.1941,-6.1332,-6.0554,-6.0114,-5.9505,-5.8727,-5.9201,-5.9032,-5.8321,-5.8321,-5.8152,-5.7881,-5.7881,-5.7881,-5.7881,-5.7881,-5.7881,-5.7881,-5.7881,-5.7881,-5.7881,-5.7881,-5.7881,-5.7881,-5.7881,-5.7881,-5.7881,-5.7881,-5.7881,-5.7881,-5.7881,-5.7881,-5.7881,-5.7881,-5.7881,-5.7881,-5.7881,-5.7881,-5.7881,-5.7881,-5.7881,-5.7881,-5.7881,-5.7881,-5.7881,-5.7881,-5.7881,-5.7554,-5.6398,-5.6204,-5.5698,-5.4211,-5.3956,-5.3526,-5.2395,-5.229,-5.1972,-5.1246,-5.1229,-5.1229,-5.1229,-5.1229,-5.1229,-5.1229,-5.1229,-5.1229,-5.1229,-5.1229,-5.1229,-5.1229,-5.1229,-5.1229,-5.1229,-5.1229,-5.1229,-5.1229,-5.1229,-5.1229,-6.2381,-6.2381,-6.2381,-6.2381,0.0,0.0,-6.2381,-6.2381,-6.2381,-6.2381,-6.2381,-6.2381,-6.2381,-6.2381,-6.2381,-6.2381,-6.2381,-6.2381,-6.2381,-6.2381,-6.2381,-6.2381,-6.2381,-6.2381,-6.2381,-6.2381,-6.2381,-6.2381,-6.2381,-6.2381,-6.2381,-6.2381,-6.2381,-6.2381,-6.167,-6.0926,-6.0114,-5.937,-5.8626,-5.7881,-5.8423,-5.8389,-5.7881,-5.7881,-5.7881,-5.7881,-5.7881,-5.7881,-5.7881,-5.7881,-5.7881,-5.7881,-5.7881,-5.7881,-5.7881,-5.7881,-5.7881,-5.7881,-5.7881,-5.7881,-5.7881,-5.7881,-5.7881,-5.7881,-5.7881,-5.7881,-5.7881,-5.7881,-5.7881,-5.7881,-5.7881,-5.7881,-5.7881,-5.7881,-5.7881,-5.7881,-5.7881,-5.7881,-5.7881,-5.7881,-5.7881,-5.7628,-5.6854,-5.6739,-5.6393,-5.5288,-5.5125,-5.4681,-5.3569,-5.3121,-5.244,-5.1293,-5.1229,-5.1229,-5.1229,-5.1229,-5.1229,-5.1229,-5.1229,-5.1229,-5.1229,-5.1229,-5.1229,-5.1229,-5.1229,-5.1229,-5.1229,-5.1229,-5.1229,-5.1229,-5.1229,-5.1229,-6.2381,-6.2381,-6.2381,-6.2381,0.0,0.0,-6.2381,-6.2381,-6.2381,-6.2381,-6.2381,-6.2381,-6.2381,-6.2381,-6.2381,-6.2381,-6.2381,-6.2381,-6.2381,-6.2381,-6.2381,-6.2381,-6.2381,-6.2381,-6.2381,-6.2381,-6.2381,-6.2381,-6.2381,-6.2381,-6.2381,-6.2381,-6.2381,-6.2381,-6.167,-6.0926,-6.0114,-5.937,-5.8626,-5.7881,-5.7881,-5.7881,-5.7881,-5.7881,-5.7881,-5.7881,-5.7881,-5.7881,-5.7881,-5.7881,-5.7881,-5.7881,-5.7881,-5.7881,-5.7881,-5.7881,-5.7881,-5.7881,-5.7881,-5.7881,-5.7881,-5.7881,-5.7881,-5.7881,-5.7881,-5.7881,-5.7881,-5.7881,-5.7881,-5.7881,-5.7881,-5.7881,-5.7881,-5.7881,-5.7881,-5.7881,-5.7881,-5.7881,-5.7881,-5.7881,-5.7881,-5.7881,-5.7881,-5.7881,-5.7517,-5.636,-5.6204,-5.585,-5.4755,-5.3613,-5.2485,-5.1339,-5.1229,-5.1229,-5.1229,-5.1229,-5.1229,-5.1229,-5.1229,-5.1229,-5.1229,-5.1229,-5.1229,-5.1229,-5.1229,-5.1229,-5.1229,-5.1229,-5.1229,-5.1229,-5.1229,-5.1229,-6.2381,-6.2381,0.0,-6.2381,0.0,0.0,0.0,-6.2381,0.0,0.0,-6.2381,-6.2381,-6.2381,-6.2381,-6.2381,-6.2381,-6.2381,-6.2381,-6.2381,-6.2381,-6.2381,-6.2381,-6.2381,-6.2381,-6.2381,-6.2381,-6.2381,-6.2381,-6.2381,-6.2381,-6.2381,-6.2381,-6.2381,-6.2381,-6.1129,-6.0351,-6.0114,-5.8863,-5.8118,-5.7881,-5.7881,-5.7881,-5.7881,-5.7881,-5.7881,-5.7881,-5.7881,-5.7881,-5.7881,-5.7881,-5.7881,-5.7881,-5.7881,-5.7881,-5.7881,-5.7881,-5.7881,-5.7881,-5.7881,-5.7881,-5.7881,-5.7881,-5.7881,-5.7881,-5.7881,-5.7881,-5.7881,-5.7881,-5.7881,-5.7881,-5.7881,-5.7881,-5.7881,-5.7881,-5.7881,-5.7881,-5.7881,-5.7881,-5.7881,-5.7881,-5.7881,-5.7881,-5.7881,-5.7881,-5.7808,-5.748,-5.7372,-5.7001,-5.5889,-5.4052,-5.2767,-5.244,-5.1681,-5.1229,-5.1229,-5.1229,-5.1229,-5.1229,-5.1229,-5.1229,-5.1229,-5.1229,-5.1229,-5.1229,-5.1229,-5.1229,-5.1229,-5.1229,-5.1229,-5.1229,-5.1229,-5.1229,-6.2381,-6.2381,0.0,-6.2381,-6.2381,-6.2381,-6.2381,0.0,-6.2381,-6.2381,-6.2381,-6.2381,-6.2381,-6.2381,-6.2381,-6.2381,-6.2381,-6.2381,-6.2381,-6.2381,-6.2381,-6.2381,-6.2381,-6.2381,-6.2381,-6.2381,-6.2381,-6.2381,-6.2381,-6.2381,-6.2381,-6.2381,-6.2245,-6.1975,-6.0757,-5.9945,-5.9674,-5.849,-5.7881,-5.7881,-5.7881,-5.7881,-5.7881,-5.7881,-5.7881,-5.7881,-5.7881,-5.7881,-5.7881,-5.7881,-5.7881,-5.7881,-5.7881,-5.7881,-5.7881,-5.7881,-5.7881,-5.7881,-5.7881,-5.7881,-5.7881,-5.7881,-5.7881,-5.7881,-5.7881,-5.7881,-5.7881,-5.7881,-5.7881,-5.7881,-5.7881,-5.7881,-5.7881,-5.7881,-5.7881,-5.7881,-5.7881,-5.7881,-5.7881,-5.7881,-5.7881,-5.7881,-5.7881,-5.7881,-5.7881,-5.7881,-5.7881,-5.7517,-5.636,-5.4681,-5.3396,-5.2945,-5.188,-5.1229,-5.1229,-5.1229,-5.1229,-5.1229,-5.1229,-5.1229,-5.1229,-5.1229,-5.1229,-5.1229,-5.1229,-5.1229,-5.1229,-5.1229,-5.1229,-5.1229,-5.1229,-5.1229,-6.2381,0.0,0.0,-6.2381,-6.2381,0.0,-6.2381,-6.2381,-6.2381,-6.2381,-6.2381,-6.2381,-6.2381,-6.2381,-6.2381,-6.2381,-6.2381,-6.2381,-6.2381,-6.2381,-6.2381,-6.2381,-6.2381,-6.2381,-6.2381,-6.2381,-6.2381,-6.2381,-6.2381,-6.2381,-6.2381,-6.2381,-6.2042,-6.1332,-6.052,-5.9742,-5.9032,-5.8254,-5.7881,-5.7881,-5.7881,-5.7881,-5.7881,-5.7881,-5.7881,-5.7881,-5.7881,-5.7881,-5.7881,-5.7881,-5.7881,-5.7881,-5.7881,-5.7881,-5.7881,-5.7881,-5.7881,-5.7881,-5.7881,-5.7881,-5.7881,-5.7881,-5.7881,-5.7881,-5.7881,-5.7881,-5.7881,-5.7881,-5.7881,-5.7881,-5.7881,-5.7881,-5.7881,-5.7881,-5.7881,-5.7881,-5.7881,-5.7881,-5.7881,-5.7881,-5.7881,-5.7881,-5.7881,-5.7881,-5.7881,-5.7881,-5.7881,-5.7517,-5.636,-5.5256,-5.4168,-5.3033,-5.188,-5.1229,-5.1229,-5.1229,-5.1229,-5.1229,-5.1229,-5.1229,-5.1229,-5.1229,-5.1229,-5.1229,-5.1229,-5.1229,-5.1229,-5.1229,-5.1229,-5.1229,-5.1229,-5.1229,0.0,-6.2381,0.0,0.0,-6.2381,-6.2381,-6.2381,-6.2381,-6.2381,-6.2381,-6.2381,-6.2381,-6.2381,-6.2381,-6.2381,-6.2381,-6.2381,-6.2381,-6.2381,-6.2381,-6.2381,-6.2381,-6.2381,-6.2381,-6.2381,-6.2381,-6.2381,-6.2381,-6.2381,-6.2381,-6.2381,-6.2381,-6.2042,-6.1332,-6.052,-5.9742,-5.9032,-5.8254,-5.7881,-5.7881,-5.7881,-5.7881,-5.7881,-5.7881,-5.7881,-5.7881,-5.7881,-5.7881,-5.7881,-5.7881,-5.7881,-5.7881,-5.7881,-5.7881,-5.7881,-5.7881,-5.7881,-5.7881,-5.7881,-5.7881,-5.7881,-5.7881,-5.7881,-5.7881,-5.7881,-5.7881,-5.7881,-5.7881,-5.7881,-5.7881,-5.7881,-5.7881,-5.7881,-5.7881,-5.7881,-5.7881,-5.7881,-5.7881,-5.7881,-5.7881,-5.7881,-5.7881,-5.7881,-5.7881,-5.7881,-5.7881,-5.7881,-5.7517,-5.636,-5.5256,-5.4168,-5.3033,-5.188,-5.1229,-5.1229,-5.1229,-5.1229,-5.1229,-5.1229,-5.1229,-5.1229,-5.1229,-5.1229,-5.1229,-5.1229,-5.1229,-5.1229,-5.1229,-5.1229,-5.1229,-5.1229,-5.1229,0.0,0.0,0.0,-6.2381,0.0,-6.2381,-6.2381,-6.2381,-6.2381,-6.2381,-6.2381,-6.2381,-6.2381,-6.2381,-6.2381,-6.2381,-6.2381,-6.2381,-6.2381,-6.2381,-6.2381,-6.2381,-6.2381,-6.2381,-6.2381,-6.2381,-6.2381,-6.2381,-6.2381,-6.2381,-6.2381,-6.2381,-6.1873,-6.0757,-6.0317,-5.9573,-5.849,-5.8084,-5.7881,-5.7881,-5.7881,-5.7881,-5.7881,-5.7881,-5.7881,-5.7881,-5.7881,-5.7881,-5.7881,-5.7881,-5.7881,-5.7881,-5.7881,-5.7881,-5.7881,-5.7881,-5.7881,-5.7881,-5.7881,-5.7881,-5.7881,-5.7881,-5.7881,-5.7881,-5.7881,-5.7881,-5.7881,-5.7881,-5.7881,-5.7881,-5.7881,-5.7881,-5.7881,-5.7881,-5.7881,-5.7881,-5.7881,-5.7881,-5.7881,-5.7881,-5.7881,-5.7881,-5.7881,-5.7881,-5.7881,-5.7881,-5.7881,-5.7665,-5.7076,-5.5611,-5.4379,-5.3785,-5.22,-5.1229,-5.1229,-5.1229,-5.1229,-5.1229,-5.1229,-5.1229,-5.1229,-5.1229,-5.1229,-5.1229,-5.1229,-5.1229,-5.1229,-5.1229,-5.1229,-5.1229,-5.1229,-5.1229,0.0,0.0,0.0,-6.2381,-6.2381,0.0,-6.2381,-6.2381,-6.2381,-6.2381,-6.2381,-6.2381,-6.2381,-6.2381,-6.2381,-6.2381,-6.2381,-6.2381,-6.2381,-6.2381,-6.2381,-6.2381,-6.2381,-6.2381,-6.2381,-6.2381,-6.2381,-6.2381,-6.2381,-6.2381,-6.2381,-6.2381,-6.167,-6.0148,-6.0114,-5.937,-5.7915,-5.7881,-5.7881,-5.7881,-5.7881,-5.7881,-5.7881,-5.7881,-5.7881,-5.7881,-5.7881,-5.7881,-5.7881,-5.7881,-5.7881,-5.7881,-5.7881,-5.7881,-5.7881,-5.7881,-5.7881,-5.7881,-5.7881,-5.7881,-5.7881,-5.7881,-5.7881,-5.7881,-5.7881,-5.7881,-5.7881,-5.7881,-5.7881,-5.7881,-5.7881,-5.7881,-5.7881,-5.7881,-5.7881,-5.7881,-5.7881,-5.7881,-5.7881,-5.7881,-5.7881,-5.7881,-5.7881,-5.7881,-5.7881,-5.7881,-5.7881,-5.7845,-5.7628,-5.585,-5.4505,-5.4337,-5.244,-5.1229,-5.1229,-5.1229,-5.1229,-5.1229,-5.1229,-5.1229,-5.1229,-5.1229,-5.1229,-5.1229,-5.1229,-5.1229,-5.1229,-5.1229,-5.1229,-5.1229,-5.1229,-5.1229,0.0,0.0,0.0,0.0,-6.2381,-6.2381,0.0,0.0,-6.2381,0.0,-6.2381,-6.2381,-6.2381,-6.2381,-6.2381,-6.2381,-6.2381,-6.2381,-6.2381,-6.2381,-6.2381,-6.2381,-6.2381,-6.2381,-6.2381,-6.2381,-6.2381,-6.2381,-6.2381,-6.2381,-6.2381,-6.2381,-6.167,-6.0148,-6.0114,-5.937,-5.7915,-5.7881,-5.7881,-5.7881,-5.7881,-5.7881,-5.7881,-5.7881,-5.7881,-5.7881,-5.7881,-5.7881,-5.7881,-5.7881,-5.7881,-5.7881,-5.7881,-5.7881,-5.7881,-5.7881,-5.7881,-5.7881,-5.7881,-5.7881,-5.7881,-5.7881,-5.7881,-5.7881,-5.7881,-5.7881,-5.7881,-5.7881,-5.7881,-5.7881,-5.7881,-5.7881,-5.7881,-5.7881,-5.7881,-5.7881,-5.7881,-5.7881,-5.7881,-5.7881,-5.7881,-5.7881,-5.7881,-5.7881,-5.7881,-5.7881,-5.7881,-5.7554,-5.6547,-5.5369,-5.4211,-5.3253,-5.1972,-5.1229,-5.1229,-5.1229,-5.1229,-5.1229,-5.1229,-5.1229,-5.1229,-5.1229,-5.1229,-5.1229,-5.1229,-5.1229,-5.1229,-5.1229,-5.1229,-5.1229,-5.1229,-5.1229,-6.2381,0.0,0.0,0.0,0.0,-6.3024,-6.3024,0.0,-6.3632,-6.3632,-6.3632,-6.3362,-6.255,-6.2381,-6.2381,-6.2381,-6.2381,-6.2381,-6.2381,-6.2381,-6.2381,-6.2381,-6.2381,-6.2381,-6.2381,-6.2381,-6.2381,-6.2381,-6.2381,-6.2381,-6.2381,-6.2009,-6.1264,-6.0148,-5.9708,-5.8964,-5.7915,-5.7881,-5.7881,-5.7881,-5.7881,-5.7881,-5.7881,-5.7881,-5.7881,-5.7881,-5.7881,-5.7881,-5.7881,-5.7881,-5.7881,-5.7881,-5.7881,-5.7881,-5.7881,-5.7881,-5.7881,-5.7881,-5.7881,-5.7881,-5.7881,-5.7881,-5.7881,-5.7881,-5.7881,-5.7881,-5.7881,-5.7881,-5.7881,-5.7881,-5.7881,-5.7881,-5.7881,-5.7881,-5.7881,-5.7881,-5.7881,-5.7881,-5.7881,-5.7881,-5.7881,-5.7881,-5.7881,-5.7881,-5.7881,-5.7881,-5.7881,-5.7735,-5.7222,-5.6165,-5.5052,-5.3956,-5.2812,-5.188,-5.1246,-5.1229,-5.1229,-5.1229,-5.1229,-5.1229,-5.1229,-5.1229,-5.1229,-5.1229,-5.1229,-5.1229,-5.1229,-5.1229,-5.1229,-5.1229,-5.1229,-5.1229,0.0,0.0,0.0,0.0,0.0,-6.3565,0.0,0.0,-6.4613,-6.4613,-6.4613,-6.4275,-6.3159,-6.2821,-6.2618,-6.2415,-6.2381,-6.2381,-6.2381,-6.2381,-6.2381,-6.2381,-6.2381,-6.2381,-6.2381,-6.2381,-6.2381,-6.2381,-6.2381,-6.2381,-6.2381,-6.1704,-6.0926,-6.0114,-5.9404,-5.866,-5.7881,-5.7881,-5.7881,-5.7881,-5.7881,-5.7881,-5.7881,-5.7881,-5.7881,-5.7881,-5.7881,-5.7881,-5.7881,-5.7881,-5.7881,-5.7881,-5.7881,-5.7881,-5.7881,-5.7881,-5.7881,-5.7881,-5.7881,-5.7881,-5.7881,-5.7881,-5.7881,-5.7881,-5.7881,-5.7881,-5.7881,-5.7881,-5.7881,-5.7881,-5.7881,-5.7881,-5.7881,-5.7881,-5.7881,-5.7881,-5.7881,-5.7881,-5.7881,-5.7881,-5.7881,-5.7881,-5.7881,-5.7881,-5.7881,-5.7881,-5.7881,-5.7881,-5.7881,-5.6892,-5.5889,-5.5093,-5.3999,-5.2856,-5.1727,-5.1635,-5.1526,-5.1229,-5.1229,-5.1229,-5.1229,-5.1229,-5.1229,-5.1229,-5.1229,-5.1229,-5.1229,-5.1229,-5.1229,-5.1229,-5.1229,-5.1229,0.0,0.0,0.0,0.0,0.0,0.0,0.0,0.0,-6.4613,-6.4613,-6.4613,-6.458,-6.4512,-6.3903,-6.3226,-6.2516,-6.2381,-6.2381,-6.2381,-6.2381,-6.2381,-6.2381,-6.2381,-6.2381,-6.2381,-6.2381,-6.2381,-6.2381,-6.2381,-6.2381,-6.2381,-6.1704,-6.0926,-6.0114,-5.9404,-5.866,-5.7881,-5.7881,-5.7881,-5.7881,-5.7881,-5.7881,-5.7881,-5.7881,-5.7881,-5.7881,-5.7881,-5.7881,-5.7881,-5.7881,-5.7881,-5.7881,-5.7881,-5.7881,-5.7881,-5.7881,-5.7881,-5.7881,-5.7881,-5.7881,-5.7881,-5.7881,-5.7881,-5.7881,-5.7881,-5.7881,-5.7881,-5.7881,-5.7881,-5.7881,-5.7881,-5.7881,-5.7881,-5.7881,-5.7881,-5.7881,-5.7881,-5.7881,-5.7881,-5.7881,-5.7881,-5.7881,-5.7881,-5.7881,-5.7881,-5.7881,-5.7881,-5.7881,-5.7881,-5.6892,-5.6204,-5.6126,-5.5134,-5.4041,-5.29,-5.2812,-5.235,-5.1246,-5.1229,-5.1229,-5.1229,-5.1229,-5.1229,-5.1229,-5.1229,-5.1229,-5.1229,-5.1229,-5.1229,-5.1229,-5.1229,-5.1229,0.0,0.0,0.0,0.0,0.0,-6.4986,-6.5256,-6.5662,-6.6034,-6.6034,-6.6034,-6.5865,-6.5392,-6.4343,-6.3429,-6.3159,-6.2719,-6.2381,-6.2381,-6.2381,-6.2381,-6.2381,-6.2381,-6.2381,-6.2381,-6.2381,-6.2381,-6.2381,-6.2381,-6.2381,-6.2381,-6.1197,-6.0385,-6.0114,-5.893,-5.8152,-5.7881,-5.7881,-5.7881,-5.7881,-5.7881,-5.7881,-5.7881,-5.7881,-5.7881,-5.7881,-5.7881,-5.7881,-5.7881,-5.7881,-5.7881,-5.7881,-5.7881,-5.7881,-5.7881,-5.7881,-5.7881,-5.7881,-5.7881,-5.7881,-5.7881,-5.7881,-5.7881,-5.7881,-5.7881,-5.7881,-5.7881,-5.7881,-5.7881,-5.7881,-5.7881,-5.7881,-5.7881,-5.7881,-5.7881,-5.7881,-5.7881,-5.7881,-5.7881,-5.7881,-5.7881,-5.7881,-5.7881,-5.7881,-5.7881,-5.7881,-5.7881,-5.7881,-5.7881,-5.7554,-5.7001,-5.6282,-5.585,-5.5174,-5.4084,-5.3999,-5.3828,-5.3396,-5.2709,-5.226,-5.226,-5.226,-5.1926,-5.1229,-5.2664,-5.2664,-5.1229,-5.1229,-5.1229,-5.1229,-5.1229,-5.1229,-6.2685,0.0,0.0,0.0,0.0,-6.5764,-6.6,-6.644,-6.6812,-6.6812,-6.6812,-6.6643,-6.617,-6.5087,-6.4072,-6.3599,-6.3091,-6.2685,-6.2415,-6.2381,-6.2381,-6.2381,-6.2381,-6.2381,-6.2381,-6.2381,-6.2381,-6.2381,-6.2381,-6.2381,-6.2381,-6.0926,-5.9877,-5.937,-5.8389,-5.7881,-5.7881,-5.7881,-5.7881,-5.7881,-5.7881,-5.7881,-5.7881,-5.7881,-5.7881,-5.7881,-5.7881,-5.7881,-5.7881,-5.7881,-5.7881,-5.7881,-5.7881,-5.7881,-5.7881,-5.7881,-5.7881,-5.7881,-5.7881,-5.7881,-5.7881,-5.7881,-5.7881,-5.7881,-5.7881,-5.7881,-5.7881,-5.7881,-5.7881,-5.7881,-5.7881,-5.7881,-5.7881,-5.7881,-5.7881,-5.7881,-5.7881,-5.7881,-5.7881,-5.7881,-5.7881,-5.7881,-5.7881,-5.7881,-5.7881,-5.7881,-5.7881,-5.7881,-5.7881,-5.7881,-5.7591,-5.6854,-5.6778,-5.6354,-5.5247,-5.5166,-5.497,-5.463,-5.3871,-5.3483,-5.3483,-5.3483,-5.3121,-5.235,-5.3828,-5.3871,-5.235,-5.1972,-5.1773,-5.1773,-5.1773,-5.1972,0.0,0.0,0.0,-6.5324,0.0,0.0,-6.6643,0.0,-6.6812,-6.6812,-6.6812,-6.6812,-6.6812,-6.6203,-6.5256,-6.3768,-6.3531,-6.326,-6.2482,-6.2381,-6.2381,-6.2381,-6.2381,-6.2381,-6.2381,-6.2381,-6.2381,-6.2381,-6.2381,-6.2381,-6.2381,-6.0926,-5.9404,-5.7949,-5.7881,-5.7881,-5.7881,-5.7881,-5.7881,-5.7881,-5.7881,-5.7881,-5.7881,-5.7881,-5.7881,-5.7881,-5.7881,-5.7881,-5.7881,-5.7881,-5.7881,-5.7881,-5.7881,-5.7881,-5.7881,-5.7881,-5.7881,-5.7881,-5.7881,-5.7881,-5.7881,-5.7881,-5.7881,-5.7881,-5.7881,-5.7881,-5.7881,-5.7881,-5.7881,-5.7881,-5.7881,-5.7881,-5.7881,-5.7881,-5.7881,-5.7881,-5.7881,-5.7881,-5.7881,-5.7881,-5.7881,-5.7881,-5.7881,-5.7881,-5.7881,-5.7881,-5.7881,-5.7881,-5.7881,-5.7881,-5.7881,-5.7881,-5.7881,-5.7446,-5.6321,-5.6243,-5.581,-5.4755,-5.4672,-5.4672,-5.4672,-5.4672,-5.463,-5.4589,-5.4672,-5.4672,-5.463,-5.3483,-5.2945,-5.2945,-5.29,-5.3483,-6.3294,0.0,0.0,0.0,0.0,0.0,-6.6779,0.0,-6.6812,-6.6812,-6.6812,-6.6812,-6.6812,-6.6643,-6.6034,-6.4546,-6.3869,-6.326,-6.2482,-6.2381,-6.2381,-6.2381,-6.2381,-6.2381,-6.2381,-6.2381,-6.2381,-6.2381,-6.2381,-6.2381,-6.2381,-6.0926,-5.9404,-5.7949,-5.7881,-5.7881,-5.7881,-5.7881,-5.7881,-5.7881,-5.7881,-5.7881,-5.7881,-5.7881,-5.7881,-5.7881,-5.7881,-5.7881,-5.7881,-5.7881,-5.7881,-5.7881,-5.7881,-5.7881,-5.7881,-5.7881,-5.7881,-5.7881,-5.7881,-5.7881,-5.7881,-5.7881,-5.7881,-5.7881,-5.7881,-5.7881,-5.7881,-5.7881,-5.7881,-5.7881,-5.7881,-5.7881,-5.7881,-5.7881,-5.7881,-5.7881,-5.7881,-5.7881,-5.7881,-5.7881,-5.7881,-5.7881,-5.7881,-5.7881,-5.7881,-5.7881,-5.7881,-5.7881,-5.7881,-5.7881,-5.7881,-5.7881,-5.7881,-5.7772,-5.748,-5.7409,-5.7297,-5.7034,-5.6204,-5.577,-5.577,-5.577,-5.5377,-5.463,-5.6198,-5.6586,-5.5738,-5.464,-5.4126,-5.4126,-5.3265,-5.3077,-6.3768,-6.4512,-6.5222,-6.5967,0.0,0.0,-6.6812,-6.6812,-6.6812,0.0,-6.6812,-6.6812,-6.6812,-6.6542,-6.5967,-6.4783,-6.4005,-6.326,-6.2482,-6.2381,-6.2381,-6.2381,-6.2381,-6.2381,-6.2381,-6.2381,-6.2381,-6.2381,-6.2381,-6.211,-6.1467,-6.0588,-5.9404,-5.7949,-5.7881,-5.7881,-5.7881,-5.7881,-5.7881,-5.7881,-5.7881,-5.7881,-5.7881,-5.7881,-5.7881,-5.7881,-5.7881,-5.7881,-5.7881,-5.7881,-5.7881,-5.7881,-5.7881,-5.7881,-5.7881,-5.7881,-5.7881,-5.7881,-5.7881,-5.7881,-5.7881,-5.7881,-5.7881,-5.7881,-5.7881,-5.7881,-5.7881,-5.7881,-5.7881,-5.7881,-5.7881,-5.7881,-5.7881,-5.7881,-5.7881,-5.7881,-5.7881,-5.7881,-5.7881,-5.7881,-5.7881,-5.7881,-5.7881,-5.7881,-5.7881,-5.7881,-5.7881,-5.7881,-5.7881,-5.7881,-5.7881,-5.7881,-5.7881,-5.7881,-5.7881,-5.7881,-5.7881,-5.7881,-5.7297,-5.6925,-5.6925,-5.6925,-5.6624,-5.6001,-5.7222,-5.7591,-5.6925,-5.581,-5.5288,-5.5256,-5.4598,-5.4515,-6.4512,-6.5189,-6.5865,-6.6643,-6.6812,0.0,-6.6812,-6.6812,-6.6812,0.0,-6.6812,-6.6779,-6.6711,-6.6136,-6.5425,-6.4613,-6.3937,-6.326,-6.2482,-6.2381,-6.2381,-6.2381,-6.2381,-6.2381,-6.2381,-6.2381,-6.2381,-6.2381,-6.2313,-6.1637,-6.0182,-6.0013,-5.9336,-5.7915,-5.7881,-5.7881,-5.7881,-5.7881,-5.7881,-5.7881,-5.7881,-5.7881,-5.7881,-5.7881,-5.7881,-5.7881,-5.7881,-5.7881,-5.7881,-5.7881,-5.7881,-5.7881,-5.7881,-5.7881,-5.7881,-5.7881,-5.7881,-5.7881,-5.7881,-5.7881,-5.7881,-5.7881,-5.7881,-5.7881,-5.7881,-5.7881,-5.7881,-5.7881,-5.7881,-5.7881,-5.7881,-5.7881,-5.7881,-5.7881,-5.7881,-5.7881,-5.7881,-5.7881,-5.7881,-5.7881,-5.7881,-5.7881,-5.7881,-5.7881,-5.7881,-5.7881,-5.7881,-5.7881,-5.7881,-5.7881,-5.7881,-5.7881,-5.7881,-5.7881,-5.7881,-5.7881,-5.7881,-5.7881,-5.7881,-5.7881,-5.7881,-5.7881,-5.7881,-5.7881,-5.7881,-5.7881,-5.7881,-5.6887,-5.6398,-5.636,-5.6243,-5.6739,-6.529,-6.5561,-6.5865,-6.6643,-6.6812,0.0,-6.6812,-6.6812,-6.6812,0.0,-6.6812,-6.6643,-6.6,-6.5797,-6.5256,-6.3937,-6.3599,-6.326,-6.2482,-6.2381,-6.2381,-6.2381,-6.2381,-6.2381,-6.2381,-6.2381,-6.2381,-6.2381,-6.1839,-6.1095,-6.0148,-5.9539,-5.8829,-5.7915,-5.7881,-5.7881,-5.7881,-5.7881,-5.7881,-5.7881,-5.7881,-5.7881,-5.7881,-5.7881,-5.7881,-5.7881,-5.7881,-5.7881,-5.7881,-5.7881,-5.7881,-5.7881,-5.7881,-5.7881,-5.7881,-5.7881,-5.7881,-5.7881,-5.7881,-5.7881,-5.7881,-5.7881,-5.7881,-5.7881,-5.7881,-5.7881,-5.7881,-5.7881,-5.7881,-5.7881,-5.7881,-5.7881,-5.7881,-5.7881,-5.7881,-5.7881,-5.7881,-5.7881,-5.7881,-5.7881,-5.7881,-5.7881,-5.7881,-5.7881,-5.7881,-5.7881,-5.7881,-5.7881,-5.7881,-5.7881,-5.7881,-5.7881,-5.7881,-5.7881,-5.7881,-5.7881,-5.7881,-5.7881,-5.7881,-5.7881,-5.7881,-5.7881,-5.7881,-5.7881,-5.7881,-5.7881,-5.7881,-5.7665,-5.7554,-5.7554,-5.6624,-5.6321,-6.5595,-6.5967,-6.6339,-6.6711,-6.6812,0.0,0.0,-6.6812,-6.6812,-6.6812,-6.6508,-6.6136,-6.5764,-6.5087,-6.4377,-6.3632,-6.3193,-6.2821,-6.2448,-6.2381,-6.2381,-6.2381,-6.2381,-6.2381,-6.2381,-6.2381,-6.2381,-6.2381,-6.1704,-6.096,-6.0148,-5.9404,-5.866,-5.7915,-5.7881,-5.7881,-5.7881,-5.7881,-5.7881,-5.7881,-5.7881,-5.7881,-5.7881,-5.7881,-5.7881,-5.7881,-5.7881,-5.7881,-5.7881,-5.7881,-5.7881,-5.7881,-5.7881,-5.7881,-5.7881,-5.7881,-5.7881,-5.7881,-5.7881,-5.7881,-5.7881,-5.7881,-5.7881,-5.7881,-5.7881,-5.7881,-5.7881,-5.7881,-5.7881,-5.7881,-5.7881,-5.7881,-5.7881,-5.7881,-5.7881,-5.7881,-5.7881,-5.7881,-5.7881,-5.7881,-5.7881,-5.7881,-5.7881,-5.7881,-5.7881,-5.7881,-5.7881,-5.7881,-5.7881,-5.7881,-5.7881,-5.7881,-5.7881,-5.7881,-5.7881,-5.7881,-5.7881,-5.7881,-5.7881,-5.7881,-5.7881,-5.7881,-5.7881,-5.7881,-5.7881,-5.7881,-5.7881,-5.7881,-5.7881,-5.7881,-5.7297,-5.7039,-6.5899,-6.6339,-6.6812,-6.6812,-6.6812,-6.6812,0.0,0.0,0.0,-6.6643,-6.6102,-6.5595,-6.5324,-6.4309,-6.3463,-6.3328,-6.2787,-6.2381,-6.2381,-6.2381,-6.2381,-6.2381,-6.2381,-6.2381,-6.2381,-6.2381,-6.2347,-6.2178,-6.1501,-6.0723,-5.9945,-5.9201,-5.8524,-5.7915,-5.7881,-5.7881,-5.7881,-5.7881,-5.7881,-5.7881,-5.7881,-5.7881,-5.7881,-5.7881,-5.7881,-5.7881,-5.7881,-5.7881,-5.7881,-5.7881,-5.7881,-5.7881,-5.7881,-5.7881,-5.7881,-5.7881,-5.7881,-5.7881,-5.7881,-5.7881,-5.7881,-5.7881,-5.7881,-5.7881,-5.7881,-5.7881,-5.7881,-5.7881,-5.7881,-5.7881,-5.7881,-5.7881,-5.7881,-5.7881,-5.7881,-5.7881,-5.7881,-5.7881,-5.7881,-5.7881,-5.7881,-5.7881,-5.7881,-5.7881,-5.7881,-5.7881,-5.7881,-5.7881,-5.7881,-5.7881,-5.7881,-5.7881,-5.7881,-5.7881,-5.7881,-5.7881,-5.7881,-5.7881,-5.7881,-5.7881,-5.7881,-5.7881,-5.7881,-5.7881,-5.7881,-5.7881,-5.7881,-5.7881,-5.7881,-5.7881,-5.7881,-5.7881,-6.6677,-6.6745,-6.6812,-6.6812,-6.6812,-6.6812,-6.6812,0.0,-6.6609,-6.5967,0.0,-6.529,-6.4005,0.0,0.0,-6.2618,-6.2448,-6.2381,-6.2381,-6.2381,-6.2381,-6.2381,-6.2381,-6.2381,-6.2381,-6.2381,-6.211,-6.1467,-6.0689,-5.9911,-5.9167,-5.8423,-5.7983,-5.7881,-5.7881,-5.7881,-5.7881,-5.7881,-5.7881,-5.7881,-5.7881,-5.7881,-5.7881,-5.7881,-5.7881,-5.7881,-5.7881,-5.7881,-5.7881,-5.7881,-5.7881,-5.7881,-5.7881,-5.7881,-5.7881,-5.7881,-5.7881,-5.7881,-5.7881,-5.7881,-5.7881,-5.7881,-5.7881,-5.7881,-5.7881,-5.7881,-5.7881,-5.7881,-5.7881,-5.7881,-5.7881,-5.7881,-5.7881,-5.7881,-5.7881,-5.7881,-5.7881,-5.7881,-5.7881,-5.7881,-5.7881,-5.7881,-5.7881,-5.7881,-5.7881,-5.7881,-5.7881,-5.7881,-5.7881,-5.7881,-5.7881,-5.7881,-5.7881,-5.7881,-5.7881,-5.7881,-5.7881,-5.7881,-5.7881,-5.7881,-5.7881,-5.7881,-5.7881,-5.7881,-5.7881,-5.7881,-5.7881,-5.7881,-5.7881,-5.7881,-5.7881,-5.7881,-6.6812,-6.6812,-6.6812,-6.6812,-6.6812,-6.6812,-6.6812,-6.6474,-6.6068,-6.5764,0.0,0.0,0.0,0.0,0.0,0.0,-6.2381,-6.2381,-6.2381,-6.2381,-6.2381,-6.2381,-6.2381,-6.2381,-6.2381,-6.2381,-6.2076,-6.1366,-6.0554,-5.9776,-5.9066,-5.8287,-5.7881,-5.7881,-5.7881,-5.7881,-5.7881,-5.7881,-5.7881,-5.7881,-5.7881,-5.7881,-5.7881,-5.7881,-5.7881,-5.7881,-5.7881,-5.7881,-5.7881,-5.7881,-5.7881,-5.7881,-5.7881,-5.7881,-5.7881,-5.7881,-5.7881,-5.7881,-5.7881,-5.7881,-5.7881,-5.7881,-5.7881,-5.7881,-5.7881,-5.7881,-5.7881,-5.7881,-5.7881,-5.7881,-5.7881,-5.7881,-5.7881,-5.7881,-5.7881,-5.7881,-5.7881,-5.7881,-5.7881,-5.7881,-5.7881,-5.7881,-5.7881,-5.7881,-5.7881,-5.7881,-5.7881,-5.7881,-5.7881,-5.7881,-5.7881,-5.7881,-5.7881,-5.7881,-5.7881,-5.7881,-5.7881,-5.7881,-5.7881,-5.7881,-5.7881,-5.7881,-5.7881,-5.7881,-5.7881,-5.7881,-5.7881,-5.7881,-5.7881,-5.7881,-5.7881,-5.7881,-6.6812,-6.6812,-6.6812,-6.6812,-6.6812,-6.6779,-6.6542,-6.6068,-6.5561,-6.5189,-6.4241,0.0,0.0,0.0,-6.2381,-6.2381,0.0,-6.2381,-6.2381,-6.2381,-6.2381,-6.2381,-6.2381,-6.2381,-6.2381,-6.2212,-6.1772,-6.1028,-6.025,-5.9471,-5.8761,-5.8186,-5.7881,-5.7881,-5.7881,-5.7881,-5.7881,-5.7881,-5.7881,-5.7881,-5.7881,-5.7881,-5.7881,-5.7881,-5.7881,-5.7881,-5.7881,-5.7881,-5.7881,-5.7881,-5.7881,-5.7881,-5.7881,-5.7881,-5.7881,-5.7881,-5.7881,-5.7881,-5.7881,-5.7881,-5.7881,-5.7881,-5.7881,-5.7881,-5.7881,-5.7881,-5.7881,-5.7881,-5.7881,-5.7881,-5.7881,-5.7881,-5.7881,-5.7881,-5.7881,-5.7881,-5.7881,-5.7881,-5.7881,-5.7881,-5.7881,-5.7881,-5.7881,-5.7881,-5.7881,-5.7881,-5.7881,-5.7881,-5.7881,-5.7881,-5.7881,-5.7881,-5.7881,-5.7881,-5.7881,-5.7881,-5.7881,-5.7881,-5.7881,-5.7881,-5.7881,-5.7881,-5.7881,-5.7881,-5.7881,-5.7881,-5.7881,-5.7881,-5.7881,-5.7881,-5.7881,-5.7881,-6.6812,-6.6812,-6.6812,-6.6812,-6.6812,-6.6609,-6.5899,-6.5696,-6.529,-6.3869,-6.3531,-6.3294,-6.255,-6.2415,-6.2381,-6.2381,-6.2381,0.0,0.0,-6.2381,-6.2381,-6.2381,-6.2381,-6.2381,-6.2381,-6.1738,-6.0994,-6.0216,-5.9471,-5.8727,-5.7949,-5.7915,-5.7881,-5.7881,-5.7881,-5.7881,-5.7881,-5.7881,-5.7881,-5.7881,-5.7881,-5.7881,-5.7881,-5.7881,-5.7881,-5.7881,-5.7881,-5.7881,-5.7881,-5.7881,-5.7881,-5.7881,-5.7881,-5.7881,-5.7881,-5.7881,-5.7881,-5.7881,-5.7881,-5.7881,-5.7881,-5.7881,-5.7881,-5.7881,-5.7881,-5.7881,-5.7881,-5.7881,-5.7881,-5.7881,-5.7881,-5.7881,-5.7881,-5.7881,-5.7881,-5.7881,-5.7881,-5.7881,-5.7881,-5.7881,-5.7881,-5.7881,-5.7881,-5.7881,-5.7881,-5.7881,-5.7881,-5.7881,-5.7881,-5.7881,-5.7881,-5.7881,-5.7881,-5.7881,-5.7881,-5.7881,-5.7881,-5.7881,-5.7881,-5.7881,-5.7881,-5.7881,-5.7881,-5.7881,-5.7881,-5.7881,-5.7881,-5.7881,-5.7881,-5.7881,-5.7881,-5.7881,-6.6812,-6.6812,-6.6812,-6.6812,-6.6812,-6.6609,-6.5865,-6.5324,-6.4681,-6.37,-6.3125,-6.2685,-6.2448,-6.2381,-6.2381,-6.2381,-6.2381,-6.2381,0.0,-6.2381,-6.2212,-6.1738,-6.211,-6.2212,-6.1704,-6.1467,-6.0757,-5.9471,-5.9167,-5.8693,-5.7915,-5.7881,-5.7881,-5.7881,-5.7881,-5.7881,-5.7881,-5.7881,-5.7881,-5.7881,-5.7881,-5.7881,-5.7881,-5.7881,-5.7881,-5.7881,-5.7881,-5.7881,-5.7881,-5.7881,-5.7881,-5.7881,-5.7881,-5.7881,-5.7881,-5.7881,-5.7881,-5.7881,-5.7881,-5.7881,-5.7881,-5.7881,-5.7881,-5.7881,-5.7881,-5.7881,-5.7881,-5.7881,-5.7881,-5.7881,-5.7881,-5.7881,-5.7881,-5.7881,-5.7881,-5.7881,-5.7881,-5.7881,-5.7881,-5.7881,-5.7881,-5.7881,-5.7881,-5.7881,-5.7881,-5.7881,-5.7881,-5.7881,-5.7881,-5.7881,-5.7881,-5.7881,-5.7881,-5.7881,-5.7881,-5.7881,-5.7881,-5.7881,-5.7881,-5.7881,-5.7881,-5.7881,-5.7881,-5.7881,-5.7881,-5.7881,-5.7881,-5.7881,-5.7881,-5.7881,-5.7881,-5.7881,-6.6812,-6.6812,-6.6812,-6.6812,-6.6609,-6.6203,-6.5459,-6.4749,-6.4005,-6.326,-6.2719,-6.2381,-6.2381,-6.2381,-6.2381,-6.2381,-6.2381,-6.2381,0.0,-6.2381,-6.211,-6.14,-6.1704,-6.1704,-6.096,-6.0655,-6.008,-5.9099,-5.8761,-5.8389,-5.7915,-5.7881,-5.7881,-5.7881,-5.7881,-5.7881,-5.7881,-5.7881,-5.7881,-5.7881,-5.7881,-5.7881,-5.7881,-5.7881,-5.7881,-5.7881,-5.7881,-5.7881,-5.7881,-5.7881,-5.7881,-5.7881,-5.7881,-5.7881,-5.7881,-5.7881,-5.7881,-5.7881,-5.7881,-5.7881,-5.7881,-5.7881,-5.7881,-5.7881,-5.7881,-5.7881,-5.7881,-5.7881,-5.7881,-5.7881,-5.7881,-5.7881,-5.7881,-5.7881,-5.7881,-5.7881,-5.7881,-5.7881,-5.7881,-5.7881,-5.7881,-5.7881,-5.7881,-5.7881,-5.7881,-5.7881,-5.7881,-5.7881,-5.7881,-5.7881,-5.7881,-5.7881,-5.7881,-5.7881,-5.7881,-5.7881,-5.7881,-5.7881,-5.7881,-5.7881,-5.7881,-5.7881,-5.8017,-5.8287,-5.8017,-5.8017,-5.8287,-5.8017,-5.7881,-5.7881,-5.7881,-5.7881]},{"header":{"parameterUnit":"m.s-1","parameterCategory":1,"la1":30.6,"la2":29.2853,"lo1":-89.7004,"lo2":-87.6739,"dy":0.0162,"dx":0.0183,"nx":112,"ny":82,"refTime":"2023-06-10T06:00:00:Z","depth":0,"parameterNumber":3,"parameterNumberName":"V-component_of_WINDS"},"data":[0.0,0.0,0.0,0.0,0.0,0.0,0.0,0.0,0.0,0.0,0.0,0.0,0.0,0.0,0.0,0.0,0.0,0.0,0.0,0.0,0.0,0.0,0.0,0.0,0.0,0.0,0.0,0.0,0.0,0.0,0.0,0.0,0.0,0.0,0.0,0.0,0.0,0.0,0.0,0.0,0.0,0.0,0.0,0.0,0.0,0.0,0.0,0.0,0.0,0.0,0.0,0.0,0.0,0.0,0.0,0.0,0.0,0.0,0.0,0.0,0.0,0.0,0.0,0.0,0.0,0.0,0.0,0.0,0.0,0.0,0.0,0.0,0.0,0.0,0.0,0.0,0.0,0.0,0.0,0.0,0.0,0.0,0.0,0.0,0.0,0.0,0.0,0.0,0.0,0.0,-4.2986,-4.2986,-4.2986,-4.2986,-4.2986,-4.2986,-4.2986,-4.2986,0.0,0.0,0.0,0.0,0.0,0.0,0.0,0.0,0.0,0.0,0.0,0.0,0.0,0.0,0.0,0.0,0.0,0.0,0.0,0.0,0.0,0.0,0.0,0.0,0.0,0.0,0.0,0.0,0.0,0.0,0.0,0.0,0.0,0.0,0.0,0.0,0.0,0.0,0.0,0.0,0.0,0.0,0.0,0.0,0.0,0.0,0.0,0.0,0.0,0.0,0.0,0.0,0.0,0.0,0.0,0.0,0.0,0.0,0.0,0.0,0.0,0.0,0.0,0.0,0.0,0.0,0.0,0.0,0.0,0.0,0.0,0.0,0.0,0.0,0.0,0.0,0.0,0.0,0.0,0.0,0.0,0.0,0.0,0.0,0.0,0.0,0.0,0.0,0.0,0.0,0.0,0.0,0.0,0.0,0.0,0.0,0.0,0.0,0.0,0.0,0.0,0.0,0.0,0.0,-4.2986,-4.2986,-4.2986,-4.2986,-4.2986,-4.2986,-4.2986,-4.2986,0.0,0.0,0.0,0.0,0.0,0.0,0.0,0.0,0.0,0.0,0.0,0.0,0.0,0.0,0.0,0.0,0.0,0.0,0.0,0.0,0.0,0.0,0.0,0.0,0.0,0.0,0.0,0.0,0.0,0.0,0.0,0.0,0.0,0.0,0.0,0.0,0.0,0.0,0.0,0.0,0.0,0.0,0.0,0.0,0.0,0.0,0.0,0.0,0.0,0.0,0.0,0.0,0.0,0.0,0.0,0.0,0.0,0.0,0.0,0.0,0.0,0.0,0.0,0.0,0.0,0.0,0.0,0.0,0.0,0.0,0.0,0.0,0.0,0.0,0.0,0.0,0.0,0.0,0.0,0.0,0.0,0.0,0.0,0.0,0.0,0.0,0.0,0.0,0.0,0.0,0.0,0.0,0.0,0.0,0.0,0.0,0.0,0.0,0.0,0.0,0.0,0.0,0.0,-4.2986,-4.2986,-4.2986,-4.2986,-4.2986,-4.2986,-4.2986,-4.2986,-4.2986,-4.2986,0.0,0.0,0.0,0.0,0.0,0.0,0.0,0.0,0.0,0.0,0.0,0.0,0.0,0.0,0.0,0.0,0.0,0.0,0.0,0.0,0.0,0.0,0.0,0.0,0.0,0.0,0.0,0.0,0.0,0.0,0.0,0.0,0.0,0.0,0.0,0.0,0.0,0.0,0.0,0.0,0.0,0.0,0.0,0.0,0.0,0.0,0.0,0.0,0.0,0.0,0.0,0.0,0.0,0.0,0.0,0.0,0.0,0.0,0.0,0.0,0.0,0.0,0.0,0.0,0.0,0.0,0.0,0.0,0.0,0.0,0.0,0.0,0.0,0.0,0.0,0.0,0.0,0.0,0.0,0.0,0.0,0.0,0.0,0.0,0.0,0.0,0.0,0.0,0.0,0.0,0.0,0.0,0.0,0.0,0.0,0.0,0.0,0.0,0.0,0.0,0.0,0.0,-4.2986,-4.2986,-4.2986,-4.2986,-4.2986,-4.2986,-4.2986,-4.2986,-4.2986,-4.2986,0.0,0.0,0.0,0.0,0.0,0.0,0.0,0.0,0.0,0.0,0.0,0.0,0.0,0.0,0.0,0.0,0.0,0.0,0.0,0.0,0.0,0.0,0.0,0.0,0.0,0.0,0.0,0.0,0.0,0.0,0.0,0.0,0.0,0.0,0.0,0.0,0.0,0.0,0.0,0.0,0.0,0.0,0.0,0.0,0.0,0.0,0.0,0.0,0.0,0.0,0.0,0.0,0.0,0.0,0.0,0.0,0.0,0.0,0.0,0.0,0.0,0.0,0.0,0.0,0.0,0.0,0.0,0.0,0.0,0.0,0.0,0.0,0.0,0.0,0.0,0.0,0.0,0.0,0.0,0.0,0.0,0.0,0.0,0.0,0.0,0.0,0.0,0.0,0.0,0.0,0.0,0.0,0.0,0.0,0.0,0.0,0.0,0.0,0.0,0.0,0.0,0.0,-4.2986,-4.2986,-4.2986,-4.2986,-4.2986,-4.2986,-4.2986,-4.2986,-4.2986,-4.2986,0.0,0.0,0.0,0.0,0.0,0.0,0.0,0.0,0.0,0.0,0.0,0.0,0.0,0.0,0.0,0.0,0.0,0.0,0.0,0.0,0.0,0.0,0.0,0.0,0.0,0.0,0.0,0.0,0.0,0.0,0.0,0.0,0.0,0.0,0.0,0.0,0.0,0.0,0.0,0.0,0.0,0.0,0.0,0.0,0.0,0.0,0.0,0.0,0.0,0.0,0.0,0.0,0.0,0.0,0.0,0.0,0.0,0.0,0.0,0.0,0.0,0.0,0.0,0.0,0.0,0.0,0.0,0.0,0.0,0.0,0.0,0.0,0.0,0.0,0.0,0.0,0.0,0.0,0.0,0.0,0.0,0.0,0.0,0.0,0.0,0.0,0.0,0.0,0.0,0.0,0.0,0.0,0.0,0.0,0.0,0.0,0.0,0.0,0.0,0.0,0.0,0.0,-4.2986,-4.2986,-4.2986,-4.2986,-4.2986,-4.2986,-4.2986,-4.2986,-4.2986,0.0,0.0,0.0,0.0,0.0,0.0,0.0,0.0,0.0,0.0,0.0,0.0,0.0,0.0,0.0,0.0,0.0,0.0,0.0,0.0,0.0,0.0,0.0,0.0,0.0,0.0,0.0,0.0,0.0,0.0,0.0,0.0,0.0,0.0,0.0,0.0,0.0,0.0,0.0,0.0,0.0,0.0,0.0,0.0,0.0,0.0,0.0,0.0,0.0,0.0,0.0,0.0,0.0,0.0,0.0,0.0,0.0,0.0,0.0,0.0,0.0,0.0,0.0,0.0,0.0,0.0,0.0,0.0,0.0,0.0,0.0,0.0,0.0,0.0,0.0,0.0,0.0,0.0,0.0,0.0,0.0,0.0,0.0,0.0,0.0,0.0,0.0,0.0,0.0,0.0,0.0,0.0,0.0,0.0,0.0,0.0,0.0,0.0,0.0,0.0,0.0,0.0,-4.2986,-4.2986,-4.2986,-4.2986,-4.2986,-4.2986,-4.2986,-4.2986,-4.2986,-4.2986,0.0,0.0,0.0,0.0,0.0,0.0,0.0,0.0,0.0,0.0,0.0,0.0,0.0,0.0,0.0,0.0,0.0,0.0,0.0,0.0,0.0,0.0,0.0,0.0,0.0,0.0,0.0,0.0,0.0,0.0,0.0,0.0,0.0,0.0,0.0,0.0,0.0,0.0,0.0,0.0,0.0,0.0,0.0,0.0,0.0,0.0,0.0,0.0,0.0,0.0,0.0,0.0,0.0,0.0,0.0,0.0,0.0,0.0,0.0,0.0,0.0,0.0,0.0,0.0,0.0,0.0,0.0,0.0,0.0,0.0,0.0,0.0,0.0,0.0,0.0,0.0,0.0,0.0,0.0,0.0,0.0,0.0,0.0,0.0,0.0,0.0,0.0,0.0,0.0,0.0,0.0,0.0,0.0,0.0,0.0,0.0,0.0,0.0,0.0,0.0,0.0,0.0,-4.2986,-4.2986,-4.2986,-4.2986,-4.2986,-4.2986,-4.2986,-4.2986,-4.2986,0.0,0.0,0.0,0.0,0.0,0.0,0.0,0.0,0.0,0.0,0.0,0.0,0.0,0.0,0.0,0.0,0.0,0.0,0.0,0.0,0.0,0.0,0.0,0.0,0.0,0.0,0.0,0.0,0.0,0.0,0.0,0.0,0.0,0.0,0.0,0.0,0.0,0.0,0.0,0.0,0.0,0.0,0.0,0.0,0.0,0.0,0.0,0.0,0.0,0.0,0.0,0.0,0.0,0.0,0.0,0.0,0.0,0.0,0.0,0.0,0.0,0.0,0.0,0.0,0.0,0.0,0.0,0.0,0.0,0.0,0.0,0.0,0.0,0.0,0.0,0.0,0.0,0.0,0.0,0.0,0.0,0.0,0.0,0.0,0.0,0.0,0.0,0.0,0.0,0.0,0.0,0.0,0.0,0.0,0.0,0.0,0.0,0.0,0.0,0.0,0.0,0.0,0.0,-4.2986,-4.2986,-4.2986,-4.2986,-4.2986,-4.2986,-4.2986,-4.2986,-4.2986,-4.2986,0.0,0.0,0.0,0.0,0.0,0.0,0.0,0.0,0.0,0.0,0.0,0.0,0.0,0.0,0.0,0.0,0.0,0.0,0.0,0.0,0.0,0.0,0.0,0.0,0.0,0.0,0.0,0.0,0.0,0.0,0.0,0.0,0.0,0.0,0.0,0.0,0.0,0.0,0.0,0.0,0.0,0.0,0.0,0.0,0.0,0.0,0.0,0.0,0.0,0.0,0.0,0.0,0.0,0.0,0.0,0.0,0.0,0.0,0.0,0.0,0.0,0.0,0.0,0.0,0.0,0.0,0.0,0.0,0.0,0.0,0.0,0.0,0.0,0.0,0.0,0.0,0.0,0.0,0.0,0.0,0.0,0.0,0.0,0.0,0.0,0.0,0.0,0.0,0.0,0.0,0.0,0.0,0.0,0.0,0.0,0.0,0.0,0.0,0.0,0.0,0.0,0.0,-4.2986,-4.2986,-4.2986,-4.2986,-4.2986,-4.2986,-4.2986,-4.2986,-4.2986,-4.2986,0.0,0.0,0.0,0.0,0.0,0.0,0.0,0.0,0.0,0.0,0.0,0.0,0.0,0.0,0.0,0.0,0.0,0.0,0.0,0.0,0.0,0.0,0.0,0.0,0.0,0.0,0.0,0.0,0.0,0.0,0.0,0.0,0.0,0.0,0.0,0.0,0.0,0.0,0.0,0.0,0.0,0.0,0.0,0.0,0.0,0.0,0.0,0.0,0.0,0.0,0.0,0.0,0.0,0.0,0.0,0.0,0.0,0.0,0.0,0.0,0.0,0.0,0.0,0.0,0.0,0.0,0.0,0.0,0.0,0.0,0.0,0.0,0.0,0.0,0.0,0.0,0.0,0.0,0.0,0.0,0.0,0.0,0.0,0.0,0.0,0.0,0.0,0.0,0.0,0.0,0.0,0.0,0.0,0.0,0.0,0.0,0.0,0.0,0.0,0.0,0.0,0.0,-4.2986,-4.2986,-4.2986,-4.2986,-4.2986,-4.2986,-4.2986,-4.2986,-4.2986,-4.2986,0.0,0.0,0.0,0.0,0.0,0.0,0.0,0.0,0.0,0.0,0.0,0.0,0.0,0.0,0.0,0.0,0.0,0.0,0.0,0.0,0.0,0.0,0.0,0.0,0.0,0.0,0.0,0.0,0.0,0.0,0.0,0.0,0.0,0.0,0.0,0.0,0.0,0.0,0.0,0.0,0.0,0.0,0.0,0.0,0.0,0.0,0.0,0.0,0.0,0.0,0.0,0.0,0.0,0.0,0.0,0.0,0.0,0.0,0.0,0.0,-4.4518,-4.4819,0.0,0.0,0.0,0.0,0.0,0.0,0.0,0.0,0.0,0.0,0.0,0.0,0.0,0.0,0.0,0.0,0.0,0.0,0.0,0.0,0.0,0.0,0.0,0.0,0.0,0.0,0.0,0.0,0.0,0.0,0.0,0.0,0.0,0.0,0.0,0.0,0.0,0.0,0.0,0.0,-4.2986,-4.2986,-4.2986,-4.2986,-4.2986,-4.2986,-4.2986,-4.2986,-4.2986,-4.2986,-4.2986,0.0,0.0,0.0,0.0,0.0,0.0,0.0,0.0,0.0,0.0,0.0,0.0,0.0,0.0,0.0,0.0,0.0,0.0,0.0,0.0,0.0,0.0,0.0,0.0,0.0,0.0,0.0,0.0,0.0,0.0,0.0,0.0,0.0,0.0,0.0,0.0,0.0,0.0,0.0,0.0,0.0,0.0,0.0,0.0,0.0,0.0,0.0,0.0,0.0,0.0,0.0,0.0,0.0,0.0,0.0,0.0,0.0,0.0,0.0,-4.5447,-4.5447,0.0,0.0,0.0,0.0,0.0,0.0,0.0,0.0,0.0,0.0,0.0,0.0,0.0,0.0,0.0,0.0,0.0,0.0,0.0,0.0,0.0,0.0,0.0,0.0,0.0,0.0,0.0,0.0,0.0,0.0,0.0,0.0,0.0,0.0,0.0,0.0,0.0,0.0,0.0,0.0,-4.2986,-4.2986,-4.2986,-4.2986,-4.2986,-4.2986,-4.2986,-4.2986,-4.2986,-4.2986,-4.2986,0.0,0.0,0.0,0.0,0.0,0.0,0.0,0.0,0.0,0.0,0.0,0.0,0.0,0.0,0.0,0.0,0.0,0.0,0.0,0.0,0.0,0.0,0.0,0.0,0.0,0.0,0.0,0.0,0.0,0.0,0.0,0.0,0.0,0.0,0.0,0.0,0.0,0.0,0.0,0.0,0.0,0.0,0.0,0.0,0.0,0.0,0.0,0.0,0.0,0.0,0.0,0.0,0.0,-4.5271,-4.5723,-4.6175,-4.6276,-4.6301,-4.6301,-4.6301,-4.605,-4.5673,-4.6125,0.0,0.0,0.0,0.0,0.0,0.0,0.0,0.0,0.0,0.0,0.0,0.0,0.0,0.0,0.0,0.0,0.0,0.0,0.0,0.0,0.0,0.0,-4.6301,-4.6301,-4.6301,-4.6301,-4.6301,0.0,0.0,0.0,0.0,0.0,0.0,0.0,0.0,0.0,0.0,0.0,-4.2986,-4.2986,-4.2986,-4.2986,-4.2986,-4.2986,-4.2986,-4.2986,-4.2986,-4.2986,-4.2986,-4.2986,0.0,0.0,0.0,0.0,0.0,0.0,0.0,0.0,0.0,0.0,0.0,0.0,0.0,0.0,0.0,0.0,0.0,0.0,0.0,0.0,0.0,0.0,0.0,0.0,0.0,0.0,0.0,0.0,0.0,0.0,0.0,0.0,-3.7144,-3.5928,0.0,0.0,0.0,0.0,0.0,0.0,0.0,0.0,0.0,0.0,0.0,0.0,0.0,-4.3966,-4.4518,-4.4518,-4.4794,-4.5372,-4.5447,-4.5522,-4.5623,-4.61,-4.6301,-4.6301,-4.6301,0.0,-4.62,-4.6276,0.0,0.0,0.0,0.0,0.0,0.0,0.0,0.0,0.0,0.0,0.0,0.0,0.0,0.0,0.0,0.0,0.0,0.0,0.0,0.0,0.0,0.0,-4.6301,-4.6301,-4.6301,-4.6301,-4.6301,-4.62,-4.5974,-4.5573,-4.497,-4.4518,0.0,0.0,0.0,0.0,0.0,0.0,-4.2986,-4.2986,-4.2986,-4.2986,-4.2986,-4.2986,-4.2986,-4.2986,-4.2986,-4.2986,-4.2986,-4.2986,-4.2986,-4.4126,0.0,0.0,0.0,0.0,0.0,0.0,0.0,0.0,0.0,0.0,0.0,0.0,0.0,0.0,0.0,0.0,0.0,0.0,0.0,0.0,0.0,0.0,0.0,0.0,0.0,0.0,0.0,0.0,0.0,-3.5396,-3.6963,-3.7144,-3.9053,-4.0707,0.0,0.0,0.0,0.0,0.0,0.0,0.0,0.0,0.0,-4.3438,-4.3689,-4.4066,-4.4618,-4.4945,-4.5246,-4.5497,-4.5799,-4.5949,-4.5949,-4.62,-4.6301,-4.6301,-4.6301,-4.6301,-4.6301,-4.6301,-4.6301,-4.6301,0.0,0.0,0.0,0.0,-4.6301,-4.6301,-4.6301,-4.6301,-4.6301,-4.6301,0.0,0.0,0.0,0.0,0.0,0.0,0.0,-4.6301,-4.6301,-4.6301,-4.6301,-4.6301,-4.6301,-4.6301,-4.6301,-4.6301,-4.6225,-4.5999,-4.5246,-4.4719,-4.5045,-4.4192,0.0,0.0,0.0,-4.2986,-4.2986,-4.2986,-4.2986,-4.2986,-4.2986,-4.2986,-4.2986,-4.2986,-4.2986,-4.2986,-4.2986,-4.2986,-4.2986,-4.3547,-4.4209,0.0,0.0,0.0,0.0,0.0,0.0,0.0,0.0,0.0,0.0,0.0,0.0,0.0,0.0,0.0,0.0,0.0,0.0,0.0,0.0,0.0,0.0,0.0,0.0,0.0,0.0,0.0,0.0,-3.515,-3.6721,-3.7484,-3.8698,-4.0187,0.0,0.0,0.0,0.0,0.0,0.0,-4.2986,-4.3112,-4.3363,-4.379,-4.4091,-4.4443,-4.4844,-4.5422,-4.5698,-4.5698,-4.6125,-4.6301,-4.6301,-4.6301,-4.6301,-4.6301,-4.6301,-4.6301,-4.6301,-4.6301,-4.6301,-4.6301,-4.6301,-4.6301,-4.6301,-4.6301,-4.6301,-4.6301,-4.6301,-4.6301,-4.6301,-4.6301,-4.6301,-4.6301,-4.6301,0.0,0.0,0.0,0.0,-4.6301,-4.6301,-4.6301,-4.6301,-4.6301,-4.6301,-4.6301,-4.6301,-4.6301,-4.6276,-4.6125,-4.5296,-4.4769,-4.5196,-4.4342,0.0,-4.379,-4.3338,-4.2986,-4.2986,-4.2986,-4.2986,-4.2986,-4.2986,-4.2986,-4.2986,-4.2986,-4.2986,-4.2986,-4.2986,-4.2986,-4.2986,-4.2986,-4.3657,-4.4994,0.0,0.0,0.0,0.0,0.0,0.0,0.0,0.0,0.0,0.0,0.0,0.0,0.0,0.0,0.0,0.0,0.0,0.0,0.0,0.0,0.0,0.0,0.0,0.0,0.0,0.0,0.0,0.0,0.0,-3.6112,-3.9989,0.0,0.0,0.0,0.0,-4.2961,-4.2986,-4.2986,-4.2986,-4.3463,-4.3765,-4.379,-4.4844,-4.5422,-4.5447,-4.5999,-4.6276,-4.6276,-4.6301,-4.6301,-4.6301,-4.6301,-4.6301,-4.6301,-4.6301,-4.6301,-4.6301,-4.6301,-4.6301,-4.6301,-4.6301,-4.6301,-4.6301,-4.6301,-4.6301,-4.6301,-4.6301,-4.6301,-4.6301,-4.6301,-4.6301,-4.6301,-4.6301,-4.6301,0.0,0.0,-4.6301,-4.6301,-4.6301,-4.6301,-4.6301,-4.6301,-4.6301,-4.6301,-4.6301,-4.6301,-4.615,-4.5623,-4.5045,-4.4644,-4.4669,0.0,-4.3187,-4.3714,-4.3338,-4.2986,-4.2986,-4.2986,-4.2986,-4.2986,-4.2986,-4.2986,-4.2986,-4.2986,-4.2986,-4.2986,-4.2986,-4.2986,-4.2986,-4.2986,-4.3657,-4.4994,-4.6317,0.0,0.0,0.0,0.0,0.0,0.0,0.0,0.0,0.0,0.0,0.0,0.0,0.0,0.0,0.0,0.0,0.0,0.0,0.0,0.0,0.0,0.0,0.0,0.0,0.0,0.0,0.0,0.0,-3.8853,-4.0419,0.0,-4.2093,-4.2681,-4.2986,-4.2986,-4.2986,-4.2986,-4.2986,-4.3514,-4.3966,-4.4317,-4.5095,-4.5673,-4.6024,-4.62,-4.6301,-4.6301,-4.6301,-4.6301,-4.6301,-4.6301,-4.6301,-4.6301,-4.6301,-4.6301,-4.6301,-4.6301,-4.6301,-4.6301,-4.6301,-4.6301,-4.6301,-4.6301,-4.6301,-4.6301,-4.6301,-4.6301,-4.6301,-4.6301,-4.6301,-4.6301,-4.6301,-4.6301,-4.6301,-4.6301,-4.6301,-4.6301,-4.6301,-4.6301,-4.6301,-4.6301,-4.6301,-4.6301,-4.6301,-4.6301,-4.625,-4.605,-4.5271,-4.4744,-4.5121,-4.3966,-4.3162,-4.3714,-4.3338,-4.2986,-4.2986,-4.2986,-4.2986,-4.2986,-4.2986,-4.2986,-4.2986,-4.2986,-4.2986,-4.2986,-4.2986,-4.2986,-4.2986,-4.2986,-4.324,-4.3713,-4.5048,-4.6422,0.0,0.0,0.0,0.0,0.0,0.0,0.0,0.0,0.0,0.0,0.0,0.0,0.0,0.0,0.0,0.0,0.0,0.0,0.0,0.0,0.0,0.0,0.0,0.0,0.0,-3.7303,-3.9229,-3.9698,-4.0765,-4.1842,-4.2905,-4.2986,-4.2986,-4.2986,-4.2986,-4.3062,-4.3237,-4.379,-4.4342,-4.4895,-4.5472,-4.5949,-4.6301,-4.6301,-4.6301,-4.6301,-4.6301,-4.6301,-4.6301,-4.6301,-4.6301,-4.6301,-4.6301,-4.6301,-4.6301,-4.6301,-4.6301,-4.6301,-4.6301,-4.6301,-4.6301,-4.6301,-4.6301,-4.6301,-4.6301,-4.6301,-4.6301,-4.6301,-4.6301,-4.6301,-4.6301,-4.6301,-4.6301,-4.6301,-4.6301,-4.6301,-4.6301,-4.6301,-4.6301,-4.6301,-4.6301,-4.6301,-4.6301,-4.6301,-4.625,-4.6075,-4.5271,-4.4744,-4.5121,-4.3966,-4.3112,-4.3463,-4.3212,-4.2986,-4.2986,-4.2986,-4.2986,-4.2986,-4.2986,-4.2986,-4.2986,-4.2986,-4.2986,-4.2986,-4.2986,-4.2986,-4.2986,-4.3436,-4.3657,-4.3657,-4.5449,-4.6888,-4.7808,0.0,0.0,0.0,0.0,0.0,0.0,0.0,0.0,0.0,0.0,0.0,0.0,0.0,0.0,0.0,0.0,0.0,0.0,0.0,0.0,0.0,0.0,0.0,-3.3965,-3.7664,-4.0129,-3.8521,-4.1133,-4.2986,-4.2986,-4.2986,-4.2986,-4.2986,-4.2986,-4.3237,-4.3765,-4.4342,-4.492,-4.5472,-4.6024,-4.6301,-4.6301,-4.6301,-4.6301,-4.6301,-4.6301,-4.6301,-4.6301,-4.6301,-4.6301,-4.6301,-4.6301,-4.6301,-4.6301,-4.6301,-4.6301,-4.6301,-4.6301,-4.6301,-4.6301,-4.6301,-4.6301,-4.6301,-4.6301,-4.6301,-4.6301,-4.6301,-4.6301,-4.6301,-4.6301,-4.6301,-4.6301,-4.6301,-4.6301,-4.6301,-4.6301,-4.6301,-4.6301,-4.6301,-4.6301,-4.6301,-4.6301,-4.6301,-4.6125,-4.5598,-4.4995,-4.4593,-4.4593,-4.3689,-4.2986,-4.2986,-4.2986,0.0,-4.2986,-4.2986,-4.2986,-4.2986,-4.2986,-4.2986,-4.2986,-4.2986,-4.2986,-4.2986,-4.2986,-4.2986,-4.2986,-4.4264,-4.4941,-4.4994,-4.7707,-4.9161,-4.921,0.0,0.0,0.0,0.0,0.0,0.0,0.0,0.0,0.0,0.0,0.0,0.0,0.0,0.0,0.0,0.0,0.0,0.0,0.0,0.0,0.0,-3.6842,-3.7865,-3.7023,-4.0047,-4.2206,-4.1728,-4.2432,-4.2986,-4.2986,-4.2986,-4.2986,-4.2986,-4.3338,-4.3639,-4.379,-4.4719,-4.5321,-4.5472,-4.6024,-4.6301,-4.6301,-4.6301,-4.6301,-4.6301,-4.6301,-4.6301,-4.6301,-4.6301,-4.6301,-4.6301,-4.6301,-4.6301,-4.6301,-4.6301,-4.6301,-4.6301,-4.6301,-4.6301,-4.6301,-4.6301,-4.6301,-4.6301,-4.6301,-4.6301,-4.6301,-4.6301,-4.6301,-4.6301,-4.6301,-4.6301,-4.6301,-4.6301,-4.6301,-4.6301,-4.6301,-4.6301,-4.6301,-4.6301,-4.6301,-4.6301,-4.6301,-4.5999,-4.5673,-4.5522,-4.4694,-4.4016,-4.4016,-4.3438,-4.2986,-4.2986,-4.2986,-4.2986,-4.2986,-4.2986,-4.2986,-4.2986,-4.2986,-4.2986,-4.2986,-4.2986,-4.2986,-4.2986,-4.2986,-4.2986,-4.2986,-4.3351,-4.4016,-4.4994,-4.6733,-4.8189,0.0,0.0,0.0,0.0,0.0,0.0,0.0,0.0,0.0,0.0,0.0,0.0,0.0,0.0,0.0,0.0,0.0,0.0,0.0,0.0,0.0,0.0,-3.7122,-3.7985,-3.7325,-4.0534,-4.2737,-4.2093,-4.2625,-4.2986,-4.2986,-4.2986,-4.2986,-4.2986,-4.3489,-4.389,-4.4141,-4.4995,-4.5598,-4.5824,-4.615,-4.6301,-4.6301,-4.6301,-4.6301,-4.6301,-4.6301,-4.6301,-4.6301,-4.6301,-4.6301,-4.6301,-4.6301,-4.6301,-4.6301,-4.6301,-4.6301,-4.6301,0.0,0.0,0.0,0.0,-4.6301,-4.6301,-4.6301,-4.6301,-4.6301,-4.6301,-4.6301,-4.6301,-4.6301,-4.6301,-4.6301,-4.6301,-4.6301,-4.6301,-4.6301,-4.6301,-4.6301,-4.6301,-4.6301,-4.625,-4.6024,-4.5723,-4.5347,-4.4869,-4.4242,0.0,-4.3489,-4.3187,-4.2986,-4.2986,-4.2986,-4.2986,-4.2986,-4.2986,-4.2986,-4.2986,-4.2986,-4.2986,-4.2986,-4.2986,0.0,0.0,0.0,-4.324,-4.3797,-4.3852,0.0,0.0,0.0,-4.7503,-4.8339,-4.9679,0.0,0.0,-5.1229,-5.1229,0.0,0.0,0.0,0.0,0.0,0.0,0.0,0.0,0.0,0.0,0.0,0.0,0.0,0.0,0.0,0.0,-3.7303,-3.7963,-3.6517,-4.0163,-4.2375,-4.0765,-4.2012,-4.2986,-4.2986,-4.2986,-4.3011,-4.3062,-4.3589,-4.4141,-4.4694,-4.5271,0.0,0.0,0.0,-4.6301,-4.6301,-4.6301,-4.6301,-4.6301,-4.6301,-4.6301,-4.6301,-4.6301,-4.6301,-4.6301,-4.6301,-4.6301,-4.6301,-4.6301,-4.6301,-4.6301,-4.6301,-4.6301,-4.6301,-4.6301,-4.6301,-4.6301,-4.6301,0.0,0.0,-4.6301,-4.6301,-4.6301,-4.6301,-4.6301,-4.6301,-4.6301,-4.6301,-4.6301,-4.6301,-4.6301,-4.6301,-4.6225,-4.6225,-4.6075,-4.5522,-4.5347,-4.4995,-4.3991,-4.374,-4.3564,-4.3062,-4.2986,-4.2986,-4.2986,-4.2986,-4.2986,-4.2986,-4.2986,-4.2986,-4.2986,-4.2986,0.0,-4.2986,-4.2986,-4.2986,-4.2986,-4.2986,-4.3547,-4.4725,-4.4779,-4.4779,-4.4779,-4.6188,-4.6837,-4.6888,-4.8289,-4.9679,-5.0964,-5.1105,-5.1229,0.0,0.0,0.0,0.0,0.0,0.0,0.0,0.0,0.0,0.0,0.0,0.0,0.0,0.0,0.0,-3.5745,-3.826,-4.0047,-3.9698,-4.159,-4.2375,-4.0765,-4.2012,-4.2986,-4.2986,-4.2986,-4.3162,-4.3614,-4.4141,-4.4719,-4.5296,-4.5849,-4.62,-4.6301,-4.6301,-4.6301,-4.6301,-4.6301,-4.6301,-4.6301,-4.6301,0.0,-4.6301,-4.6301,-4.6301,-4.6301,-4.6301,-4.6301,-4.6301,-4.6301,-4.6301,-4.6301,-4.6301,-4.6301,-4.6301,-4.6301,-4.6301,-4.6301,-4.6301,-4.6301,-4.6301,-4.6301,-4.6301,-4.6301,-4.6301,-4.6301,0.0,-4.6301,-4.6301,-4.6301,-4.6301,-4.6301,-4.62,-4.5748,-4.5648,-4.5497,-4.492,-4.4443,-4.4066,-4.384,-4.3438,-4.3112,-4.2986,-4.2986,-4.2986,-4.2986,-4.2986,-4.2986,-4.2986,-4.2986,-4.2986,-4.2986,-4.2986,-4.2986,-4.2986,-4.2986,-4.2986,-4.2986,-4.2986,-4.3129,-4.3406,-4.3381,-4.3381,-4.3381,-4.4725,-4.5395,-4.5395,-4.6837,-4.8239,-4.963,-5.0698,-5.1229,0.0,0.0,0.0,0.0,0.0,0.0,0.0,0.0,0.0,0.0,0.0,-3.367,-3.4425,0.0,-3.515,-3.6721,-3.832,-3.9405,-3.9405,-4.1476,-4.2681,-4.1899,-4.2513,-4.2986,-4.2986,-4.3212,-4.3514,-4.379,-4.4568,-4.5171,-4.5472,-4.6024,-4.6301,-4.6301,-4.6301,-4.6301,-4.6301,-4.6301,-4.6301,-4.6301,-4.6301,-4.6301,-4.6301,-4.6301,-4.6301,-4.6301,-4.6301,-4.6301,-4.6301,-4.6301,-4.6301,-4.6301,-4.6301,-4.6301,-4.6301,-4.6301,-4.6301,-4.6301,-4.6301,-4.6301,-4.6301,-4.6301,-4.6301,-4.6301,-4.6301,-4.6301,-4.6301,-4.6301,-4.6301,-4.6301,-4.6301,-4.61,-4.5824,-4.5547,-4.5271,-4.4895,-4.4342,-4.3991,-4.3714,-4.3438,-4.3162,-4.2986,-4.2986,-4.2986,-4.2986,-4.2986,-4.2986,-4.2986,-4.2986,-4.2986,-4.2986,-4.2986,-4.2986,-4.2986,-4.2986,-4.2986,-4.2986,-4.2986,-4.2986,-4.2986,-4.2986,-4.2986,-4.2986,-4.2986,-4.3657,-4.4318,-4.4994,-4.5714,-4.6785,-4.8189,-4.9582,-5.0555,0.0,0.0,0.0,0.0,0.0,0.0,0.0,-3.3418,-3.3418,-3.3418,-3.3418,-3.3776,-3.5088,-3.4798,-3.4984,-3.6963,-3.8045,-3.858,-3.8223,-4.0707,-4.2544,-4.2544,-4.2793,-4.3011,-4.3137,-4.3539,-4.389,-4.4116,-4.497,-4.5547,-4.5648,-4.6075,-4.6301,-4.6301,-4.6301,-4.6301,-4.6301,-4.6301,-4.6301,-4.6301,-4.6301,-4.6301,-4.6301,-4.6301,-4.6301,-4.6301,-4.6301,-4.6301,-4.6301,-4.6301,-4.6301,-4.6301,-4.6301,-4.6301,-4.6301,-4.6301,-4.6301,-4.6301,-4.6301,-4.6301,-4.6301,-4.6301,-4.6301,-4.6301,-4.6301,-4.6301,-4.6301,-4.6301,-4.6225,-4.615,-4.615,-4.5748,-4.5296,-4.5171,-4.4794,-4.4317,-4.3765,-4.3639,-4.3514,-4.3062,-4.2986,-4.2986,-4.2986,-4.2986,-4.2986,-4.2986,-4.2986,-4.2986,-4.2986,-4.2986,-4.2986,-4.2986,-4.2986,-4.2986,-4.2986,-4.2986,-4.2986,-4.2986,-4.2986,-4.2986,-4.2986,-4.2986,-4.2986,-4.2986,-4.2986,-4.3547,-4.4643,-4.4643,-4.5342,-4.6733,-4.7859,-4.9259,-3.3418,-3.3418,-3.3418,-3.3418,-3.3418,-3.3418,0.0,-3.3418,-3.3418,-3.3418,-3.3418,-3.3481,-3.365,-3.5888,-3.6842,-3.432,-3.7544,-3.9814,-3.8402,-3.9756,-4.088,-4.088,-4.215,-4.3162,-4.3664,-4.3765,-4.4217,-4.5221,-4.5422,-4.5698,-4.62,-4.6276,-4.6301,-4.6301,-4.6301,-4.6301,-4.6301,-4.6301,-4.6301,-4.6301,-4.6301,-4.6301,-4.6301,-4.6301,-4.6301,-4.6301,-4.6301,-4.6301,-4.6301,-4.6301,-4.6301,-4.6301,-4.6301,-4.6301,-4.6301,-4.6301,-4.6301,-4.6301,-4.6301,-4.6301,-4.6301,-4.6301,-4.6301,-4.6301,-4.6301,-4.6301,-4.6301,-4.6301,-4.5949,-4.5573,-4.5573,-4.5146,-4.4593,-4.4116,-4.394,-4.374,-4.3187,-4.3062,-4.3062,-4.2986,-4.2986,-4.2986,-4.2986,-4.2986,-4.2986,-4.2986,-4.2986,-4.2986,-4.2986,-4.2986,-4.2986,-4.2986,-4.2986,-4.2986,-4.2986,-4.2986,-4.2986,-4.2986,-4.2986,-4.2986,-4.2986,-4.2986,-4.2986,-4.2986,-4.2986,-4.3073,-4.324,-4.324,-4.3907,-4.5262,-4.5395,-4.6888,-3.3418,-3.3418,-3.3418,-3.3418,-3.3418,-3.3418,-3.3418,-3.3418,-3.3418,-3.3418,-3.3418,-3.3418,-3.3418,-3.4507,-3.5273,-3.486,-3.6456,-3.7903,-3.8164,-3.8757,-3.9285,-3.9584,-4.0222,-4.108,-4.2253,-4.2919,-4.3895,-4.5388,-4.4825,-4.4975,-4.624,-4.6301,-4.6301,-4.6301,-4.6301,-4.6301,-4.6301,-4.6301,-4.6301,-4.6301,-4.6301,-4.6301,-4.6301,-4.6301,-4.6301,-4.6301,-4.6301,-4.6301,-4.6301,-4.6301,-4.6301,-4.6301,-4.6301,-4.6301,-4.6301,-4.6301,-4.6301,-4.6301,-4.6301,-4.6301,-4.6301,-4.6301,-4.6301,-4.625,-4.5924,-4.5824,-4.5773,-4.5422,-4.5171,-4.4995,-4.4995,-4.4568,-4.4091,-4.3865,-4.3564,-4.3263,-4.3037,-4.2986,-4.2986,-4.2986,-4.2986,-4.2986,-4.2986,-4.2986,-4.2986,-4.2986,-4.2986,-4.2986,-4.2986,-4.2986,-4.2986,-4.2986,-4.2986,-4.2986,-4.2986,-4.2986,-4.2986,-4.2986,-4.2986,-4.2986,-4.2986,-4.2986,-4.2986,-4.2986,-4.2986,-4.2986,-4.2986,-4.2986,-4.3295,-4.3852,-4.4643,-4.5608,-3.3418,-3.3418,-3.3418,-3.3418,-3.3418,-3.3418,-3.3418,-3.3418,-3.3418,-3.3418,-3.3418,-3.3418,-3.3418,-3.3776,-3.432,-3.5026,-3.5499,-3.6276,-3.7561,-3.7703,-3.7901,-3.8385,-3.8931,-3.9611,-4.0341,-4.1498,-4.2933,-4.4872,-4.4218,-4.4436,-4.618,-4.6301,-4.6301,-4.6301,-4.6301,-4.6301,-4.6301,-4.6301,-4.6301,-4.6301,-4.6301,-4.6301,-4.6301,-4.6301,-4.6301,-4.6301,-4.6301,-4.6301,-4.6301,-4.6301,-4.6301,-4.6301,-4.6301,-4.6301,-4.6301,-4.6301,-4.6301,-4.6301,-4.6301,-4.6301,-4.6301,-4.6301,-4.6301,-4.62,-4.5648,-4.5497,-4.5372,-4.4794,-4.4518,-4.4392,-4.4392,-4.3991,-4.3564,-4.3564,-4.3263,-4.2986,-4.2986,-4.2986,-4.2986,-4.2986,-4.2986,-4.2986,-4.2986,-4.2986,-4.2986,-4.2986,-4.2986,-4.2986,-4.2986,-4.2986,-4.2986,-4.2986,-4.2986,-4.2986,-4.2986,-4.2986,-4.2986,-4.2986,-4.2986,-4.2986,-4.2986,-4.2986,-4.2986,-4.2986,-4.2986,-4.2986,-4.2986,-4.2986,-4.2986,-4.3042,-4.4016,-4.4643,-3.3418,-3.3418,-3.3418,-3.3418,-3.3418,-3.3418,-3.3418,-3.3418,-3.3418,-3.3418,-3.3418,-3.3418,-3.3418,-3.4674,-3.5211,-3.3713,-3.4798,-3.5974,-3.6457,-3.6519,-3.6687,-3.7086,-3.8951,-3.968,-3.8186,-3.9469,-4.1314,-4.3597,-4.3707,-4.4436,-4.618,-4.6301,-4.6301,-4.6301,-4.6301,-4.6301,-4.6301,-4.6301,-4.6301,-4.6301,-4.6301,-4.6301,-4.6301,-4.6301,-4.6301,-4.6301,-4.6301,-4.6301,-4.6301,-4.6301,-4.6301,-4.6301,-4.6301,-4.6301,-4.6301,-4.6301,-4.6301,-4.6301,-4.6301,-4.6301,-4.6301,-4.6301,-4.6301,-4.62,-4.5648,-4.5497,-4.5372,-4.4794,-4.4242,-4.3815,-4.3815,-4.3413,-4.3011,-4.3011,-4.2986,-4.2986,-4.2986,-4.2986,-4.2986,-4.2986,-4.2986,-4.2986,-4.2986,-4.2986,-4.2986,-4.2986,-4.2986,-4.2986,-4.2986,-4.2986,-4.2986,-4.2986,-4.2986,-4.2986,-4.2986,-4.2986,-4.2986,-4.2986,-4.2986,-4.2986,-4.2986,-4.2986,-4.2986,-4.2986,-4.2986,-4.2986,-4.2986,-4.2986,-4.2986,-4.2986,-4.3042,-4.3742,-3.3418,-3.3418,-3.3418,-3.3418,-3.3418,-3.3418,-3.3418,-3.3418,-3.3418,-3.3418,-3.3418,-3.3418,-3.3418,-3.3839,-3.4107,-3.3936,-3.4338,-3.4796,-3.5236,-3.5296,-3.5476,-3.5936,-3.6623,-3.6958,-3.6683,-3.8169,-4.0403,-4.3458,-4.2643,-4.3294,-4.612,-4.6301,-4.6301,-4.6301,-4.6301,-4.6301,-4.6301,-4.6301,-4.6301,-4.6301,-4.6301,-4.6301,-4.6301,-4.6301,-4.6301,-4.6301,-4.6301,-4.6301,-4.6301,-4.6301,-4.6301,-4.6301,-4.6301,-4.6301,-4.6301,-4.6301,-4.6301,-4.6301,-4.6301,-4.6301,-4.6301,-4.6301,-4.6301,-4.62,-4.5648,-4.5221,-4.4794,-4.4242,-4.3689,-4.3263,-4.3263,-4.3112,-4.2986,-4.2986,-4.2986,-4.2986,-4.2986,-4.2986,-4.2986,-4.2986,-4.2986,-4.2986,-4.2986,-4.2986,-4.2986,-4.2986,-4.2986,-4.2986,-4.2986,-4.2986,-4.2986,-4.2986,-4.2986,-4.2986,-4.2986,-4.2986,-4.2986,-4.2986,-4.2986,-4.2986,-4.2986,-4.2986,-4.2986,-4.2986,-4.2986,-4.2986,-4.2986,-4.2986,-4.2986,-4.2986,-4.2986,-4.324,-3.3418,-3.3418,-3.3418,-3.3418,-3.3418,-3.3418,-3.3418,-3.3418,-3.3418,-3.3418,-3.3535,-3.3652,-3.3652,-3.3769,-3.3965,-3.4258,-3.4297,-3.4453,-3.4883,-3.4941,-3.5117,-3.5566,-3.5605,-3.5723,-3.5996,-3.6991,-3.8861,-4.167,-4.1437,-4.2138,-4.4374,-4.5037,-4.5403,-4.5403,-4.5974,-4.6301,-4.6301,-4.6301,-4.6301,-4.6301,-4.6301,-4.6301,-4.6301,-4.6301,-4.6301,-4.6301,-4.6301,-4.6301,-4.6301,-4.6301,-4.6301,-4.6301,-4.6301,-4.6301,-4.6301,-4.6301,-4.6301,-4.6301,-4.6301,-4.6301,-4.6301,-4.6301,-4.6301,-4.62,-4.5648,-4.507,-4.4518,-4.3966,-4.3413,-4.2986,-4.2986,-4.2986,-4.2986,-4.2986,-4.2986,-4.2986,-4.2986,-4.2986,-4.2986,-4.2986,-4.2986,-4.2986,-4.2986,-4.2986,-4.2986,-4.2986,-4.2986,-4.2986,-4.2986,-4.2986,-4.2986,-4.2986,-4.2986,-4.2986,-4.2986,-4.2986,-4.2986,-4.2986,-4.2986,-4.2986,-4.2986,-4.2986,-4.2986,-4.2986,-4.2986,-4.2986,-4.2986,-4.2986,-4.2986,-4.2986,-4.2986,-4.2986,-3.3418,-3.3418,-3.3418,-3.3418,-3.3418,-3.3418,-3.3418,-3.3418,-3.3437,-3.3457,-3.3789,-3.4082,-3.4101,-3.4434,-3.4707,-3.4726,-3.4726,-3.4902,-3.5351,-3.543,-3.5566,-3.5976,-3.6016,-3.6016,-3.6016,-3.6084,-3.6789,-3.8353,-4.0083,-4.1117,-4.1181,-4.2769,-4.3731,-4.3731,-4.5403,-4.6301,-4.6301,-4.6301,-4.6301,-4.6301,-4.6301,-4.6301,-4.6301,-4.6301,-4.6301,-4.6301,-4.6301,-4.6301,-4.6301,-4.6301,-4.6301,-4.6301,-4.6301,-4.6301,-4.6301,-4.6301,-4.6301,-4.6301,-4.6301,-4.6301,-4.6301,-4.6301,-4.6301,-4.6225,-4.5698,-4.5095,-4.4518,-4.3991,-4.3413,-4.2986,-4.2986,-4.2986,-4.2986,-4.2986,-4.2986,-4.2986,-4.2986,-4.2986,-4.2986,-4.2986,-4.2986,-4.2986,-4.2986,-4.2986,-4.2986,-4.2986,-4.2986,-4.2986,-4.2986,-4.2986,-4.2986,-4.2986,-4.2986,-4.2986,-4.2986,-4.2986,-4.2986,-4.2986,-4.2986,-4.2986,-4.2986,-4.2986,-4.2986,-4.2986,-4.2986,-4.2986,-4.2986,-4.2986,-4.2986,-4.2986,-4.2986,-4.2986,-3.3418,-3.3418,-3.3418,-3.3418,-3.3418,-3.3418,-3.3418,-3.3418,-3.3516,-3.3848,-3.4004,-3.416,-3.4473,-3.4629,-3.4805,-3.5156,-3.5215,-3.5371,-3.5801,-3.5859,-3.5898,-3.6016,-3.6016,-3.6016,-3.6016,-3.7193,-3.7575,-3.6742,-3.8287,-3.9823,-4.1117,-4.2769,-4.3731,-4.3731,-4.5403,-4.6301,-4.6301,-4.6301,-4.6301,-4.6301,-4.6301,-4.6301,-4.6301,-4.6301,-4.6301,-4.6301,-4.6301,-4.6301,-4.6301,-4.6301,-4.6301,-4.6301,-4.6301,-4.6301,-4.6301,-4.6301,-4.6301,-4.6301,-4.6301,-4.6301,-4.6301,-4.6301,-4.6301,-4.6276,-4.615,-4.5422,-4.4593,-4.4443,-4.3714,-4.2986,-4.2986,-4.2986,-4.2986,-4.2986,-4.2986,-4.2986,-4.2986,-4.2986,-4.2986,-4.2986,-4.2986,-4.2986,-4.2986,-4.2986,-4.2986,-4.2986,-4.2986,-4.2986,-4.2986,-4.2986,-4.2986,-4.2986,-4.2986,-4.2986,-4.2986,-4.2986,-4.2986,-4.2986,-4.2986,-4.2986,-4.2986,-4.2986,-4.2986,-4.2986,-4.2986,-4.2986,-4.2986,-4.2986,-4.2986,-4.2986,-4.2986,-4.2986,-3.3418,-3.3418,-3.3418,-3.3418,-3.3418,-3.3418,-3.3418,-3.3574,-3.3769,-3.4023,-3.4375,-3.4726,-3.4961,-3.5156,-3.5371,0.0,0.0,0.0,-3.5996,-3.6016,-3.6016,-3.6016,-3.6016,-3.6016,-3.6016,-3.6856,-3.7059,-3.6084,-3.7642,-3.8663,-3.8927,-4.1223,-4.258,-4.258,-4.5013,-4.6301,-4.6301,-4.6301,-4.6301,-4.6301,-4.6301,-4.6301,-4.6301,-4.6301,-4.6301,-4.6301,-4.6301,-4.6301,-4.6301,-4.6301,-4.6301,-4.6301,-4.6301,-4.6301,-4.6301,-4.6301,-4.6301,-4.6301,-4.6301,-4.6301,-4.6301,-4.6301,-4.6301,-4.6301,-4.6301,-4.5522,-4.4618,-4.4618,-4.384,-4.2986,-4.2986,-4.2986,-4.2986,-4.2986,-4.2986,-4.2986,-4.2986,-4.2986,-4.2986,-4.2986,-4.2986,-4.2986,-4.2986,-4.2986,-4.2986,-4.2986,-4.2986,-4.2986,-4.2986,-4.2986,-4.2986,-4.2986,-4.2986,-4.2986,-4.2986,-4.2986,-4.2986,-4.2986,-4.2986,-4.2986,-4.2986,-4.2986,-4.2986,-4.2986,-4.2986,-4.2986,-4.2986,-4.2986,-4.2986,-4.2986,-4.2986,-4.2986,-3.3418,-3.3418,-3.3418,-3.3418,-3.3418,-3.3437,-3.3496,-3.3809,-3.4101,-3.4219,-3.4863,-3.541,-3.5469,-3.5781,-3.6016,-3.6016,0.0,-3.6016,-3.6016,-3.6016,-3.6016,-3.6016,-3.6016,-3.6016,-3.6016,-3.6016,-3.6016,-3.6016,-3.7374,-3.7575,-3.6084,-3.9125,-4.1052,-4.1501,-4.4374,-4.6059,-4.6301,-4.6301,-4.6301,-4.6301,-4.6301,-4.6301,-4.6301,-4.6301,-4.6301,-4.6301,-4.6301,-4.6301,-4.6301,-4.6301,-4.6301,-4.6301,-4.6301,-4.6301,-4.6301,-4.6301,-4.6301,-4.6301,-4.6301,-4.6301,-4.6301,-4.6301,-4.6301,-4.6301,-4.6225,-4.5472,-4.4618,-4.4543,-4.3765,-4.2986,-4.2986,-4.2986,-4.2986,-4.2986,-4.2986,-4.2986,-4.2986,-4.2986,-4.2986,-4.2986,-4.2986,-4.2986,-4.2986,-4.2986,-4.2986,-4.2986,-4.2986,-4.2986,-4.2986,-4.2986,-4.2986,-4.2986,-4.2986,-4.2986,-4.2986,-4.2986,-4.2986,-4.2986,-4.2986,-4.2986,-4.2986,-4.2986,-4.2986,-4.2986,-4.2986,-4.2986,-4.2986,-4.2986,-4.2986,-4.2986,-4.2986,-4.2986,-3.3418,-3.3418,-3.3418,-3.3418,-3.3418,-3.3516,-3.3887,-3.4023,0.0,-3.5019,-3.5293,-3.5508,-3.584,-3.5976,-3.6016,-3.6016,-3.6016,-3.6016,-3.6016,-3.6016,-3.6016,0.0,-3.6016,-3.6016,-3.6016,-3.6016,-3.6016,-3.6016,-3.6287,-3.6336,-3.6016,-3.7955,-4.0343,-4.3146,-4.3855,-4.4829,-4.6301,-4.6301,-4.6301,-4.6301,-4.6301,-4.6301,-4.6301,-4.6301,-4.6301,-4.6301,-4.6301,-4.6301,-4.6301,-4.6301,-4.6301,-4.6301,-4.6301,-4.6301,-4.6301,-4.6301,-4.6301,-4.6301,-4.6301,-4.6301,-4.6301,-4.6301,-4.6301,-4.6225,-4.5773,-4.5146,-4.4518,-4.4066,-4.3489,-4.2986,-4.2986,-4.2986,-4.2986,-4.2986,-4.2986,-4.2986,-4.2986,-4.2986,-4.2986,-4.2986,-4.2986,-4.2986,-4.2986,-4.2986,-4.2986,-4.2986,-4.2986,-4.2986,-4.2986,-4.2986,-4.2986,-4.2986,-4.2986,-4.2986,-4.2986,-4.2986,-4.2986,-4.2986,-4.2986,-4.2986,-4.2986,-4.2986,-4.2986,-4.2986,-4.2986,-4.2986,-4.2986,-4.2986,-4.2986,-4.2986,-4.2986,-4.2986,-3.3418,-3.3418,-3.3418,-3.3418,-3.3594,-3.3809,-3.4023,0.0,0.0,0.0,-3.5566,-3.5781,-3.5976,-3.6016,0.0,-3.6016,-3.6016,-3.6016,-3.6016,-3.6016,-3.6016,-3.6016,-3.6016,-3.6016,-3.6016,-3.6016,-3.6016,-3.6016,-3.6016,-3.6016,-3.6016,-3.7642,-3.9758,-4.2328,-4.3208,-4.4103,-4.4951,-4.5853,-4.6301,-4.6301,-4.6301,-4.6301,-4.6301,-4.6301,-4.6301,-4.6301,-4.6301,-4.6301,-4.6301,-4.6301,-4.6301,-4.6301,-4.6301,-4.6301,-4.6301,-4.6301,-4.6301,-4.6301,-4.6301,-4.6301,-4.6301,-4.6301,-4.6125,-4.5824,-4.5573,-4.4869,-4.4141,-4.3865,-4.3413,-4.2986,-4.2986,-4.2986,-4.2986,-4.2986,-4.2986,-4.2986,-4.2986,-4.2986,-4.2986,-4.2986,-4.2986,-4.2986,-4.2986,-4.2986,-4.2986,-4.2986,-4.2986,-4.2986,-4.2986,-4.2986,-4.2986,-4.2986,-4.2986,-4.2986,-4.2986,-4.2986,-4.2986,-4.2986,-4.2986,-4.2986,-4.2986,-4.2986,-4.2986,-4.2986,-4.2986,-4.2986,-4.2986,-4.2986,-4.2986,-4.2986,-4.2986,-4.2986,-3.3418,-3.3496,-3.3555,-3.3555,-3.3887,-3.4238,-3.4336,-3.4902,0.0,-3.5508,-3.5801,-3.6016,-3.6016,-3.6016,-3.6016,0.0,-3.6016,-3.6016,-3.6016,-3.6016,-3.6016,0.0,-3.6016,0.0,-3.6016,-3.6016,-3.6016,-3.6016,-3.6016,-3.6016,-3.6016,-3.7307,-3.8861,-4.0602,-4.2264,-4.3333,-4.3731,-4.5403,-4.6301,-4.6301,-4.6301,-4.6301,-4.6301,-4.6301,-4.6301,-4.6301,-4.6301,-4.6301,-4.6301,-4.6301,-4.6301,-4.6301,-4.6301,-4.6301,-4.6301,-4.6301,-4.6301,-4.6301,-4.6301,-4.6301,-4.6301,-4.6175,-4.5849,-4.5472,-4.5347,-4.4593,-4.379,-4.3664,-4.3313,-4.2986,-4.2986,-4.2986,-4.2986,-4.2986,-4.2986,-4.2986,-4.2986,-4.2986,-4.2986,-4.2986,-4.2986,-4.2986,-4.2986,-4.2986,-4.2986,-4.2986,-4.2986,-4.2986,-4.2986,-4.2986,-4.2986,-4.2986,-4.2986,-4.2986,-4.2986,-4.2986,-4.2986,-4.2986,-4.2986,-4.2986,-4.2986,-4.2986,-4.2986,-4.2986,-4.2986,-4.2986,-4.2986,-4.2986,-4.2986,-4.2986,-4.2986,-4.2986,-3.3418,-3.3711,-3.4023,-3.4023,-3.4336,-3.4746,-3.5176,0.0,-3.5508,-3.5879,-3.5996,-3.6016,-3.6016,-3.6016,-3.6016,-3.6016,0.0,-3.6016,-3.6016,-3.6016,-3.6016,-3.6016,0.0,0.0,-3.6016,-3.6016,-3.6016,-3.6016,-3.6016,-3.6016,-3.6016,-3.6152,-3.7059,-3.8795,-4.0537,-4.2138,-4.3669,-4.5403,-4.6301,-4.6301,-4.6301,-4.6301,-4.6301,-4.6301,-4.6301,-4.6301,-4.6301,-4.6301,-4.6301,-4.6301,-4.6301,-4.6301,-4.6301,-4.6301,-4.6301,-4.6301,-4.6301,-4.6301,-4.6301,-4.6301,-4.6225,-4.5723,-4.5522,-4.5397,-4.4869,-4.4292,-4.3689,-4.3187,-4.3011,-4.2986,-4.2986,-4.2986,-4.2986,-4.2986,-4.2986,-4.2986,-4.2986,-4.2986,-4.2986,-4.2986,-4.2986,-4.2986,-4.2986,-4.2986,-4.2986,-4.2986,-4.2986,-4.2986,-4.2986,-4.2986,-4.2986,-4.2986,-4.2986,-4.2986,-4.2986,-4.2986,-4.2986,-4.2986,-4.2986,-4.2986,-4.2986,-4.2986,-4.2986,-4.2986,-4.2986,-4.2986,-4.2986,-4.2986,-4.2986,-4.2986,-4.2986,-4.2986,-3.3809,-3.4121,-3.4453,-3.4453,-3.4785,-3.5176,-3.5351,0.0,-3.582,-3.5996,-3.6016,-3.6016,-3.6016,-3.6016,-3.6016,0.0,0.0,0.0,-3.6016,-3.6016,-3.6016,-3.6016,-3.6016,-3.6016,0.0,-3.6016,-3.6016,-3.6016,-3.6016,-3.6016,-3.6016,-3.6016,-3.6336,-3.6991,-3.8729,-4.0472,-4.2201,-4.3855,-4.5281,-4.6301,-4.6301,-4.6301,-4.6301,-4.6301,-4.6301,-4.6301,-4.6301,-4.6301,-4.6301,-4.6301,-4.6301,-4.6301,-4.6301,-4.6301,-4.6301,-4.6301,-4.6301,-4.6301,-4.6301,-4.61,-4.5773,-4.5573,-4.502,-4.4443,-4.4192,-4.374,-4.3263,-4.3037,-4.2986,-4.2986,-4.2986,-4.2986,-4.2986,-4.2986,-4.2986,-4.2986,-4.2986,-4.2986,-4.2986,-4.2986,-4.2986,-4.2986,-4.2986,-4.2986,-4.2986,-4.2986,-4.2986,-4.2986,-4.2986,-4.2986,-4.2986,-4.2986,-4.2986,-4.2986,-4.2986,-4.2986,-4.2986,-4.2986,-4.2986,-4.2986,-4.2986,-4.2986,-4.2986,-4.2986,-4.2986,-4.2986,-4.2986,-4.2986,-4.2986,-4.2986,-4.2986,-4.2986,-3.4258,-3.457,-3.4902,-3.4902,-3.5234,-3.5586,0.0,0.0,-3.6016,-3.6016,-3.6016,-3.6016,-3.6016,-3.6016,-3.6016,0.0,0.0,-3.6016,-3.6016,-3.6016,-3.6016,0.0,0.0,-3.6016,-3.6016,-3.6016,-3.6016,-3.6016,-3.6016,-3.6016,-3.6016,-3.6016,-3.6016,-3.6016,-3.7709,-3.919,-4.0408,-4.2138,-4.3606,-4.4767,-4.5281,-4.5525,-4.5525,-4.6059,-4.6301,-4.6301,-4.6301,-4.6301,-4.6301,-4.6301,-4.6301,-4.6301,-4.6301,-4.6301,-4.6301,-4.6301,-4.62,-4.6075,-4.6075,-4.5698,-4.5196,-4.5045,-4.4443,-4.3765,-4.3614,-4.3288,-4.2986,-4.2986,-4.2986,-4.2986,-4.2986,-4.2986,-4.2986,-4.2986,-4.2986,-4.2986,-4.2986,-4.2986,-4.2986,-4.2986,-4.2986,-4.2986,-4.2986,-4.2986,-4.2986,-4.2986,-4.2986,-4.2986,-4.2986,-4.2986,-4.2986,-4.2986,-4.2986,-4.2986,-4.2986,-4.2986,-4.2986,-4.2986,-4.2986,-4.2986,-4.2986,-4.2986,-4.2986,-4.2986,-4.2986,-4.2986,-4.2986,-4.2986,-4.2986,-4.2986,-4.2986,-4.2986,-3.4687,-3.5039,-3.5391,-3.5391,-3.5703,-3.6016,0.0,0.0,-3.6016,-3.6016,-3.6016,-3.6016,-3.6016,-3.6016,-3.6016,-3.6016,0.0,0.0,-3.6016,-3.6016,-3.6016,0.0,0.0,-3.6016,-3.6016,-3.6016,-3.6016,-3.6016,-3.6016,-3.6016,-3.6016,-3.6016,-3.6016,-3.6016,-3.7709,-3.8597,-3.8597,-4.0343,-4.1245,-4.1245,-4.2958,-4.3731,-4.3793,-4.5525,-4.6301,-4.6301,-4.6301,-4.6301,-4.6301,-4.6301,-4.6301,-4.6301,-4.6301,-4.6301,-4.6301,-4.6301,-4.5974,-4.5497,-4.5497,-4.5121,-4.4543,-4.3991,-4.3815,-4.3689,-4.3162,-4.2986,-4.2986,-4.2986,-4.2986,-4.2986,-4.2986,-4.2986,-4.2986,-4.2986,-4.2986,-4.2986,-4.2986,-4.2986,-4.2986,-4.2986,-4.2986,-4.2986,-4.2986,-4.2986,-4.2986,-4.2986,-4.2986,-4.2986,-4.2986,-4.2986,-4.2986,-4.2986,-4.2986,-4.2986,-4.2986,-4.2986,-4.2986,-4.2986,-4.2986,-4.2986,-4.2986,-4.2986,-4.2986,-4.2986,-4.2986,-4.2986,-4.2986,-4.2986,-4.2986,-4.2986,-4.2986,-4.2986,-3.5176,-3.5488,-3.582,-3.582,-3.5918,-3.6016,-3.6016,0.0,-3.6016,-3.6016,-3.6016,-3.6016,-3.6016,-3.6016,-3.6016,-3.6016,0.0,0.0,0.0,0.0,0.0,-3.6016,-3.6016,-3.6016,-3.6016,-3.6016,-3.6016,-3.6016,-3.6016,-3.6016,-3.6016,-3.6016,-3.6016,-3.6016,-3.6539,-3.7374,-3.8597,-3.9125,-4.0018,-4.1181,-4.1756,-4.258,-4.3669,-4.3107,-4.3419,-4.4436,-4.3294,-4.2769,-4.2769,-4.2769,-4.2769,-4.2769,-4.2769,-4.2769,-4.2809,-4.2436,-4.2203,-4.2017,-4.1789,-4.1261,-4.0735,-4.0572,-4.0292,-3.9907,-3.9744,-4.1248,-4.2986,-4.2986,-4.2986,-4.2986,-4.2986,-4.2986,-4.2986,-4.2986,-4.2986,-4.2986,-4.2986,-4.2986,-4.2986,-4.2986,-4.2986,-4.2986,-4.2986,-4.2986,-4.2986,-4.2986,-4.2986,-4.2986,-4.2986,-4.2986,-4.2986,-4.2986,-4.2986,-4.2986,-4.2986,-4.2986,-4.2986,-4.2986,-4.2986,-4.2986,-4.2986,-4.2986,-4.2986,-4.2986,-4.2986,-4.2986,-4.2986,-4.2986,-4.2986,-4.2986,-4.2986,-4.2986,0.0,-3.582,-3.6016,-3.6016,-3.6016,0.0,0.0,-3.6016,-3.6016,-3.6016,-3.6016,-3.6016,-3.6016,-3.6016,-3.6016,-3.6016,-3.6016,0.0,0.0,0.0,0.0,-3.6016,-3.6016,-3.6016,-3.6016,-3.6016,-3.6016,-3.6016,-3.6016,-3.6016,-3.6016,-3.6016,-3.6016,-3.6016,-3.6016,-3.6539,-3.7642,-3.7642,-3.8154,-3.9256,-3.9888,-4.0795,-4.1734,-4.1373,-4.1756,-4.2706,-4.1629,-4.1181,0.0,-4.1181,-4.1181,-4.1158,-4.1043,-4.0953,-4.0908,-4.0455,-4.0163,-3.9899,-3.9623,-3.9196,-3.8672,-3.8672,-3.847,-3.8223,-3.8223,-3.9581,-4.1191,-4.1191,-4.1615,-4.2069,-4.2069,-4.2544,-4.2986,-4.2986,-4.2986,-4.2986,-4.2986,-4.2488,-4.2263,-4.2849,-4.2513,-4.2319,-4.2905,-4.2986,-4.2986,-4.2986,-4.2986,-4.2986,-4.2986,-4.2986,-4.2986,-4.2986,-4.2986,-4.2986,-4.2986,-4.2986,-4.2986,-4.2986,-4.2986,-4.2986,-4.2986,-4.2986,-4.2986,-4.2986,-4.2986,-4.2986,-4.2986,-4.2986,-4.2986,-4.2986,-4.2986,-4.2986,0.0,0.0,0.0,0.0,0.0,0.0,0.0,-3.6016,0.0,-3.6016,-3.6016,-3.6016,-3.6016,-3.6016,-3.6016,-3.6016,-3.6016,0.0,0.0,-3.6016,0.0,0.0,-3.6016,-3.6016,-3.6016,-3.6016,-3.6016,-3.6016,-3.6016,-3.6016,-3.6016,-3.6016,-3.6016,-3.6016,-3.6016,-3.6016,-3.6016,-3.6016,-3.6016,-3.6016,-3.7642,-3.8465,-3.8663,-4.0148,-4.0924,-4.0988,-4.086,-4.086,-4.086,-4.0815,-4.0815,-4.0748,-4.0259,-4.0059,-4.0056,-3.9628,-3.916,-3.8636,-3.8614,-3.8303,-3.7865,-3.7865,-3.7865,-3.7865,-3.7865,-3.8045,-3.8223,-3.8223,-3.9288,-4.0419,-4.0419,-4.1558,-4.2681,-4.2681,-4.2681,-4.2681,-4.2681,-4.1533,-4.1019,-4.2569,-4.1728,-4.1248,-4.2737,-4.2986,-4.2986,-4.2986,-4.2986,-4.2986,-4.2986,-4.2986,-4.2986,-4.2986,-4.2986,-4.2986,-4.2986,-4.2986,-4.2986,-4.2986,-4.2986,-4.2986,-4.2986,-4.2986,-4.2986,-4.2986,-4.2986,-4.2986,-4.2986,-4.2986,-4.2986,-4.2986,-4.2986,-4.2986,-3.6016,0.0,-3.6016,-3.6016,-3.6016,-3.6016,0.0,0.0,-3.6016,-3.6016,-3.6016,-3.6016,-3.6016,-3.6016,-3.6016,-3.6016,0.0,-3.6016,-3.6016,-3.6016,-3.6016,-3.6016,-3.6016,-3.6016,-3.6016,-3.6016,-3.6016,-3.6016,-3.6016,-3.6016,-3.6016,-3.6016,-3.6016,-3.6016,-3.6016,-3.6016,-3.6016,-3.6016,-3.6016,-3.6016,-3.6403,-3.7307,-3.8531,-3.7642,-3.7955,-3.9125,-3.7822,-3.724,-3.722,-3.6896,-3.6754,-3.6714,-3.6229,-3.6046,-3.5986,-3.5605,-3.5382,-3.5177,-3.4833,-3.4651,-3.4507,-3.4507,-3.4507,-3.4507,-3.4507,-3.6234,-3.8223,-3.8223,-3.8461,-3.8757,-3.8757,-3.9053,-3.9347,-3.9347,-3.9347,-3.9347,-3.9347,-4.0012,-4.0707,-4.1076,-4.1842,-4.2569,-4.2905,-4.2986,-4.2986,-4.2986,-4.2986,-4.2986,-4.2986,-4.2986,-4.2986,-4.2986,-4.2986,-4.2986,-4.2986,-4.2986,-4.2986,-4.2986,-4.2986,-4.2986,-4.2986,-4.2986,-4.2986,-4.2986,-4.2986,-4.2986,-4.2986,-4.2986,-4.2986,-4.2986,-4.2986,-4.2986,-3.6016,-3.6016,-3.6016,-3.6016,-3.6016,-3.6016,0.0,0.0,0.0,0.0,0.0,0.0,-3.6016,-3.6016,-3.6016,-3.6016,-3.6016,0.0,0.0,0.0,-3.6016,-3.6016,-3.6016,-3.6016,-3.6016,-3.6016,-3.6016,-3.6016,-3.6016,-3.6016,-3.6016,-3.6016,-3.6016,-3.6016,-3.6016,-3.6016,-3.6016,-3.6016,-3.6016,-3.6016,-3.6016,-3.6471,-3.7374,-3.6403,-3.6539,-3.7374,-3.6206,-3.5742,-3.5703,-3.5254,-3.5078,-3.5039,-3.459,-3.4414,-3.4355,-3.3926,-3.3769,-3.375,-3.3496,-3.3418,-3.3418,-3.3418,-3.3418,-3.3418,-3.3418,-3.4632,-3.6011,-3.6011,-3.6539,-3.7062,-3.7062,-3.7686,-3.8223,-3.8223,-3.8223,-3.8223,-3.8223,-3.832,-3.8616,-3.9347,-4.0187,-4.1019,-4.1785,-4.2513,-4.2986,-4.2986,-4.2986,-4.2986,-4.2986,-4.2986,-4.2986,-4.2986,-4.2986,-4.2986,-4.2986,-4.2986,-4.2986,-4.2986,-4.2986,-4.2986,-4.2986,-4.2986,-4.2986,-4.2986,-4.2986,-4.2986,-4.2986,-4.2986,-4.2986,-4.2986,-4.2986,-4.2986,-3.6016,-3.6016,-3.6016,-3.6016,-3.6016,-3.6016,0.0,0.0,0.0,0.0,0.0,0.0,0.0,-3.6016,-3.6016,-3.6016,-3.6016,-3.6016,-3.6016,-3.6016,-3.6016,-3.6016,-3.6016,-3.6016,-3.6016,-3.6016,-3.6016,-3.6016,-3.6016,-3.6016,-3.6016,-3.6016,-3.6016,-3.6016,-3.6016,-3.6016,-3.6016,-3.6016,-3.6016,-3.6016,-3.6016,-3.5996,-3.5918,-3.5918,-3.5879,-3.5801,-3.5449,-3.5293,-3.5254,-3.4785,-3.4609,-3.457,-3.4141,-3.3965,-3.3926,-3.3555,-3.3418,-3.3418,-3.3418,-3.3418,-3.3418,-3.3418,-3.3418,-3.3418,-3.3418,-3.3418,-3.3418,-3.3418,-3.4363,-3.5437,-3.5437,-3.6478,-3.7445,-3.7445,-3.7445,-3.7445,-3.7445,-3.6599,-3.6234,-3.7566,-3.8045,-3.8698,-4.0303,-4.1728,-4.2737,-4.2986,-4.2986,-4.2986,-4.2986,-4.2986,-4.2986,-4.2986,-4.2986,-4.2986,-4.2986,-4.2986,-4.2986,-4.2986,-4.2986,-4.2986,-4.2986,-4.2986,-4.2986,-4.2986,-4.2986,-4.2986,-4.2986,-4.2986,-4.2986,-4.2986,-4.2986,-4.2986,-3.6016,-3.6016,-3.6016,-3.6016,-3.6016,-3.6016,-3.6016,0.0,0.0,0.0,0.0,0.0,0.0,-3.6016,-3.6016,-3.6016,-3.6016,-3.6016,-3.6016,-3.6016,-3.6016,-3.6016,-3.6016,-3.6016,-3.6016,-3.6016,-3.6016,-3.6016,-3.6016,-3.6016,-3.6016,-3.6016,-3.6016,-3.6016,-3.6016,-3.6016,-3.6016,-3.6016,-3.6016,-3.6016,-3.6016,-3.584,-3.5488,-3.5488,-3.5273,-3.4902,-3.4824,-3.4805,-3.4766,-3.4336,-3.416,-3.4121,-3.3691,-3.3516,-3.3516,-3.3437,-3.3418,-3.3418,-3.3418,-3.3418,-3.3418,-3.3418,-3.3418,-3.3418,-3.3418,-3.3418,-3.3418,-3.3418,-3.3607,-3.3776,-3.3776,-3.3965,-3.4133,-3.4133,-3.4133,-3.4133,-3.4133,-3.5026,-3.5867,-3.6112,-3.7243,-3.8698,-4.0303,-4.0822,-4.1419,-4.2793,-4.2986,-4.2986,-4.2986,-4.2986,-4.2986,-4.2986,-4.2986,-4.2986,-4.2986,-4.2986,-4.2986,-4.2986,-4.2986,-4.2986,-4.2986,-4.2986,-4.2986,-4.2986,-4.2986,-4.2986,-4.2986,-4.2986,-4.2986,-4.2986,-4.2986,-4.2986,-3.6016,-3.6016,-3.6016,-3.6016,-3.6016,-3.6016,-3.6016,0.0,0.0,0.0,0.0,0.0,0.0,0.0,-3.6016,-3.6016,-3.6016,-3.6016,-3.6016,-3.6016,-3.6016,-3.6016,-3.6016,-3.6016,-3.6016,-3.6016,-3.6016,-3.6016,-3.6016,-3.6016,-3.6016,-3.6016,-3.6016,-3.6016,-3.6016,-3.5918,-3.5684,-3.5684,-3.5684,-3.5684,-3.5684,-3.5449,-3.5019,-3.5019,-3.4902,-3.4687,-3.4453,-3.4355,-3.4336,-3.3906,-3.373,-3.3691,-3.3496,-3.3418,-3.3418,-3.3418,-3.3418,-3.3418,-3.3418,-3.3418,-3.3418,-3.3418,-3.3418,-3.3418,-3.3418,-3.3418,-3.3418,-3.3418,-3.3418,-3.3418,-3.3418,-3.3418,-3.3418,-3.3418,-3.3418,-3.3418,-3.3418,-3.3965,-3.4487,-3.4487,-3.5806,-3.7424,-3.9053,-3.9989,-4.1133,-4.2737,-4.2986,-4.2986,-4.2986,-4.2986,-4.2986,-4.2986,-4.2986,-4.2986,-4.2986,-4.2986,-4.2986,-4.2986,-4.2986,-4.2986,-4.2986,-4.2986,-4.2986,-4.2986,-4.2986,-4.2986,-4.2986,-4.2986,-4.2986,-4.2986,-4.2986,-4.2986,-3.6016,-3.6016,-3.6016,-3.6016,0.0,0.0,-3.6016,-3.6016,-3.6016,0.0,0.0,0.0,0.0,-3.6016,-3.6016,-3.6016,-3.6016,-3.6016,-3.6016,-3.6016,-3.6016,-3.6016,-3.6016,-3.6016,-3.6016,-3.6016,-3.6016,-3.6016,-3.6016,-3.6016,-3.6016,-3.6016,-3.6016,-3.6016,-3.6016,-3.582,-3.5391,-3.5391,-3.5332,-3.5234,-3.5234,-3.5,-3.4551,-3.4551,-3.4492,-3.4375,-3.4062,-3.3926,-3.3887,-3.3555,-3.3418,-3.3418,-3.3418,-3.3418,-3.3418,-3.3418,-3.3418,-3.3418,-3.3418,-3.3418,-3.3418,-3.3418,-3.3418,-3.3418,-3.3418,-3.3418,-3.3418,-3.3418,-3.3418,-3.3418,-3.3418,-3.3418,-3.3418,-3.3418,-3.3418,-3.3418,-3.3418,-3.3418,-3.3418,-3.3418,-3.4383,-3.5745,-3.7385,-3.8676,-4.0163,-4.215,-4.2432,-4.2569,-4.2961,-4.2986,-4.2986,-4.2986,-4.2986,-4.2986,-4.2986,-4.2986,-4.2986,-4.2986,-4.2986,-4.2986,-4.2986,-4.2986,-4.2986,-4.2986,-4.2986,-4.2986,-4.2986,-4.2986,-4.2986,-4.2986,-4.2986,-4.2986,-3.6016,-3.6016,-3.6016,-3.6016,-3.6016,0.0,-3.6016,-3.6016,-3.6016,-3.6016,-3.6016,-3.6016,-3.6016,-3.6016,-3.6016,-3.6016,-3.6016,-3.6016,-3.6016,-3.6016,-3.6016,-3.6016,-3.6016,-3.6016,-3.6016,-3.6016,-3.6016,-3.6016,-3.6016,-3.6016,-3.6016,-3.6016,-3.6016,-3.6016,-3.6016,-3.582,-3.5391,-3.5391,-3.5176,-3.4746,-3.4746,-3.4531,-3.4121,-3.4121,-3.3906,-3.3516,-3.3476,-3.3476,-3.3476,-3.3437,-3.3418,-3.3418,-3.3418,-3.3418,-3.3418,-3.3418,-3.3418,-3.3418,-3.3418,-3.3418,-3.3418,-3.3418,-3.3418,-3.3418,-3.3418,-3.3418,-3.3418,-3.3418,-3.3418,-3.3418,-3.3418,-3.3418,-3.3418,-3.3418,-3.3418,-3.3418,-3.3418,-3.3418,-3.3418,-3.3418,-3.3481,-3.407,-3.5683,-3.6051,-3.7183,-4.0303,-4.0765,-4.1305,-4.2793,-4.2986,-4.2986,-4.2986,-4.2986,-4.2986,-4.2986,-4.2986,-4.2986,-4.2986,-4.2986,-4.2986,-4.2986,-4.2986,-4.2986,-4.2986,-4.2986,-4.2986,-4.2986,-4.2986,-4.2986,-4.2986,-4.2986,-4.2986,-3.6016,-3.6016,-3.6016,-3.6016,-3.6016,0.0,0.0,-3.6016,-3.6016,-3.6016,-3.6016,-3.6016,-3.6016,-3.6016,-3.6016,-3.6016,-3.6016,-3.6016,-3.6016,-3.6016,-3.6016,-3.6016,-3.6016,-3.6016,-3.6016,-3.6016,-3.6016,-3.6016,-3.6016,-3.6016,-3.6016,-3.6016,-3.6016,-3.6016,-3.5762,-3.541,-3.4961,-3.4707,-3.4355,-3.3906,-3.418,-3.4082,-3.3672,-3.3672,-3.3574,-3.3418,-3.3418,-3.3418,-3.3418,-3.3418,-3.3418,-3.3418,-3.3418,-3.3418,-3.3418,-3.3418,-3.3418,-3.3418,-3.3418,-3.3418,-3.3418,-3.3418,-3.3418,-3.3418,-3.3418,-3.3418,-3.3418,-3.3418,-3.3418,-3.3418,-3.3418,-3.3418,-3.3418,-3.3418,-3.3418,-3.3418,-3.3418,-3.3418,-3.3418,-3.3418,-3.3418,-3.3902,-3.5499,-3.5806,-3.6517,-3.8757,-3.9111,-3.9698,-4.1305,-4.1501,-4.1899,-4.2905,-4.2986,-4.2986,-4.2986,-4.2986,-4.2986,-4.2986,-4.2986,-4.2986,-4.2986,-4.2986,-4.2986,-4.2986,-4.2986,-4.2986,-4.2986,-4.2986,-4.2986,-4.2986,-4.2986,-4.2986,-3.6016,-3.6016,-3.6016,-3.6016,0.0,0.0,-3.6016,-3.6016,-3.6016,-3.6016,-3.6016,-3.6016,-3.6016,-3.6016,-3.6016,-3.6016,-3.6016,-3.6016,-3.6016,-3.6016,-3.6016,-3.6016,-3.6016,-3.6016,-3.6016,-3.6016,-3.6016,-3.6016,-3.6016,-3.6016,-3.6016,-3.6016,-3.6016,-3.6016,-3.5605,-3.5176,-3.4707,-3.4277,-3.3848,-3.3418,-3.373,-3.3711,-3.3418,-3.3418,-3.3418,-3.3418,-3.3418,-3.3418,-3.3418,-3.3418,-3.3418,-3.3418,-3.3418,-3.3418,-3.3418,-3.3418,-3.3418,-3.3418,-3.3418,-3.3418,-3.3418,-3.3418,-3.3418,-3.3418,-3.3418,-3.3418,-3.3418,-3.3418,-3.3418,-3.3418,-3.3418,-3.3418,-3.3418,-3.3418,-3.3418,-3.3418,-3.3418,-3.3418,-3.3418,-3.3418,-3.3418,-3.3776,-3.484,-3.5026,-3.5581,-3.7205,-3.7445,-3.8022,-3.9639,-4.0303,-4.1248,-4.2849,-4.2986,-4.2986,-4.2986,-4.2986,-4.2986,-4.2986,-4.2986,-4.2986,-4.2986,-4.2986,-4.2986,-4.2986,-4.2986,-4.2986,-4.2986,-4.2986,-4.2986,-4.2986,-4.2986,-4.2986,-3.6016,-3.6016,-3.6016,-3.6016,0.0,0.0,-3.6016,-3.6016,-3.6016,-3.6016,-3.6016,-3.6016,-3.6016,-3.6016,-3.6016,-3.6016,-3.6016,-3.6016,-3.6016,-3.6016,-3.6016,-3.6016,-3.6016,-3.6016,-3.6016,-3.6016,-3.6016,-3.6016,-3.6016,-3.6016,-3.6016,-3.6016,-3.6016,-3.6016,-3.5605,-3.5176,-3.4707,-3.4277,-3.3848,-3.3418,-3.3418,-3.3418,-3.3418,-3.3418,-3.3418,-3.3418,-3.3418,-3.3418,-3.3418,-3.3418,-3.3418,-3.3418,-3.3418,-3.3418,-3.3418,-3.3418,-3.3418,-3.3418,-3.3418,-3.3418,-3.3418,-3.3418,-3.3418,-3.3418,-3.3418,-3.3418,-3.3418,-3.3418,-3.3418,-3.3418,-3.3418,-3.3418,-3.3418,-3.3418,-3.3418,-3.3418,-3.3418,-3.3418,-3.3418,-3.3418,-3.3418,-3.3418,-3.3418,-3.3418,-3.3965,-3.556,-3.5806,-3.6356,-3.7985,-3.9581,-4.1191,-4.2793,-4.2986,-4.2986,-4.2986,-4.2986,-4.2986,-4.2986,-4.2986,-4.2986,-4.2986,-4.2986,-4.2986,-4.2986,-4.2986,-4.2986,-4.2986,-4.2986,-4.2986,-4.2986,-4.2986,-4.2986,-3.6016,-3.6016,0.0,-3.6016,0.0,0.0,0.0,-3.6016,0.0,0.0,-3.6016,-3.6016,-3.6016,-3.6016,-3.6016,-3.6016,-3.6016,-3.6016,-3.6016,-3.6016,-3.6016,-3.6016,-3.6016,-3.6016,-3.6016,-3.6016,-3.6016,-3.6016,-3.6016,-3.6016,-3.6016,-3.6016,-3.6016,-3.6016,-3.5293,-3.4844,-3.4707,-3.3984,-3.3555,-3.3418,-3.3418,-3.3418,-3.3418,-3.3418,-3.3418,-3.3418,-3.3418,-3.3418,-3.3418,-3.3418,-3.3418,-3.3418,-3.3418,-3.3418,-3.3418,-3.3418,-3.3418,-3.3418,-3.3418,-3.3418,-3.3418,-3.3418,-3.3418,-3.3418,-3.3418,-3.3418,-3.3418,-3.3418,-3.3418,-3.3418,-3.3418,-3.3418,-3.3418,-3.3418,-3.3418,-3.3418,-3.3418,-3.3418,-3.3418,-3.3418,-3.3418,-3.3418,-3.3418,-3.3418,-3.3544,-3.4027,-3.4133,-3.4674,-3.6295,-3.8912,-4.0765,-4.1248,-4.2319,-4.2986,-4.2986,-4.2986,-4.2986,-4.2986,-4.2986,-4.2986,-4.2986,-4.2986,-4.2986,-4.2986,-4.2986,-4.2986,-4.2986,-4.2986,-4.2986,-4.2986,-4.2986,-4.2986,-3.6016,-3.6016,0.0,-3.6016,-3.6016,-3.6016,-3.6016,0.0,-3.6016,-3.6016,-3.6016,-3.6016,-3.6016,-3.6016,-3.6016,-3.6016,-3.6016,-3.6016,-3.6016,-3.6016,-3.6016,-3.6016,-3.6016,-3.6016,-3.6016,-3.6016,-3.6016,-3.6016,-3.6016,-3.6016,-3.6016,-3.6016,-3.5937,-3.5781,-3.5078,-3.4609,-3.4453,-3.3769,-3.3418,-3.3418,-3.3418,-3.3418,-3.3418,-3.3418,-3.3418,-3.3418,-3.3418,-3.3418,-3.3418,-3.3418,-3.3418,-3.3418,-3.3418,-3.3418,-3.3418,-3.3418,-3.3418,-3.3418,-3.3418,-3.3418,-3.3418,-3.3418,-3.3418,-3.3418,-3.3418,-3.3418,-3.3418,-3.3418,-3.3418,-3.3418,-3.3418,-3.3418,-3.3418,-3.3418,-3.3418,-3.3418,-3.3418,-3.3418,-3.3418,-3.3418,-3.3418,-3.3418,-3.3418,-3.3418,-3.3418,-3.3418,-3.3418,-3.3965,-3.556,-3.8022,-3.9873,-4.0534,-4.2012,-4.2986,-4.2986,-4.2986,-4.2986,-4.2986,-4.2986,-4.2986,-4.2986,-4.2986,-4.2986,-4.2986,-4.2986,-4.2986,-4.2986,-4.2986,-4.2986,-4.2986,-4.2986,-4.2986,-3.6016,0.0,0.0,-3.6016,-3.6016,0.0,-3.6016,-3.6016,-3.6016,-3.6016,-3.6016,-3.6016,-3.6016,-3.6016,-3.6016,-3.6016,-3.6016,-3.6016,-3.6016,-3.6016,-3.6016,-3.6016,-3.6016,-3.6016,-3.6016,-3.6016,-3.6016,-3.6016,-3.6016,-3.6016,-3.6016,-3.6016,-3.582,-3.541,-3.4941,-3.4492,-3.4082,-3.3633,-3.3418,-3.3418,-3.3418,-3.3418,-3.3418,-3.3418,-3.3418,-3.3418,-3.3418,-3.3418,-3.3418,-3.3418,-3.3418,-3.3418,-3.3418,-3.3418,-3.3418,-3.3418,-3.3418,-3.3418,-3.3418,-3.3418,-3.3418,-3.3418,-3.3418,-3.3418,-3.3418,-3.3418,-3.3418,-3.3418,-3.3418,-3.3418,-3.3418,-3.3418,-3.3418,-3.3418,-3.3418,-3.3418,-3.3418,-3.3418,-3.3418,-3.3418,-3.3418,-3.3418,-3.3418,-3.3418,-3.3418,-3.3418,-3.3418,-3.3965,-3.556,-3.7183,-3.8817,-4.0419,-4.2012,-4.2986,-4.2986,-4.2986,-4.2986,-4.2986,-4.2986,-4.2986,-4.2986,-4.2986,-4.2986,-4.2986,-4.2986,-4.2986,-4.2986,-4.2986,-4.2986,-4.2986,-4.2986,-4.2986,0.0,-3.6016,0.0,0.0,-3.6016,-3.6016,-3.6016,-3.6016,-3.6016,-3.6016,-3.6016,-3.6016,-3.6016,-3.6016,-3.6016,-3.6016,-3.6016,-3.6016,-3.6016,-3.6016,-3.6016,-3.6016,-3.6016,-3.6016,-3.6016,-3.6016,-3.6016,-3.6016,-3.6016,-3.6016,-3.6016,-3.6016,-3.582,-3.541,-3.4941,-3.4492,-3.4082,-3.3633,-3.3418,-3.3418,-3.3418,-3.3418,-3.3418,-3.3418,-3.3418,-3.3418,-3.3418,-3.3418,-3.3418,-3.3418,-3.3418,-3.3418,-3.3418,-3.3418,-3.3418,-3.3418,-3.3418,-3.3418,-3.3418,-3.3418,-3.3418,-3.3418,-3.3418,-3.3418,-3.3418,-3.3418,-3.3418,-3.3418,-3.3418,-3.3418,-3.3418,-3.3418,-3.3418,-3.3418,-3.3418,-3.3418,-3.3418,-3.3418,-3.3418,-3.3418,-3.3418,-3.3418,-3.3418,-3.3418,-3.3418,-3.3418,-3.3418,-3.3965,-3.556,-3.7183,-3.8817,-4.0419,-4.2012,-4.2986,-4.2986,-4.2986,-4.2986,-4.2986,-4.2986,-4.2986,-4.2986,-4.2986,-4.2986,-4.2986,-4.2986,-4.2986,-4.2986,-4.2986,-4.2986,-4.2986,-4.2986,-4.2986,0.0,0.0,0.0,-3.6016,0.0,-3.6016,-3.6016,-3.6016,-3.6016,-3.6016,-3.6016,-3.6016,-3.6016,-3.6016,-3.6016,-3.6016,-3.6016,-3.6016,-3.6016,-3.6016,-3.6016,-3.6016,-3.6016,-3.6016,-3.6016,-3.6016,-3.6016,-3.6016,-3.6016,-3.6016,-3.6016,-3.6016,-3.5723,-3.5078,-3.4824,-3.4394,-3.3769,-3.3535,-3.3418,-3.3418,-3.3418,-3.3418,-3.3418,-3.3418,-3.3418,-3.3418,-3.3418,-3.3418,-3.3418,-3.3418,-3.3418,-3.3418,-3.3418,-3.3418,-3.3418,-3.3418,-3.3418,-3.3418,-3.3418,-3.3418,-3.3418,-3.3418,-3.3418,-3.3418,-3.3418,-3.3418,-3.3418,-3.3418,-3.3418,-3.3418,-3.3418,-3.3418,-3.3418,-3.3418,-3.3418,-3.3418,-3.3418,-3.3418,-3.3418,-3.3418,-3.3418,-3.3418,-3.3418,-3.3418,-3.3418,-3.3418,-3.3418,-3.3713,-3.455,-3.6721,-3.8521,-3.9347,-4.1615,-4.2986,-4.2986,-4.2986,-4.2986,-4.2986,-4.2986,-4.2986,-4.2986,-4.2986,-4.2986,-4.2986,-4.2986,-4.2986,-4.2986,-4.2986,-4.2986,-4.2986,-4.2986,-4.2986,0.0,0.0,0.0,-3.6016,-3.6016,0.0,-3.6016,-3.6016,-3.6016,-3.6016,-3.6016,-3.6016,-3.6016,-3.6016,-3.6016,-3.6016,-3.6016,-3.6016,-3.6016,-3.6016,-3.6016,-3.6016,-3.6016,-3.6016,-3.6016,-3.6016,-3.6016,-3.6016,-3.6016,-3.6016,-3.6016,-3.6016,-3.5605,-3.4726,-3.4707,-3.4277,-3.3437,-3.3418,-3.3418,-3.3418,-3.3418,-3.3418,-3.3418,-3.3418,-3.3418,-3.3418,-3.3418,-3.3418,-3.3418,-3.3418,-3.3418,-3.3418,-3.3418,-3.3418,-3.3418,-3.3418,-3.3418,-3.3418,-3.3418,-3.3418,-3.3418,-3.3418,-3.3418,-3.3418,-3.3418,-3.3418,-3.3418,-3.3418,-3.3418,-3.3418,-3.3418,-3.3418,-3.3418,-3.3418,-3.3418,-3.3418,-3.3418,-3.3418,-3.3418,-3.3418,-3.3418,-3.3418,-3.3418,-3.3418,-3.3418,-3.3418,-3.3418,-3.3481,-3.3776,-3.6356,-3.8342,-3.858,-4.1248,-4.2986,-4.2986,-4.2986,-4.2986,-4.2986,-4.2986,-4.2986,-4.2986,-4.2986,-4.2986,-4.2986,-4.2986,-4.2986,-4.2986,-4.2986,-4.2986,-4.2986,-4.2986,-4.2986,0.0,0.0,0.0,0.0,-3.6016,-3.6016,0.0,0.0,-3.6016,0.0,-3.6016,-3.6016,-3.6016,-3.6016,-3.6016,-3.6016,-3.6016,-3.6016,-3.6016,-3.6016,-3.6016,-3.6016,-3.6016,-3.6016,-3.6016,-3.6016,-3.6016,-3.6016,-3.6016,-3.6016,-3.6016,-3.6016,-3.5605,-3.4726,-3.4707,-3.4277,-3.3437,-3.3418,-3.3418,-3.3418,-3.3418,-3.3418,-3.3418,-3.3418,-3.3418,-3.3418,-3.3418,-3.3418,-3.3418,-3.3418,-3.3418,-3.3418,-3.3418,-3.3418,-3.3418,-3.3418,-3.3418,-3.3418,-3.3418,-3.3418,-3.3418,-3.3418,-3.3418,-3.3418,-3.3418,-3.3418,-3.3418,-3.3418,-3.3418,-3.3418,-3.3418,-3.3418,-3.3418,-3.3418,-3.3418,-3.3418,-3.3418,-3.3418,-3.3418,-3.3418,-3.3418,-3.3418,-3.3418,-3.3418,-3.3418,-3.3418,-3.3418,-3.3902,-3.5335,-3.7084,-3.8757,-4.0129,-4.1899,-4.2986,-4.2986,-4.2986,-4.2986,-4.2986,-4.2986,-4.2986,-4.2986,-4.2986,-4.2986,-4.2986,-4.2986,-4.2986,-4.2986,-4.2986,-4.2986,-4.2986,-4.2986,-4.2986,-3.6016,0.0,0.0,0.0,0.0,-3.6387,-3.6387,0.0,-3.6738,-3.6738,-3.6738,-3.6582,-3.6113,-3.6016,-3.6016,-3.6016,-3.6016,-3.6016,-3.6016,-3.6016,-3.6016,-3.6016,-3.6016,-3.6016,-3.6016,-3.6016,-3.6016,-3.6016,-3.6016,-3.6016,-3.6016,-3.5801,-3.5371,-3.4726,-3.4473,-3.4043,-3.3437,-3.3418,-3.3418,-3.3418,-3.3418,-3.3418,-3.3418,-3.3418,-3.3418,-3.3418,-3.3418,-3.3418,-3.3418,-3.3418,-3.3418,-3.3418,-3.3418,-3.3418,-3.3418,-3.3418,-3.3418,-3.3418,-3.3418,-3.3418,-3.3418,-3.3418,-3.3418,-3.3418,-3.3418,-3.3418,-3.3418,-3.3418,-3.3418,-3.3418,-3.3418,-3.3418,-3.3418,-3.3418,-3.3418,-3.3418,-3.3418,-3.3418,-3.3418,-3.3418,-3.3418,-3.3418,-3.3418,-3.3418,-3.3418,-3.3418,-3.3418,-3.367,-3.4383,-3.5867,-3.7484,-3.9111,-4.0707,-4.2012,-4.2905,-4.2986,-4.2986,-4.2986,-4.2986,-4.2986,-4.2986,-4.2986,-4.2986,-4.2986,-4.2986,-4.2986,-4.2986,-4.2986,-4.2986,-4.2986,-4.2986,-4.2986,0.0,0.0,0.0,0.0,0.0,-3.6699,0.0,0.0,-3.7305,-3.7305,-3.7305,-3.7109,-3.6465,-3.6269,-3.6152,-3.6035,-3.6016,-3.6016,-3.6016,-3.6016,-3.6016,-3.6016,-3.6016,-3.6016,-3.6016,-3.6016,-3.6016,-3.6016,-3.6016,-3.6016,-3.6016,-3.5625,-3.5176,-3.4707,-3.4297,-3.3867,-3.3418,-3.3418,-3.3418,-3.3418,-3.3418,-3.3418,-3.3418,-3.3418,-3.3418,-3.3418,-3.3418,-3.3418,-3.3418,-3.3418,-3.3418,-3.3418,-3.3418,-3.3418,-3.3418,-3.3418,-3.3418,-3.3418,-3.3418,-3.3418,-3.3418,-3.3418,-3.3418,-3.3418,-3.3418,-3.3418,-3.3418,-3.3418,-3.3418,-3.3418,-3.3418,-3.3418,-3.3418,-3.3418,-3.3418,-3.3418,-3.3418,-3.3418,-3.3418,-3.3418,-3.3418,-3.3418,-3.3418,-3.3418,-3.3418,-3.3418,-3.3418,-3.3418,-3.3418,-3.4778,-3.6295,-3.7424,-3.9053,-4.065,-4.2263,-4.2375,-4.2569,-4.2986,-4.2986,-4.2986,-4.2986,-4.2986,-4.2986,-4.2986,-4.2986,-4.2986,-4.2986,-4.2986,-4.2986,-4.2986,-4.2986,-4.2986,0.0,0.0,0.0,0.0,0.0,0.0,0.0,0.0,-3.7305,-3.7305,-3.7305,-3.7285,-3.7246,-3.6894,-3.6504,-3.6094,-3.6016,-3.6016,-3.6016,-3.6016,-3.6016,-3.6016,-3.6016,-3.6016,-3.6016,-3.6016,-3.6016,-3.6016,-3.6016,-3.6016,-3.6016,-3.5625,-3.5176,-3.4707,-3.4297,-3.3867,-3.3418,-3.3418,-3.3418,-3.3418,-3.3418,-3.3418,-3.3418,-3.3418,-3.3418,-3.3418,-3.3418,-3.3418,-3.3418,-3.3418,-3.3418,-3.3418,-3.3418,-3.3418,-3.3418,-3.3418,-3.3418,-3.3418,-3.3418,-3.3418,-3.3418,-3.3418,-3.3418,-3.3418,-3.3418,-3.3418,-3.3418,-3.3418,-3.3418,-3.3418,-3.3418,-3.3418,-3.3418,-3.3418,-3.3418,-3.3418,-3.3418,-3.3418,-3.3418,-3.3418,-3.3418,-3.3418,-3.3418,-3.3418,-3.3418,-3.3418,-3.3418,-3.3418,-3.3418,-3.4778,-3.5806,-3.5928,-3.7363,-3.8994,-4.0592,-4.0707,-4.1362,-4.2905,-4.2986,-4.2986,-4.2986,-4.2986,-4.2986,-4.2986,-4.2986,-4.2986,-4.2986,-4.2986,-4.2986,-4.2986,-4.2986,-4.2986,0.0,0.0,0.0,0.0,0.0,-3.7519,-3.7676,-3.791,-3.8125,-3.8125,-3.8125,-3.8027,-3.7754,-3.7148,-3.6621,-3.6465,-3.6211,-3.6016,-3.6016,-3.6016,-3.6016,-3.6016,-3.6016,-3.6016,-3.6016,-3.6016,-3.6016,-3.6016,-3.6016,-3.6016,-3.6016,-3.5332,-3.4863,-3.4707,-3.4023,-3.3574,-3.3418,-3.3418,-3.3418,-3.3418,-3.3418,-3.3418,-3.3418,-3.3418,-3.3418,-3.3418,-3.3418,-3.3418,-3.3418,-3.3418,-3.3418,-3.3418,-3.3418,-3.3418,-3.3418,-3.3418,-3.3418,-3.3418,-3.3418,-3.3418,-3.3418,-3.3418,-3.3418,-3.3418,-3.3418,-3.3418,-3.3418,-3.3418,-3.3418,-3.3418,-3.3418,-3.3418,-3.3418,-3.3418,-3.3418,-3.3418,-3.3418,-3.3418,-3.3418,-3.3418,-3.3418,-3.3418,-3.3418,-3.3418,-3.3418,-3.3418,-3.3418,-3.3418,-3.3418,-3.3902,-3.4674,-3.5683,-3.6356,-3.7303,-3.8935,-3.9053,-3.9288,-3.9873,-4.0904,-4.1476,-4.1476,-4.1476,-4.1955,-4.2986,-4.0961,-4.0961,-4.2986,-4.2986,-4.2986,-4.2986,-4.2986,-4.2986,-3.6191,0.0,0.0,0.0,0.0,-3.7969,-3.8105,-3.8359,-3.8574,-3.8574,-3.8574,-3.8476,-3.8203,-3.7578,-3.6992,-3.6719,-3.6426,-3.6191,-3.6035,-3.6016,-3.6016,-3.6016,-3.6016,-3.6016,-3.6016,-3.6016,-3.6016,-3.6016,-3.6016,-3.6016,-3.6016,-3.5176,-3.457,-3.4277,-3.3711,-3.3418,-3.3418,-3.3418,-3.3418,-3.3418,-3.3418,-3.3418,-3.3418,-3.3418,-3.3418,-3.3418,-3.3418,-3.3418,-3.3418,-3.3418,-3.3418,-3.3418,-3.3418,-3.3418,-3.3418,-3.3418,-3.3418,-3.3418,-3.3418,-3.3418,-3.3418,-3.3418,-3.3418,-3.3418,-3.3418,-3.3418,-3.3418,-3.3418,-3.3418,-3.3418,-3.3418,-3.3418,-3.3418,-3.3418,-3.3418,-3.3418,-3.3418,-3.3418,-3.3418,-3.3418,-3.3418,-3.3418,-3.3418,-3.3418,-3.3418,-3.3418,-3.3418,-3.3418,-3.3418,-3.3418,-3.3839,-3.484,-3.4964,-3.5643,-3.7265,-3.7385,-3.7604,-3.8164,-3.9229,-3.9756,-3.9756,-3.9756,-4.0303,-4.1362,-3.9288,-3.9229,-4.1362,-4.1899,-4.2206,-4.2206,-4.2206,-4.1899,0.0,0.0,0.0,-3.7715,0.0,0.0,-3.8476,0.0,-3.8574,-3.8574,-3.8574,-3.8574,-3.8574,-3.8223,-3.7676,-3.6816,-3.668,-3.6523,-3.6074,-3.6016,-3.6016,-3.6016,-3.6016,-3.6016,-3.6016,-3.6016,-3.6016,-3.6016,-3.6016,-3.6016,-3.6016,-3.5176,-3.4297,-3.3457,-3.3418,-3.3418,-3.3418,-3.3418,-3.3418,-3.3418,-3.3418,-3.3418,-3.3418,-3.3418,-3.3418,-3.3418,-3.3418,-3.3418,-3.3418,-3.3418,-3.3418,-3.3418,-3.3418,-3.3418,-3.3418,-3.3418,-3.3418,-3.3418,-3.3418,-3.3418,-3.3418,-3.3418,-3.3418,-3.3418,-3.3418,-3.3418,-3.3418,-3.3418,-3.3418,-3.3418,-3.3418,-3.3418,-3.3418,-3.3418,-3.3418,-3.3418,-3.3418,-3.3418,-3.3418,-3.3418,-3.3418,-3.3418,-3.3418,-3.3418,-3.3418,-3.3418,-3.3418,-3.3418,-3.3418,-3.3418,-3.3418,-3.3418,-3.3418,-3.4007,-3.5622,-3.5745,-3.6417,-3.7985,-3.8104,-3.8104,-3.8104,-3.8104,-3.8164,-3.8223,-3.8104,-3.8104,-3.8164,-3.9756,-4.0534,-4.0534,-4.0592,-3.9756,-3.6543,0.0,0.0,0.0,0.0,0.0,-3.8555,0.0,-3.8574,-3.8574,-3.8574,-3.8574,-3.8574,-3.8476,-3.8125,-3.7266,-3.6875,-3.6523,-3.6074,-3.6016,-3.6016,-3.6016,-3.6016,-3.6016,-3.6016,-3.6016,-3.6016,-3.6016,-3.6016,-3.6016,-3.6016,-3.5176,-3.4297,-3.3457,-3.3418,-3.3418,-3.3418,-3.3418,-3.3418,-3.3418,-3.3418,-3.3418,-3.3418,-3.3418,-3.3418,-3.3418,-3.3418,-3.3418,-3.3418,-3.3418,-3.3418,-3.3418,-3.3418,-3.3418,-3.3418,-3.3418,-3.3418,-3.3418,-3.3418,-3.3418,-3.3418,-3.3418,-3.3418,-3.3418,-3.3418,-3.3418,-3.3418,-3.3418,-3.3418,-3.3418,-3.3418,-3.3418,-3.3418,-3.3418,-3.3418,-3.3418,-3.3418,-3.3418,-3.3418,-3.3418,-3.3418,-3.3418,-3.3418,-3.3418,-3.3418,-3.3418,-3.3418,-3.3418,-3.3418,-3.3418,-3.3418,-3.3418,-3.3418,-3.3607,-3.4027,-3.407,-3.4258,-3.4694,-3.5806,-3.6478,-3.6478,-3.6478,-3.7002,-3.8164,-3.5888,-3.5273,-3.6456,-3.8082,-3.8876,-3.8876,-4.0047,-4.0361,-3.6816,-3.7246,-3.7656,-3.8086,0.0,0.0,-3.8574,-3.8574,-3.8574,0.0,-3.8574,-3.8574,-3.8574,-3.8418,-3.8086,-3.7402,-3.6953,-3.6523,-3.6074,-3.6016,-3.6016,-3.6016,-3.6016,-3.6016,-3.6016,-3.6016,-3.6016,-3.6016,-3.6016,-3.5859,-3.5488,-3.498,-3.4297,-3.3457,-3.3418,-3.3418,-3.3418,-3.3418,-3.3418,-3.3418,-3.3418,-3.3418,-3.3418,-3.3418,-3.3418,-3.3418,-3.3418,-3.3418,-3.3418,-3.3418,-3.3418,-3.3418,-3.3418,-3.3418,-3.3418,-3.3418,-3.3418,-3.3418,-3.3418,-3.3418,-3.3418,-3.3418,-3.3418,-3.3418,-3.3418,-3.3418,-3.3418,-3.3418,-3.3418,-3.3418,-3.3418,-3.3418,-3.3418,-3.3418,-3.3418,-3.3418,-3.3418,-3.3418,-3.3418,-3.3418,-3.3418,-3.3418,-3.3418,-3.3418,-3.3418,-3.3418,-3.3418,-3.3418,-3.3418,-3.3418,-3.3418,-3.3418,-3.3418,-3.3418,-3.3418,-3.3418,-3.3418,-3.3418,-3.4258,-3.4798,-3.4798,-3.4798,-3.5211,-3.6194,-3.4383,-3.3839,-3.4798,-3.6417,-3.7205,-3.7183,-3.8141,-3.826,-3.7246,-3.7637,-3.8027,-3.8476,-3.8574,0.0,-3.8574,-3.8574,-3.8574,0.0,-3.8574,-3.8555,-3.8516,-3.8184,-3.7773,-3.7305,-3.6914,-3.6523,-3.6074,-3.6016,-3.6016,-3.6016,-3.6016,-3.6016,-3.6016,-3.6016,-3.6016,-3.6016,-3.5976,-3.5586,-3.4746,-3.4648,-3.4258,-3.3437,-3.3418,-3.3418,-3.3418,-3.3418,-3.3418,-3.3418,-3.3418,-3.3418,-3.3418,-3.3418,-3.3418,-3.3418,-3.3418,-3.3418,-3.3418,-3.3418,-3.3418,-3.3418,-3.3418,-3.3418,-3.3418,-3.3418,-3.3418,-3.3418,-3.3418,-3.3418,-3.3418,-3.3418,-3.3418,-3.3418,-3.3418,-3.3418,-3.3418,-3.3418,-3.3418,-3.3418,-3.3418,-3.3418,-3.3418,-3.3418,-3.3418,-3.3418,-3.3418,-3.3418,-3.3418,-3.3418,-3.3418,-3.3418,-3.3418,-3.3418,-3.3418,-3.3418,-3.3418,-3.3418,-3.3418,-3.3418,-3.3418,-3.3418,-3.3418,-3.3418,-3.3418,-3.3418,-3.3418,-3.3418,-3.3418,-3.3418,-3.3418,-3.3418,-3.3418,-3.3418,-3.3418,-3.3418,-3.3418,-3.486,-3.5499,-3.556,-3.5745,-3.5026,-3.7695,-3.7851,-3.8027,-3.8476,-3.8574,0.0,-3.8574,-3.8574,-3.8574,0.0,-3.8574,-3.8476,-3.8105,-3.7988,-3.7676,-3.6914,-3.6719,-3.6523,-3.6074,-3.6016,-3.6016,-3.6016,-3.6016,-3.6016,-3.6016,-3.6016,-3.6016,-3.6016,-3.5703,-3.5273,-3.4726,-3.4375,-3.3965,-3.3437,-3.3418,-3.3418,-3.3418,-3.3418,-3.3418,-3.3418,-3.3418,-3.3418,-3.3418,-3.3418,-3.3418,-3.3418,-3.3418,-3.3418,-3.3418,-3.3418,-3.3418,-3.3418,-3.3418,-3.3418,-3.3418,-3.3418,-3.3418,-3.3418,-3.3418,-3.3418,-3.3418,-3.3418,-3.3418,-3.3418,-3.3418,-3.3418,-3.3418,-3.3418,-3.3418,-3.3418,-3.3418,-3.3418,-3.3418,-3.3418,-3.3418,-3.3418,-3.3418,-3.3418,-3.3418,-3.3418,-3.3418,-3.3418,-3.3418,-3.3418,-3.3418,-3.3418,-3.3418,-3.3418,-3.3418,-3.3418,-3.3418,-3.3418,-3.3418,-3.3418,-3.3418,-3.3418,-3.3418,-3.3418,-3.3418,-3.3418,-3.3418,-3.3418,-3.3418,-3.3418,-3.3418,-3.3418,-3.3418,-3.3713,-3.3902,-3.3902,-3.5211,-3.5622,-3.7871,-3.8086,-3.8301,-3.8516,-3.8574,0.0,0.0,-3.8574,-3.8574,-3.8574,-3.8398,-3.8184,-3.7969,-3.7578,-3.7168,-3.6738,-3.6484,-3.6269,-3.6055,-3.6016,-3.6016,-3.6016,-3.6016,-3.6016,-3.6016,-3.6016,-3.6016,-3.6016,-3.5625,-3.5195,-3.4726,-3.4297,-3.3867,-3.3437,-3.3418,-3.3418,-3.3418,-3.3418,-3.3418,-3.3418,-3.3418,-3.3418,-3.3418,-3.3418,-3.3418,-3.3418,-3.3418,-3.3418,-3.3418,-3.3418,-3.3418,-3.3418,-3.3418,-3.3418,-3.3418,-3.3418,-3.3418,-3.3418,-3.3418,-3.3418,-3.3418,-3.3418,-3.3418,-3.3418,-3.3418,-3.3418,-3.3418,-3.3418,-3.3418,-3.3418,-3.3418,-3.3418,-3.3418,-3.3418,-3.3418,-3.3418,-3.3418,-3.3418,-3.3418,-3.3418,-3.3418,-3.3418,-3.3418,-3.3418,-3.3418,-3.3418,-3.3418,-3.3418,-3.3418,-3.3418,-3.3418,-3.3418,-3.3418,-3.3418,-3.3418,-3.3418,-3.3418,-3.3418,-3.3418,-3.3418,-3.3418,-3.3418,-3.3418,-3.3418,-3.3418,-3.3418,-3.3418,-3.3418,-3.3418,-3.3418,-3.4258,-3.4612,-3.8047,-3.8301,-3.8574,-3.8574,-3.8574,-3.8574,0.0,0.0,0.0,-3.8476,-3.8164,-3.7871,-3.7715,-3.7129,-3.6641,-3.6562,-3.625,-3.6016,-3.6016,-3.6016,-3.6016,-3.6016,-3.6016,-3.6016,-3.6016,-3.6016,-3.5996,-3.5898,-3.5508,-3.5059,-3.4609,-3.418,-3.3789,-3.3437,-3.3418,-3.3418,-3.3418,-3.3418,-3.3418,-3.3418,-3.3418,-3.3418,-3.3418,-3.3418,-3.3418,-3.3418,-3.3418,-3.3418,-3.3418,-3.3418,-3.3418,-3.3418,-3.3418,-3.3418,-3.3418,-3.3418,-3.3418,-3.3418,-3.3418,-3.3418,-3.3418,-3.3418,-3.3418,-3.3418,-3.3418,-3.3418,-3.3418,-3.3418,-3.3418,-3.3418,-3.3418,-3.3418,-3.3418,-3.3418,-3.3418,-3.3418,-3.3418,-3.3418,-3.3418,-3.3418,-3.3418,-3.3418,-3.3418,-3.3418,-3.3418,-3.3418,-3.3418,-3.3418,-3.3418,-3.3418,-3.3418,-3.3418,-3.3418,-3.3418,-3.3418,-3.3418,-3.3418,-3.3418,-3.3418,-3.3418,-3.3418,-3.3418,-3.3418,-3.3418,-3.3418,-3.3418,-3.3418,-3.3418,-3.3418,-3.3418,-3.3418,-3.3418,-3.8496,-3.8535,-3.8574,-3.8574,-3.8574,-3.8574,-3.8574,0.0,-3.8457,-3.8086,0.0,-3.7695,-3.6953,0.0,0.0,-3.6152,-3.6055,-3.6016,-3.6016,-3.6016,-3.6016,-3.6016,-3.6016,-3.6016,-3.6016,-3.6016,-3.5859,-3.5488,-3.5039,-3.459,-3.416,-3.373,-3.3476,-3.3418,-3.3418,-3.3418,-3.3418,-3.3418,-3.3418,-3.3418,-3.3418,-3.3418,-3.3418,-3.3418,-3.3418,-3.3418,-3.3418,-3.3418,-3.3418,-3.3418,-3.3418,-3.3418,-3.3418,-3.3418,-3.3418,-3.3418,-3.3418,-3.3418,-3.3418,-3.3418,-3.3418,-3.3418,-3.3418,-3.3418,-3.3418,-3.3418,-3.3418,-3.3418,-3.3418,-3.3418,-3.3418,-3.3418,-3.3418,-3.3418,-3.3418,-3.3418,-3.3418,-3.3418,-3.3418,-3.3418,-3.3418,-3.3418,-3.3418,-3.3418,-3.3418,-3.3418,-3.3418,-3.3418,-3.3418,-3.3418,-3.3418,-3.3418,-3.3418,-3.3418,-3.3418,-3.3418,-3.3418,-3.3418,-3.3418,-3.3418,-3.3418,-3.3418,-3.3418,-3.3418,-3.3418,-3.3418,-3.3418,-3.3418,-3.3418,-3.3418,-3.3418,-3.3418,-3.8574,-3.8574,-3.8574,-3.8574,-3.8574,-3.8574,-3.8574,-3.8379,-3.8144,-3.7969,0.0,0.0,0.0,0.0,0.0,0.0,-3.6016,-3.6016,-3.6016,-3.6016,-3.6016,-3.6016,-3.6016,-3.6016,-3.6016,-3.6016,-3.584,-3.543,-3.4961,-3.4512,-3.4101,-3.3652,-3.3418,-3.3418,-3.3418,-3.3418,-3.3418,-3.3418,-3.3418,-3.3418,-3.3418,-3.3418,-3.3418,-3.3418,-3.3418,-3.3418,-3.3418,-3.3418,-3.3418,-3.3418,-3.3418,-3.3418,-3.3418,-3.3418,-3.3418,-3.3418,-3.3418,-3.3418,-3.3418,-3.3418,-3.3418,-3.3418,-3.3418,-3.3418,-3.3418,-3.3418,-3.3418,-3.3418,-3.3418,-3.3418,-3.3418,-3.3418,-3.3418,-3.3418,-3.3418,-3.3418,-3.3418,-3.3418,-3.3418,-3.3418,-3.3418,-3.3418,-3.3418,-3.3418,-3.3418,-3.3418,-3.3418,-3.3418,-3.3418,-3.3418,-3.3418,-3.3418,-3.3418,-3.3418,-3.3418,-3.3418,-3.3418,-3.3418,-3.3418,-3.3418,-3.3418,-3.3418,-3.3418,-3.3418,-3.3418,-3.3418,-3.3418,-3.3418,-3.3418,-3.3418,-3.3418,-3.3418,-3.8574,-3.8574,-3.8574,-3.8574,-3.8574,-3.8555,-3.8418,-3.8144,-3.7851,-3.7637,-3.709,0.0,0.0,0.0,-3.6016,-3.6016,0.0,-3.6016,-3.6016,-3.6016,-3.6016,-3.6016,-3.6016,-3.6016,-3.6016,-3.5918,-3.5664,-3.5234,-3.4785,-3.4336,-3.3926,-3.3594,-3.3418,-3.3418,-3.3418,-3.3418,-3.3418,-3.3418,-3.3418,-3.3418,-3.3418,-3.3418,-3.3418,-3.3418,-3.3418,-3.3418,-3.3418,-3.3418,-3.3418,-3.3418,-3.3418,-3.3418,-3.3418,-3.3418,-3.3418,-3.3418,-3.3418,-3.3418,-3.3418,-3.3418,-3.3418,-3.3418,-3.3418,-3.3418,-3.3418,-3.3418,-3.3418,-3.3418,-3.3418,-3.3418,-3.3418,-3.3418,-3.3418,-3.3418,-3.3418,-3.3418,-3.3418,-3.3418,-3.3418,-3.3418,-3.3418,-3.3418,-3.3418,-3.3418,-3.3418,-3.3418,-3.3418,-3.3418,-3.3418,-3.3418,-3.3418,-3.3418,-3.3418,-3.3418,-3.3418,-3.3418,-3.3418,-3.3418,-3.3418,-3.3418,-3.3418,-3.3418,-3.3418,-3.3418,-3.3418,-3.3418,-3.3418,-3.3418,-3.3418,-3.3418,-3.3418,-3.3418,-3.8574,-3.8574,-3.8574,-3.8574,-3.8574,-3.8457,-3.8047,-3.793,-3.7695,-3.6875,-3.668,-3.6543,-3.6113,-3.6035,-3.6016,-3.6016,-3.6016,0.0,0.0,-3.6016,-3.6016,-3.6016,-3.6016,-3.6016,-3.6016,-3.5644,-3.5215,-3.4766,-3.4336,-3.3906,-3.3457,-3.3437,-3.3418,-3.3418,-3.3418,-3.3418,-3.3418,-3.3418,-3.3418,-3.3418,-3.3418,-3.3418,-3.3418,-3.3418,-3.3418,-3.3418,-3.3418,-3.3418,-3.3418,-3.3418,-3.3418,-3.3418,-3.3418,-3.3418,-3.3418,-3.3418,-3.3418,-3.3418,-3.3418,-3.3418,-3.3418,-3.3418,-3.3418,-3.3418,-3.3418,-3.3418,-3.3418,-3.3418,-3.3418,-3.3418,-3.3418,-3.3418,-3.3418,-3.3418,-3.3418,-3.3418,-3.3418,-3.3418,-3.3418,-3.3418,-3.3418,-3.3418,-3.3418,-3.3418,-3.3418,-3.3418,-3.3418,-3.3418,-3.3418,-3.3418,-3.3418,-3.3418,-3.3418,-3.3418,-3.3418,-3.3418,-3.3418,-3.3418,-3.3418,-3.3418,-3.3418,-3.3418,-3.3418,-3.3418,-3.3418,-3.3418,-3.3418,-3.3418,-3.3418,-3.3418,-3.3418,-3.3418,-3.8574,-3.8574,-3.8574,-3.8574,-3.8574,-3.8457,-3.8027,-3.7715,-3.7344,-3.6777,-3.6445,-3.6191,-3.6055,-3.6016,-3.6016,-3.6016,-3.6016,-3.6016,0.0,-3.6016,-3.5918,-3.5644,-3.5859,-3.5918,-3.5625,-3.5488,-3.5078,-3.4336,-3.416,-3.3887,-3.3437,-3.3418,-3.3418,-3.3418,-3.3418,-3.3418,-3.3418,-3.3418,-3.3418,-3.3418,-3.3418,-3.3418,-3.3418,-3.3418,-3.3418,-3.3418,-3.3418,-3.3418,-3.3418,-3.3418,-3.3418,-3.3418,-3.3418,-3.3418,-3.3418,-3.3418,-3.3418,-3.3418,-3.3418,-3.3418,-3.3418,-3.3418,-3.3418,-3.3418,-3.3418,-3.3418,-3.3418,-3.3418,-3.3418,-3.3418,-3.3418,-3.3418,-3.3418,-3.3418,-3.3418,-3.3418,-3.3418,-3.3418,-3.3418,-3.3418,-3.3418,-3.3418,-3.3418,-3.3418,-3.3418,-3.3418,-3.3418,-3.3418,-3.3418,-3.3418,-3.3418,-3.3418,-3.3418,-3.3418,-3.3418,-3.3418,-3.3418,-3.3418,-3.3418,-3.3418,-3.3418,-3.3418,-3.3418,-3.3418,-3.3418,-3.3418,-3.3418,-3.3418,-3.3418,-3.3418,-3.3418,-3.3418,-3.8574,-3.8574,-3.8574,-3.8574,-3.8457,-3.8223,-3.7793,-3.7383,-3.6953,-3.6523,-3.6211,-3.6016,-3.6016,-3.6016,-3.6016,-3.6016,-3.6016,-3.6016,0.0,-3.6016,-3.5859,-3.5449,-3.5625,-3.5625,-3.5195,-3.5019,-3.4687,-3.4121,-3.3926,-3.3711,-3.3437,-3.3418,-3.3418,-3.3418,-3.3418,-3.3418,-3.3418,-3.3418,-3.3418,-3.3418,-3.3418,-3.3418,-3.3418,-3.3418,-3.3418,-3.3418,-3.3418,-3.3418,-3.3418,-3.3418,-3.3418,-3.3418,-3.3418,-3.3418,-3.3418,-3.3418,-3.3418,-3.3418,-3.3418,-3.3418,-3.3418,-3.3418,-3.3418,-3.3418,-3.3418,-3.3418,-3.3418,-3.3418,-3.3418,-3.3418,-3.3418,-3.3418,-3.3418,-3.3418,-3.3418,-3.3418,-3.3418,-3.3418,-3.3418,-3.3418,-3.3418,-3.3418,-3.3418,-3.3418,-3.3418,-3.3418,-3.3418,-3.3418,-3.3418,-3.3418,-3.3418,-3.3418,-3.3418,-3.3418,-3.3418,-3.3418,-3.3418,-3.3418,-3.3418,-3.3418,-3.3418,-3.3418,-3.3496,-3.3652,-3.3496,-3.3496,-3.3652,-3.3496,-3.3418,-3.3418,-3.3418,-3.3418]}]]